<?xml version="1.0" encoding="UTF-8" standalone="no" ?>
<gpx xmlns="http://www.topografix.com/GPX/1/1" xmlns:xsi="http://www.w3.org/2001/XMLSchema-instance" xsi:schemaLocation="http://www.topografix.com/GPX/1/1 http://www.topografix.com/GPX/1/1/gpx.xsd" version="1.1" creator="VisuGPX - https://www.visugpx.com">
  <metadata>
    <name>Gif - St Remi</name>
  </metadata>
  <trk>
    <name><![CDATA[91L44/18 Gif sur Yvette - St Remy les Chevreuses - St Aubin - Villiers le Bâcle 20 km par Brigitte]]></name>
    <trkseg>
      <trkpt lat="48.70739" lon="2.11131">
        <ele>149.4</ele>
      </trkpt>
    </trkseg>
  </trk>
  <trk>
    <name><![CDATA[Gif - St Remi_2]]></name>
    <trkseg>
      <trkpt lat="48.7047" lon="2.11706">
        <ele>87.8</ele>
      </trkpt>
      <trkpt lat="48.70381" lon="2.11712">
        <ele>81.4</ele>
      </trkpt>
      <trkpt lat="48.70305" lon="2.11646">
        <ele>74</ele>
      </trkpt>
      <trkpt lat="48.70269" lon="2.11637">
        <ele>70.7</ele>
      </trkpt>
      <trkpt lat="48.70232" lon="2.11651">
        <ele>68.8</ele>
      </trkpt>
      <trkpt lat="48.70237" lon="2.11764">
        <ele>66.8</ele>
      </trkpt>
      <trkpt lat="48.70264" lon="2.11794">
        <ele>69.9</ele>
      </trkpt>
      <trkpt lat="48.7028" lon="2.11784">
        <ele>73</ele>
      </trkpt>
      <trkpt lat="48.70334" lon="2.1204">
        <ele>67.6</ele>
      </trkpt>
      <trkpt lat="48.70348" lon="2.12199">
        <ele>66</ele>
      </trkpt>
      <trkpt lat="48.70346" lon="2.12289">
        <ele>65.9</ele>
      </trkpt>
      <trkpt lat="48.70328" lon="2.1238">
        <ele>65.5</ele>
      </trkpt>
      <trkpt lat="48.7026" lon="2.125">
        <ele>65.4</ele>
      </trkpt>
      <trkpt lat="48.70186" lon="2.12491">
        <ele>64.6</ele>
      </trkpt>
      <trkpt lat="48.70149" lon="2.1248">
        <ele>64.8</ele>
      </trkpt>
      <trkpt lat="48.70141" lon="2.12487">
        <ele>65.4</ele>
      </trkpt>
      <trkpt lat="48.70115" lon="2.12601">
        <ele>64.6</ele>
        <time>2018-08-01T08:23:20Z</time>
      </trkpt>
      <trkpt lat="48.70105" lon="2.1259">
        <ele>115.22</ele>
        <time>2018-08-01T08:23:27Z</time>
      </trkpt>
      <trkpt lat="48.70102" lon="2.12585">
        <ele>125.585</ele>
        <time>2018-08-01T08:23:33Z</time>
      </trkpt>
      <trkpt lat="48.701" lon="2.12583">
        <ele>132.882</ele>
        <time>2018-08-01T08:23:36Z</time>
      </trkpt>
      <trkpt lat="48.70103" lon="2.12574">
        <ele>139.527</ele>
        <time>2018-08-01T08:24:20Z</time>
      </trkpt>
      <trkpt lat="48.70102" lon="2.12568">
        <ele>139.725</ele>
        <time>2018-08-01T08:24:27Z</time>
      </trkpt>
      <trkpt lat="48.70105" lon="2.12561">
        <ele>139.869</ele>
        <time>2018-08-01T08:24:35Z</time>
      </trkpt>
      <trkpt lat="48.70109" lon="2.12555">
        <ele>139.696</ele>
        <time>2018-08-01T08:24:39Z</time>
      </trkpt>
      <trkpt lat="48.70111" lon="2.12551">
        <ele>139.505</ele>
        <time>2018-08-01T08:24:42Z</time>
      </trkpt>
      <trkpt lat="48.70116" lon="2.12547">
        <ele>138.832</ele>
        <time>2018-08-01T08:24:49Z</time>
      </trkpt>
      <trkpt lat="48.70118" lon="2.12545">
        <ele>138.538</ele>
        <time>2018-08-01T08:24:51Z</time>
      </trkpt>
      <trkpt lat="48.70121" lon="2.1254">
        <ele>138.018</ele>
        <time>2018-08-01T08:24:54Z</time>
      </trkpt>
      <trkpt lat="48.70124" lon="2.12537">
        <ele>137.636</ele>
        <time>2018-08-01T08:24:56Z</time>
      </trkpt>
      <trkpt lat="48.70125" lon="2.12529">
        <ele>136.319</ele>
        <time>2018-08-01T08:25:03Z</time>
      </trkpt>
      <trkpt lat="48.70125" lon="2.12521">
        <ele>135.425</ele>
        <time>2018-08-01T08:25:08Z</time>
      </trkpt>
      <trkpt lat="48.70126" lon="2.12514">
        <ele>134.536</ele>
        <time>2018-08-01T08:25:13Z</time>
      </trkpt>
      <trkpt lat="48.70128" lon="2.12506">
        <ele>133.366</ele>
        <time>2018-08-01T08:25:20Z</time>
      </trkpt>
      <trkpt lat="48.70135" lon="2.1248">
        <ele>128.319</ele>
        <time>2018-08-01T08:25:30Z</time>
      </trkpt>
      <trkpt lat="48.70132" lon="2.12474">
        <ele>128.073</ele>
        <time>2018-08-01T08:25:34Z</time>
      </trkpt>
      <trkpt lat="48.70127" lon="2.1247">
        <ele>127.847</ele>
        <time>2018-08-01T08:25:37Z</time>
      </trkpt>
      <trkpt lat="48.70124" lon="2.12465">
        <ele>127.391</ele>
        <time>2018-08-01T08:25:42Z</time>
      </trkpt>
      <trkpt lat="48.70118" lon="2.12463">
        <ele>126.703</ele>
        <time>2018-08-01T08:25:49Z</time>
      </trkpt>
      <trkpt lat="48.70114" lon="2.12465">
        <ele>126.418</ele>
        <time>2018-08-01T08:25:52Z</time>
      </trkpt>
      <trkpt lat="48.70108" lon="2.12466">
        <ele>126.134</ele>
        <time>2018-08-01T08:25:55Z</time>
      </trkpt>
      <trkpt lat="48.70106" lon="2.12466">
        <ele>125.949</ele>
        <time>2018-08-01T08:25:57Z</time>
      </trkpt>
      <trkpt lat="48.70101" lon="2.12466">
        <ele>125.591</ele>
        <time>2018-08-01T08:26:01Z</time>
      </trkpt>
      <trkpt lat="48.70095" lon="2.12466">
        <ele>125.25</ele>
        <time>2018-08-01T08:26:05Z</time>
      </trkpt>
      <trkpt lat="48.70091" lon="2.12464">
        <ele>124.927</ele>
        <time>2018-08-01T08:26:09Z</time>
      </trkpt>
      <trkpt lat="48.70088" lon="2.12462">
        <ele>124.701</ele>
        <time>2018-08-01T08:26:12Z</time>
      </trkpt>
      <trkpt lat="48.70084" lon="2.12459">
        <ele>124.428</ele>
        <time>2018-08-01T08:26:16Z</time>
      </trkpt>
      <trkpt lat="48.70081" lon="2.12458">
        <ele>124.301</ele>
        <time>2018-08-01T08:26:18Z</time>
      </trkpt>
      <trkpt lat="48.70078" lon="2.12456">
        <ele>124.125</ele>
        <time>2018-08-01T08:26:21Z</time>
      </trkpt>
      <trkpt lat="48.70075" lon="2.12454">
        <ele>124.015</ele>
        <time>2018-08-01T08:26:23Z</time>
      </trkpt>
      <trkpt lat="48.70073" lon="2.12452">
        <ele>123.86</ele>
        <time>2018-08-01T08:26:26Z</time>
      </trkpt>
      <trkpt lat="48.7007" lon="2.12451">
        <ele>123.765</ele>
        <time>2018-08-01T08:26:28Z</time>
      </trkpt>
      <trkpt lat="48.70066" lon="2.12449">
        <ele>123.629</ele>
        <time>2018-08-01T08:26:31Z</time>
      </trkpt>
      <trkpt lat="48.70061" lon="2.12446">
        <ele>123.396</ele>
        <time>2018-08-01T08:26:36Z</time>
      </trkpt>
      <trkpt lat="48.70056" lon="2.12445">
        <ele>123.214</ele>
        <time>2018-08-01T08:26:40Z</time>
      </trkpt>
      <trkpt lat="48.7005" lon="2.12445">
        <ele>123.035</ele>
        <time>2018-08-01T08:26:44Z</time>
      </trkpt>
      <trkpt lat="48.70045" lon="2.12443">
        <ele>122.908</ele>
        <time>2018-08-01T08:26:47Z</time>
      </trkpt>
      <trkpt lat="48.7004" lon="2.12443">
        <ele>122.749</ele>
        <time>2018-08-01T08:26:51Z</time>
      </trkpt>
      <trkpt lat="48.70035" lon="2.12439">
        <ele>122.558</ele>
        <time>2018-08-01T08:26:56Z</time>
      </trkpt>
      <trkpt lat="48.70031" lon="2.12434">
        <ele>122.385</ele>
        <time>2018-08-01T08:27:00Z</time>
      </trkpt>
      <trkpt lat="48.70028" lon="2.12427">
        <ele>122.194</ele>
        <time>2018-08-01T08:27:04Z</time>
      </trkpt>
      <trkpt lat="48.70027" lon="2.12423">
        <ele>122.095</ele>
        <time>2018-08-01T08:27:06Z</time>
      </trkpt>
      <trkpt lat="48.70026" lon="2.12419">
        <ele>121.996</ele>
        <time>2018-08-01T08:27:08Z</time>
      </trkpt>
      <trkpt lat="48.70026" lon="2.12411">
        <ele>121.803</ele>
        <time>2018-08-01T08:27:12Z</time>
      </trkpt>
      <trkpt lat="48.70028" lon="2.12404">
        <ele>121.656</ele>
        <time>2018-08-01T08:27:15Z</time>
      </trkpt>
      <trkpt lat="48.70029" lon="2.12397">
        <ele>121.5</ele>
        <time>2018-08-01T08:27:18Z</time>
      </trkpt>
      <trkpt lat="48.70031" lon="2.1239">
        <ele>121.22</ele>
        <time>2018-08-01T08:27:23Z</time>
      </trkpt>
      <trkpt lat="48.70034" lon="2.12384">
        <ele>121.043</ele>
        <time>2018-08-01T08:27:26Z</time>
      </trkpt>
      <trkpt lat="48.70035" lon="2.12381">
        <ele>120.921</ele>
        <time>2018-08-01T08:27:28Z</time>
      </trkpt>
      <trkpt lat="48.70036" lon="2.12378">
        <ele>120.798</ele>
        <time>2018-08-01T08:27:30Z</time>
      </trkpt>
      <trkpt lat="48.70038" lon="2.12373">
        <ele>120.611</ele>
        <time>2018-08-01T08:27:33Z</time>
      </trkpt>
      <trkpt lat="48.70039" lon="2.12366">
        <ele>120.31</ele>
        <time>2018-08-01T08:27:38Z</time>
      </trkpt>
      <trkpt lat="48.70041" lon="2.1236">
        <ele>120.142</ele>
        <time>2018-08-01T08:27:41Z</time>
      </trkpt>
      <trkpt lat="48.70043" lon="2.12355">
        <ele>120.033</ele>
        <time>2018-08-01T08:27:43Z</time>
      </trkpt>
      <trkpt lat="48.70046" lon="2.12349">
        <ele>119.82</ele>
        <time>2018-08-01T08:27:47Z</time>
      </trkpt>
      <trkpt lat="48.7005" lon="2.12345">
        <ele>119.66</ele>
        <time>2018-08-01T08:27:50Z</time>
      </trkpt>
      <trkpt lat="48.70054" lon="2.1234">
        <ele>119.399</ele>
        <time>2018-08-01T08:27:55Z</time>
      </trkpt>
      <trkpt lat="48.70056" lon="2.12332">
        <ele>119.244</ele>
        <time>2018-08-01T08:27:58Z</time>
      </trkpt>
      <trkpt lat="48.70059" lon="2.12324">
        <ele>119.035</ele>
        <time>2018-08-01T08:28:02Z</time>
      </trkpt>
      <trkpt lat="48.70061" lon="2.1232">
        <ele>118.931</ele>
        <time>2018-08-01T08:28:04Z</time>
      </trkpt>
      <trkpt lat="48.70064" lon="2.12315">
        <ele>118.776</ele>
        <time>2018-08-01T08:28:07Z</time>
      </trkpt>
      <trkpt lat="48.70066" lon="2.1231">
        <ele>118.621</ele>
        <time>2018-08-01T08:28:10Z</time>
      </trkpt>
      <trkpt lat="48.70069" lon="2.12303">
        <ele>118.424</ele>
        <time>2018-08-01T08:28:14Z</time>
      </trkpt>
      <trkpt lat="48.70072" lon="2.12298">
        <ele>118.281</ele>
        <time>2018-08-01T08:28:17Z</time>
      </trkpt>
      <trkpt lat="48.70074" lon="2.12294">
        <ele>118.142</ele>
        <time>2018-08-01T08:28:20Z</time>
      </trkpt>
      <trkpt lat="48.70076" lon="2.1229">
        <ele>118.008</ele>
        <time>2018-08-01T08:28:23Z</time>
      </trkpt>
      <trkpt lat="48.70078" lon="2.12283">
        <ele>117.835</ele>
        <time>2018-08-01T08:28:27Z</time>
      </trkpt>
      <trkpt lat="48.7008" lon="2.12278">
        <ele>117.748</ele>
        <time>2018-08-01T08:28:29Z</time>
      </trkpt>
      <trkpt lat="48.70082" lon="2.12273">
        <ele>117.61</ele>
        <time>2018-08-01T08:28:32Z</time>
      </trkpt>
      <trkpt lat="48.70085" lon="2.12265">
        <ele>117.414</ele>
        <time>2018-08-01T08:28:36Z</time>
      </trkpt>
      <trkpt lat="48.70087" lon="2.12258">
        <ele>117.212</ele>
        <time>2018-08-01T08:28:40Z</time>
      </trkpt>
      <trkpt lat="48.70088" lon="2.12253">
        <ele>117.057</ele>
        <time>2018-08-01T08:28:43Z</time>
      </trkpt>
      <trkpt lat="48.7009" lon="2.12246">
        <ele>116.849</ele>
        <time>2018-08-01T08:28:47Z</time>
      </trkpt>
      <trkpt lat="48.70091" lon="2.12242">
        <ele>116.698</ele>
        <time>2018-08-01T08:28:50Z</time>
      </trkpt>
      <trkpt lat="48.70093" lon="2.12234">
        <ele>116.506</ele>
        <time>2018-08-01T08:28:54Z</time>
      </trkpt>
      <trkpt lat="48.70095" lon="2.12226">
        <ele>116.278</ele>
        <time>2018-08-01T08:28:59Z</time>
      </trkpt>
      <trkpt lat="48.70096" lon="2.12219">
        <ele>116.145</ele>
        <time>2018-08-01T08:29:02Z</time>
      </trkpt>
      <trkpt lat="48.70097" lon="2.12215">
        <ele>116.059</ele>
        <time>2018-08-01T08:29:04Z</time>
      </trkpt>
      <trkpt lat="48.70096" lon="2.12207">
        <ele>115.851</ele>
        <time>2018-08-01T08:29:09Z</time>
      </trkpt>
      <trkpt lat="48.70098" lon="2.12198">
        <ele>115.685</ele>
        <time>2018-08-01T08:29:13Z</time>
      </trkpt>
      <trkpt lat="48.70099" lon="2.12191">
        <ele>115.523</ele>
        <time>2018-08-01T08:29:17Z</time>
      </trkpt>
      <trkpt lat="48.701" lon="2.12182">
        <ele>115.364</ele>
        <time>2018-08-01T08:29:21Z</time>
      </trkpt>
      <trkpt lat="48.70101" lon="2.12178">
        <ele>115.287</ele>
        <time>2018-08-01T08:29:23Z</time>
      </trkpt>
      <trkpt lat="48.70101" lon="2.12175">
        <ele>115.21</ele>
        <time>2018-08-01T08:29:25Z</time>
      </trkpt>
      <trkpt lat="48.70102" lon="2.12171">
        <ele>115.135</ele>
        <time>2018-08-01T08:29:27Z</time>
      </trkpt>
      <trkpt lat="48.70103" lon="2.12166">
        <ele>115.024</ele>
        <time>2018-08-01T08:29:30Z</time>
      </trkpt>
      <trkpt lat="48.70104" lon="2.1216">
        <ele>114.915</ele>
        <time>2018-08-01T08:29:33Z</time>
      </trkpt>
      <trkpt lat="48.70106" lon="2.12154">
        <ele>114.809</ele>
        <time>2018-08-01T08:29:36Z</time>
      </trkpt>
      <trkpt lat="48.70106" lon="2.12149">
        <ele>114.74</ele>
        <time>2018-08-01T08:29:38Z</time>
      </trkpt>
      <trkpt lat="48.70107" lon="2.12145">
        <ele>114.674</ele>
        <time>2018-08-01T08:29:40Z</time>
      </trkpt>
      <trkpt lat="48.70108" lon="2.12142">
        <ele>114.61</ele>
        <time>2018-08-01T08:29:42Z</time>
      </trkpt>
      <trkpt lat="48.70111" lon="2.12135">
        <ele>114.488</ele>
        <time>2018-08-01T08:29:46Z</time>
      </trkpt>
      <trkpt lat="48.70112" lon="2.12127">
        <ele>114.375</ele>
        <time>2018-08-01T08:29:50Z</time>
      </trkpt>
      <trkpt lat="48.70113" lon="2.12124">
        <ele>114.298</ele>
        <time>2018-08-01T08:29:53Z</time>
      </trkpt>
      <trkpt lat="48.70115" lon="2.12117">
        <ele>114.204</ele>
        <time>2018-08-01T08:29:57Z</time>
      </trkpt>
      <trkpt lat="48.70117" lon="2.12111">
        <ele>114.117</ele>
        <time>2018-08-01T08:30:01Z</time>
      </trkpt>
      <trkpt lat="48.70117" lon="2.12102">
        <ele>114.056</ele>
        <time>2018-08-01T08:30:04Z</time>
      </trkpt>
      <trkpt lat="48.70116" lon="2.12096">
        <ele>114</ele>
        <time>2018-08-01T08:30:07Z</time>
      </trkpt>
      <trkpt lat="48.70115" lon="2.12089">
        <ele>113.948</ele>
        <time>2018-08-01T08:30:10Z</time>
      </trkpt>
      <trkpt lat="48.70112" lon="2.12084">
        <ele>113.873</ele>
        <time>2018-08-01T08:30:15Z</time>
      </trkpt>
      <trkpt lat="48.7011" lon="2.12076">
        <ele>113.824</ele>
        <time>2018-08-01T08:30:19Z</time>
      </trkpt>
      <trkpt lat="48.70106" lon="2.12069">
        <ele>113.786</ele>
        <time>2018-08-01T08:30:23Z</time>
      </trkpt>
      <trkpt lat="48.70104" lon="2.12062">
        <ele>113.756</ele>
        <time>2018-08-01T08:30:27Z</time>
      </trkpt>
      <trkpt lat="48.70102" lon="2.12057">
        <ele>113.726</ele>
        <time>2018-08-01T08:30:32Z</time>
      </trkpt>
      <trkpt lat="48.70101" lon="2.12053">
        <ele>113.705</ele>
        <time>2018-08-01T08:30:36Z</time>
      </trkpt>
      <trkpt lat="48.70102" lon="2.12042">
        <ele>113.693</ele>
        <time>2018-08-01T08:30:39Z</time>
      </trkpt>
      <trkpt lat="48.70102" lon="2.12038">
        <ele>113.691</ele>
        <time>2018-08-01T08:30:40Z</time>
      </trkpt>
      <trkpt lat="48.70102" lon="2.12031">
        <ele>113.69</ele>
        <time>2018-08-01T08:30:43Z</time>
      </trkpt>
      <trkpt lat="48.701" lon="2.12024">
        <ele>113.696</ele>
        <time>2018-08-01T08:30:46Z</time>
      </trkpt>
      <trkpt lat="48.701" lon="2.1202">
        <ele>113.704</ele>
        <time>2018-08-01T08:30:48Z</time>
      </trkpt>
      <trkpt lat="48.70099" lon="2.12015">
        <ele>113.711</ele>
        <time>2018-08-01T08:30:50Z</time>
      </trkpt>
      <trkpt lat="48.70098" lon="2.12011">
        <ele>113.718</ele>
        <time>2018-08-01T08:30:52Z</time>
      </trkpt>
      <trkpt lat="48.70099" lon="2.12004">
        <ele>113.738</ele>
        <time>2018-08-01T08:30:57Z</time>
      </trkpt>
      <trkpt lat="48.70097" lon="2.11997">
        <ele>113.75</ele>
        <time>2018-08-01T08:31:00Z</time>
      </trkpt>
      <trkpt lat="48.70096" lon="2.11989">
        <ele>113.773</ele>
        <time>2018-08-01T08:31:04Z</time>
      </trkpt>
      <trkpt lat="48.70097" lon="2.11981">
        <ele>113.805</ele>
        <time>2018-08-01T08:31:08Z</time>
      </trkpt>
      <trkpt lat="48.70097" lon="2.11976">
        <ele>113.823</ele>
        <time>2018-08-01T08:31:10Z</time>
      </trkpt>
      <trkpt lat="48.70096" lon="2.11969">
        <ele>113.852</ele>
        <time>2018-08-01T08:31:13Z</time>
      </trkpt>
      <trkpt lat="48.70095" lon="2.11961">
        <ele>113.881</ele>
        <time>2018-08-01T08:31:16Z</time>
      </trkpt>
      <trkpt lat="48.70095" lon="2.11957">
        <ele>113.914</ele>
        <time>2018-08-01T08:31:19Z</time>
      </trkpt>
      <trkpt lat="48.70094" lon="2.11952">
        <ele>113.949</ele>
        <time>2018-08-01T08:31:22Z</time>
      </trkpt>
      <trkpt lat="48.70093" lon="2.11947">
        <ele>113.976</ele>
        <time>2018-08-01T08:31:24Z</time>
      </trkpt>
      <trkpt lat="48.70093" lon="2.11942">
        <ele>114.006</ele>
        <time>2018-08-01T08:31:26Z</time>
      </trkpt>
      <trkpt lat="48.70091" lon="2.11935">
        <ele>114.072</ele>
        <time>2018-08-01T08:31:30Z</time>
      </trkpt>
      <trkpt lat="48.70088" lon="2.11928">
        <ele>114.168</ele>
        <time>2018-08-01T08:31:35Z</time>
      </trkpt>
      <trkpt lat="48.70088" lon="2.1192">
        <ele>114.244</ele>
        <time>2018-08-01T08:31:39Z</time>
      </trkpt>
      <trkpt lat="48.70086" lon="2.11912">
        <ele>114.341</ele>
        <time>2018-08-01T08:31:44Z</time>
      </trkpt>
      <trkpt lat="48.70082" lon="2.11905">
        <ele>114.424</ele>
        <time>2018-08-01T08:31:48Z</time>
      </trkpt>
      <trkpt lat="48.7008" lon="2.11897">
        <ele>114.515</ele>
        <time>2018-08-01T08:31:52Z</time>
      </trkpt>
      <trkpt lat="48.70079" lon="2.1189">
        <ele>114.61</ele>
        <time>2018-08-01T08:31:56Z</time>
      </trkpt>
      <trkpt lat="48.70078" lon="2.11885">
        <ele>114.684</ele>
        <time>2018-08-01T08:31:59Z</time>
      </trkpt>
      <trkpt lat="48.70076" lon="2.11879">
        <ele>114.781</ele>
        <time>2018-08-01T08:32:03Z</time>
      </trkpt>
      <trkpt lat="48.70074" lon="2.11873">
        <ele>114.876</ele>
        <time>2018-08-01T08:32:07Z</time>
      </trkpt>
      <trkpt lat="48.70068" lon="2.11854">
        <ele>115.284</ele>
        <time>2018-08-01T08:32:25Z</time>
      </trkpt>
      <trkpt lat="48.70067" lon="2.1185">
        <ele>115.326</ele>
        <time>2018-08-01T08:32:27Z</time>
      </trkpt>
      <trkpt lat="48.70066" lon="2.11847">
        <ele>115.368</ele>
        <time>2018-08-01T08:32:29Z</time>
      </trkpt>
      <trkpt lat="48.70063" lon="2.1184">
        <ele>115.47</ele>
        <time>2018-08-01T08:32:34Z</time>
      </trkpt>
      <trkpt lat="48.70061" lon="2.11833">
        <ele>115.549</ele>
        <time>2018-08-01T08:32:38Z</time>
      </trkpt>
      <trkpt lat="48.70059" lon="2.11826">
        <ele>115.647</ele>
        <time>2018-08-01T08:32:43Z</time>
      </trkpt>
      <trkpt lat="48.70058" lon="2.11822">
        <ele>115.707</ele>
        <time>2018-08-01T08:32:46Z</time>
      </trkpt>
      <trkpt lat="48.70058" lon="2.11814">
        <ele>115.782</ele>
        <time>2018-08-01T08:32:50Z</time>
      </trkpt>
      <trkpt lat="48.70057" lon="2.11807">
        <ele>115.85</ele>
        <time>2018-08-01T08:32:54Z</time>
      </trkpt>
      <trkpt lat="48.70056" lon="2.11799">
        <ele>115.897</ele>
        <time>2018-08-01T08:32:57Z</time>
      </trkpt>
      <trkpt lat="48.70056" lon="2.11796">
        <ele>115.926</ele>
        <time>2018-08-01T08:32:59Z</time>
      </trkpt>
      <trkpt lat="48.70057" lon="2.11789">
        <ele>115.982</ele>
        <time>2018-08-01T08:33:03Z</time>
      </trkpt>
      <trkpt lat="48.70057" lon="2.11784">
        <ele>116.036</ele>
        <time>2018-08-01T08:33:07Z</time>
      </trkpt>
      <trkpt lat="48.70058" lon="2.11779">
        <ele>116.074</ele>
        <time>2018-08-01T08:33:10Z</time>
      </trkpt>
      <trkpt lat="48.70061" lon="2.11772">
        <ele>116.133</ele>
        <time>2018-08-01T08:33:15Z</time>
      </trkpt>
      <trkpt lat="48.70062" lon="2.11768">
        <ele>116.164</ele>
        <time>2018-08-01T08:33:18Z</time>
      </trkpt>
      <trkpt lat="48.70056" lon="2.11729">
        <ele>117.647</ele>
        <time>2018-08-01T08:37:42Z</time>
      </trkpt>
      <trkpt lat="48.70055" lon="2.11725">
        <ele>117.682</ele>
        <time>2018-08-01T08:37:45Z</time>
      </trkpt>
      <trkpt lat="48.70056" lon="2.11718">
        <ele>117.735</ele>
        <time>2018-08-01T08:37:50Z</time>
      </trkpt>
      <trkpt lat="48.70058" lon="2.11712">
        <ele>117.764</ele>
        <time>2018-08-01T08:37:53Z</time>
      </trkpt>
      <trkpt lat="48.70059" lon="2.11708">
        <ele>117.782</ele>
        <time>2018-08-01T08:37:55Z</time>
      </trkpt>
      <trkpt lat="48.7006" lon="2.11704">
        <ele>117.798</ele>
        <time>2018-08-01T08:37:57Z</time>
      </trkpt>
      <trkpt lat="48.70061" lon="2.117">
        <ele>117.814</ele>
        <time>2018-08-01T08:37:59Z</time>
      </trkpt>
      <trkpt lat="48.70063" lon="2.11693">
        <ele>117.847</ele>
        <time>2018-08-01T08:38:04Z</time>
      </trkpt>
      <trkpt lat="48.70064" lon="2.11688">
        <ele>117.87</ele>
        <time>2018-08-01T08:38:08Z</time>
      </trkpt>
      <trkpt lat="48.70064" lon="2.11685">
        <ele>117.88</ele>
        <time>2018-08-01T08:38:10Z</time>
      </trkpt>
      <trkpt lat="48.70066" lon="2.11679">
        <ele>117.902</ele>
        <time>2018-08-01T08:38:14Z</time>
      </trkpt>
      <trkpt lat="48.70068" lon="2.1167">
        <ele>117.92</ele>
        <time>2018-08-01T08:38:18Z</time>
      </trkpt>
      <trkpt lat="48.70069" lon="2.11667">
        <ele>117.929</ele>
        <time>2018-08-01T08:38:20Z</time>
      </trkpt>
      <trkpt lat="48.7007" lon="2.11663">
        <ele>117.938</ele>
        <time>2018-08-01T08:38:22Z</time>
      </trkpt>
      <trkpt lat="48.7007" lon="2.11656">
        <ele>117.954</ele>
        <time>2018-08-01T08:38:26Z</time>
      </trkpt>
      <trkpt lat="48.70071" lon="2.11651">
        <ele>117.967</ele>
        <time>2018-08-01T08:38:29Z</time>
      </trkpt>
      <trkpt lat="48.70071" lon="2.11647">
        <ele>117.975</ele>
        <time>2018-08-01T08:38:31Z</time>
      </trkpt>
      <trkpt lat="48.70074" lon="2.11639">
        <ele>117.99</ele>
        <time>2018-08-01T08:38:35Z</time>
      </trkpt>
      <trkpt lat="48.70075" lon="2.11635">
        <ele>117.997</ele>
        <time>2018-08-01T08:38:37Z</time>
      </trkpt>
      <trkpt lat="48.70077" lon="2.11629">
        <ele>118.008</ele>
        <time>2018-08-01T08:38:40Z</time>
      </trkpt>
      <trkpt lat="48.7008" lon="2.11623">
        <ele>118.019</ele>
        <time>2018-08-01T08:38:43Z</time>
      </trkpt>
      <trkpt lat="48.70082" lon="2.11618">
        <ele>118.025</ele>
        <time>2018-08-01T08:38:45Z</time>
      </trkpt>
      <trkpt lat="48.70084" lon="2.11613">
        <ele>118.031</ele>
        <time>2018-08-01T08:38:47Z</time>
      </trkpt>
      <trkpt lat="48.70086" lon="2.11606">
        <ele>118.039</ele>
        <time>2018-08-01T08:38:50Z</time>
      </trkpt>
      <trkpt lat="48.70089" lon="2.11601">
        <ele>118.05</ele>
        <time>2018-08-01T08:38:54Z</time>
      </trkpt>
      <trkpt lat="48.7009" lon="2.11598">
        <ele>118.055</ele>
        <time>2018-08-01T08:38:56Z</time>
      </trkpt>
      <trkpt lat="48.70092" lon="2.11594">
        <ele>118.064</ele>
        <time>2018-08-01T08:39:00Z</time>
      </trkpt>
      <trkpt lat="48.70094" lon="2.11587">
        <ele>118.072</ele>
        <time>2018-08-01T08:39:04Z</time>
      </trkpt>
      <trkpt lat="48.70097" lon="2.11582">
        <ele>118.079</ele>
        <time>2018-08-01T08:39:09Z</time>
      </trkpt>
      <trkpt lat="48.70099" lon="2.11577">
        <ele>118.083</ele>
        <time>2018-08-01T08:39:12Z</time>
      </trkpt>
      <trkpt lat="48.70101" lon="2.11573">
        <ele>118.085</ele>
        <time>2018-08-01T08:39:14Z</time>
      </trkpt>
      <trkpt lat="48.70103" lon="2.11565">
        <ele>118.092</ele>
        <time>2018-08-01T08:39:19Z</time>
      </trkpt>
      <trkpt lat="48.70104" lon="2.11558">
        <ele>118.094</ele>
        <time>2018-08-01T08:39:23Z</time>
      </trkpt>
      <trkpt lat="48.70103" lon="2.1155">
        <ele>118.093</ele>
        <time>2018-08-01T08:39:28Z</time>
      </trkpt>
      <trkpt lat="48.70103" lon="2.11543">
        <ele>118.094</ele>
        <time>2018-08-01T08:39:31Z</time>
      </trkpt>
      <trkpt lat="48.70103" lon="2.11534">
        <ele>118.095</ele>
        <time>2018-08-01T08:39:35Z</time>
      </trkpt>
      <trkpt lat="48.70103" lon="2.11527">
        <ele>118.094</ele>
        <time>2018-08-01T08:39:38Z</time>
      </trkpt>
      <trkpt lat="48.70104" lon="2.1152">
        <ele>118.09</ele>
        <time>2018-08-01T08:39:41Z</time>
      </trkpt>
      <trkpt lat="48.70103" lon="2.11512">
        <ele>118.084</ele>
        <time>2018-08-01T08:39:46Z</time>
      </trkpt>
      <trkpt lat="48.70104" lon="2.11505">
        <ele>118.08</ele>
        <time>2018-08-01T08:39:50Z</time>
      </trkpt>
      <trkpt lat="48.70107" lon="2.11499">
        <ele>118.076</ele>
        <time>2018-08-01T08:39:53Z</time>
      </trkpt>
      <trkpt lat="48.70108" lon="2.1149">
        <ele>118.071</ele>
        <time>2018-08-01T08:39:58Z</time>
      </trkpt>
      <trkpt lat="48.70108" lon="2.11485">
        <ele>118.069</ele>
        <time>2018-08-01T08:40:00Z</time>
      </trkpt>
      <trkpt lat="48.70109" lon="2.1148">
        <ele>118.067</ele>
        <time>2018-08-01T08:40:02Z</time>
      </trkpt>
      <trkpt lat="48.70111" lon="2.11472">
        <ele>118.061</ele>
        <time>2018-08-01T08:40:07Z</time>
      </trkpt>
      <trkpt lat="48.70111" lon="2.11465">
        <ele>118.056</ele>
        <time>2018-08-01T08:40:10Z</time>
      </trkpt>
      <trkpt lat="48.70113" lon="2.11459">
        <ele>118.049</ele>
        <time>2018-08-01T08:40:15Z</time>
      </trkpt>
      <trkpt lat="48.70115" lon="2.11452">
        <ele>118.045</ele>
        <time>2018-08-01T08:40:19Z</time>
      </trkpt>
      <trkpt lat="48.70116" lon="2.11448">
        <ele>118.042</ele>
        <time>2018-08-01T08:40:22Z</time>
      </trkpt>
      <trkpt lat="48.70119" lon="2.11443">
        <ele>118.036</ele>
        <time>2018-08-01T08:40:29Z</time>
      </trkpt>
      <trkpt lat="48.70123" lon="2.11439">
        <ele>118.035</ele>
        <time>2018-08-01T08:40:34Z</time>
      </trkpt>
      <trkpt lat="48.70127" lon="2.11441">
        <ele>118.038</ele>
        <time>2018-08-01T08:40:39Z</time>
      </trkpt>
      <trkpt lat="48.70132" lon="2.11441">
        <ele>118.042</ele>
        <time>2018-08-01T08:40:45Z</time>
      </trkpt>
      <trkpt lat="48.70136" lon="2.11442">
        <ele>118.047</ele>
        <time>2018-08-01T08:40:51Z</time>
      </trkpt>
      <trkpt lat="48.70141" lon="2.11446">
        <ele>118.052</ele>
        <time>2018-08-01T08:40:56Z</time>
      </trkpt>
      <trkpt lat="48.70146" lon="2.11447">
        <ele>118.057</ele>
        <time>2018-08-01T08:40:59Z</time>
      </trkpt>
      <trkpt lat="48.7015" lon="2.1145">
        <ele>118.061</ele>
        <time>2018-08-01T08:41:02Z</time>
      </trkpt>
      <trkpt lat="48.70152" lon="2.11451">
        <ele>118.064</ele>
        <time>2018-08-01T08:41:05Z</time>
      </trkpt>
      <trkpt lat="48.70157" lon="2.11453">
        <ele>118.067</ele>
        <time>2018-08-01T08:41:09Z</time>
      </trkpt>
      <trkpt lat="48.70162" lon="2.11458">
        <ele>118.07</ele>
        <time>2018-08-01T08:41:13Z</time>
      </trkpt>
      <trkpt lat="48.70166" lon="2.1146">
        <ele>118.073</ele>
        <time>2018-08-01T08:41:17Z</time>
      </trkpt>
      <trkpt lat="48.70169" lon="2.11462">
        <ele>118.076</ele>
        <time>2018-08-01T08:41:19Z</time>
      </trkpt>
      <trkpt lat="48.70172" lon="2.11464">
        <ele>118.08</ele>
        <time>2018-08-01T08:41:22Z</time>
      </trkpt>
      <trkpt lat="48.70177" lon="2.11466">
        <ele>118.087</ele>
        <time>2018-08-01T08:41:27Z</time>
      </trkpt>
      <trkpt lat="48.70181" lon="2.11467">
        <ele>118.093</ele>
        <time>2018-08-01T08:41:31Z</time>
      </trkpt>
      <trkpt lat="48.70186" lon="2.1147">
        <ele>118.104</ele>
        <time>2018-08-01T08:41:38Z</time>
      </trkpt>
      <trkpt lat="48.70191" lon="2.11473">
        <ele>118.109</ele>
        <time>2018-08-01T08:41:42Z</time>
      </trkpt>
      <trkpt lat="48.70197" lon="2.11474">
        <ele>118.113</ele>
        <time>2018-08-01T08:41:46Z</time>
      </trkpt>
      <trkpt lat="48.70204" lon="2.11465">
        <ele>118.116</ele>
        <time>2018-08-01T08:41:49Z</time>
      </trkpt>
      <trkpt lat="48.70207" lon="2.11461">
        <ele>118.118</ele>
        <time>2018-08-01T08:41:51Z</time>
      </trkpt>
      <trkpt lat="48.70211" lon="2.11454">
        <ele>118.124</ele>
        <time>2018-08-01T08:41:55Z</time>
      </trkpt>
      <trkpt lat="48.70212" lon="2.11451">
        <ele>118.127</ele>
        <time>2018-08-01T08:41:57Z</time>
      </trkpt>
      <trkpt lat="48.70216" lon="2.11447">
        <ele>118.138</ele>
        <time>2018-08-01T08:42:02Z</time>
      </trkpt>
      <trkpt lat="48.70218" lon="2.1144">
        <ele>118.155</ele>
        <time>2018-08-01T08:42:07Z</time>
      </trkpt>
      <trkpt lat="48.7022" lon="2.11436">
        <ele>118.162</ele>
        <time>2018-08-01T08:42:09Z</time>
      </trkpt>
      <trkpt lat="48.70223" lon="2.11429">
        <ele>118.178</ele>
        <time>2018-08-01T08:42:13Z</time>
      </trkpt>
      <trkpt lat="48.70225" lon="2.11421">
        <ele>118.194</ele>
        <time>2018-08-01T08:42:17Z</time>
      </trkpt>
      <trkpt lat="48.70227" lon="2.11415">
        <ele>118.205</ele>
        <time>2018-08-01T08:42:20Z</time>
      </trkpt>
      <trkpt lat="48.70228" lon="2.11412">
        <ele>118.212</ele>
        <time>2018-08-01T08:42:22Z</time>
      </trkpt>
      <trkpt lat="48.70231" lon="2.11406">
        <ele>118.227</ele>
        <time>2018-08-01T08:42:27Z</time>
      </trkpt>
      <trkpt lat="48.70232" lon="2.11398">
        <ele>118.241</ele>
        <time>2018-08-01T08:42:31Z</time>
      </trkpt>
      <trkpt lat="48.70234" lon="2.11393">
        <ele>118.252</ele>
        <time>2018-08-01T08:42:34Z</time>
      </trkpt>
      <trkpt lat="48.70236" lon="2.11387">
        <ele>118.266</ele>
        <time>2018-08-01T08:42:38Z</time>
      </trkpt>
      <trkpt lat="48.70238" lon="2.11379">
        <ele>118.281</ele>
        <time>2018-08-01T08:42:44Z</time>
      </trkpt>
      <trkpt lat="48.7024" lon="2.11373">
        <ele>118.287</ele>
        <time>2018-08-01T08:42:47Z</time>
      </trkpt>
      <trkpt lat="48.70241" lon="2.11366">
        <ele>118.293</ele>
        <time>2018-08-01T08:42:50Z</time>
      </trkpt>
      <trkpt lat="48.70242" lon="2.11359">
        <ele>118.302</ele>
        <time>2018-08-01T08:42:55Z</time>
      </trkpt>
      <trkpt lat="48.70245" lon="2.11352">
        <ele>118.307</ele>
        <time>2018-08-01T08:42:59Z</time>
      </trkpt>
      <trkpt lat="48.70248" lon="2.11346">
        <ele>118.31</ele>
        <time>2018-08-01T08:43:02Z</time>
      </trkpt>
      <trkpt lat="48.70248" lon="2.11338">
        <ele>118.313</ele>
        <time>2018-08-01T08:43:08Z</time>
      </trkpt>
      <trkpt lat="48.7025" lon="2.11331">
        <ele>118.311</ele>
        <time>2018-08-01T08:43:12Z</time>
      </trkpt>
      <trkpt lat="48.70253" lon="2.11324">
        <ele>118.303</ele>
        <time>2018-08-01T08:43:17Z</time>
      </trkpt>
      <trkpt lat="48.70254" lon="2.11318">
        <ele>118.297</ele>
        <time>2018-08-01T08:43:20Z</time>
      </trkpt>
      <trkpt lat="48.70255" lon="2.11312">
        <ele>118.29</ele>
        <time>2018-08-01T08:43:23Z</time>
      </trkpt>
      <trkpt lat="48.70255" lon="2.11302">
        <ele>118.274</ele>
        <time>2018-08-01T08:43:28Z</time>
      </trkpt>
      <trkpt lat="48.70255" lon="2.11299">
        <ele>118.263</ele>
        <time>2018-08-01T08:43:30Z</time>
      </trkpt>
      <trkpt lat="48.70256" lon="2.11291">
        <ele>118.234</ele>
        <time>2018-08-01T08:43:35Z</time>
      </trkpt>
      <trkpt lat="48.70256" lon="2.11283">
        <ele>118.208</ele>
        <time>2018-08-01T08:43:39Z</time>
      </trkpt>
      <trkpt lat="48.70257" lon="2.11276">
        <ele>118.179</ele>
        <time>2018-08-01T08:43:43Z</time>
      </trkpt>
      <trkpt lat="48.70261" lon="2.11271">
        <ele>118.153</ele>
        <time>2018-08-01T08:43:48Z</time>
      </trkpt>
      <trkpt lat="48.70266" lon="2.11269">
        <ele>118.146</ele>
        <time>2018-08-01T08:43:52Z</time>
      </trkpt>
      <trkpt lat="48.7027" lon="2.11259">
        <ele>118.142</ele>
        <time>2018-08-01T08:43:57Z</time>
      </trkpt>
      <trkpt lat="48.70271" lon="2.11252">
        <ele>118.142</ele>
        <time>2018-08-01T08:44:00Z</time>
      </trkpt>
      <trkpt lat="48.70272" lon="2.11249">
        <ele>118.144</ele>
        <time>2018-08-01T08:44:02Z</time>
      </trkpt>
      <trkpt lat="48.70272" lon="2.11244">
        <ele>118.148</ele>
        <time>2018-08-01T08:44:05Z</time>
      </trkpt>
      <trkpt lat="48.70273" lon="2.11239">
        <ele>118.153</ele>
        <time>2018-08-01T08:44:07Z</time>
      </trkpt>
      <trkpt lat="48.70274" lon="2.11233">
        <ele>118.162</ele>
        <time>2018-08-01T08:44:10Z</time>
      </trkpt>
      <trkpt lat="48.70276" lon="2.11226">
        <ele>118.177</ele>
        <time>2018-08-01T08:44:14Z</time>
      </trkpt>
      <trkpt lat="48.70276" lon="2.11217">
        <ele>118.194</ele>
        <time>2018-08-01T08:44:18Z</time>
      </trkpt>
      <trkpt lat="48.70276" lon="2.1121">
        <ele>118.207</ele>
        <time>2018-08-01T08:44:22Z</time>
      </trkpt>
      <trkpt lat="48.70277" lon="2.11202">
        <ele>118.222</ele>
        <time>2018-08-01T08:44:27Z</time>
      </trkpt>
      <trkpt lat="48.70276" lon="2.11195">
        <ele>118.231</ele>
        <time>2018-08-01T08:44:30Z</time>
      </trkpt>
      <trkpt lat="48.70277" lon="2.11188">
        <ele>118.24</ele>
        <time>2018-08-01T08:44:33Z</time>
      </trkpt>
      <trkpt lat="48.70278" lon="2.1118">
        <ele>118.254</ele>
        <time>2018-08-01T08:44:37Z</time>
      </trkpt>
      <trkpt lat="48.70278" lon="2.11174">
        <ele>118.264</ele>
        <time>2018-08-01T08:44:40Z</time>
      </trkpt>
      <trkpt lat="48.70278" lon="2.11166">
        <ele>118.284</ele>
        <time>2018-08-01T08:44:44Z</time>
      </trkpt>
      <trkpt lat="48.70279" lon="2.11162">
        <ele>118.304</ele>
        <time>2018-08-01T08:44:47Z</time>
      </trkpt>
      <trkpt lat="48.7028" lon="2.11155">
        <ele>118.326</ele>
        <time>2018-08-01T08:44:50Z</time>
      </trkpt>
      <trkpt lat="48.7028" lon="2.11147">
        <ele>118.366</ele>
        <time>2018-08-01T08:44:55Z</time>
      </trkpt>
      <trkpt lat="48.70282" lon="2.11141">
        <ele>118.406</ele>
        <time>2018-08-01T08:44:59Z</time>
      </trkpt>
      <trkpt lat="48.70274" lon="2.11125">
        <ele>118.695</ele>
        <time>2018-08-01T08:45:23Z</time>
      </trkpt>
      <trkpt lat="48.70269" lon="2.11125">
        <ele>118.777</ele>
        <time>2018-08-01T08:45:28Z</time>
      </trkpt>
      <trkpt lat="48.70266" lon="2.11125">
        <ele>118.82</ele>
        <time>2018-08-01T08:45:31Z</time>
      </trkpt>
      <trkpt lat="48.7026" lon="2.11128">
        <ele>118.901</ele>
        <time>2018-08-01T08:45:37Z</time>
      </trkpt>
      <trkpt lat="48.70257" lon="2.11132">
        <ele>118.927</ele>
        <time>2018-08-01T08:45:39Z</time>
      </trkpt>
      <trkpt lat="48.70252" lon="2.11134">
        <ele>119.003</ele>
        <time>2018-08-01T08:45:46Z</time>
      </trkpt>
      <trkpt lat="48.70248" lon="2.11137">
        <ele>119.032</ele>
        <time>2018-08-01T08:45:51Z</time>
      </trkpt>
      <trkpt lat="48.70243" lon="2.11138">
        <ele>119.035</ele>
        <time>2018-08-01T08:45:55Z</time>
      </trkpt>
      <trkpt lat="48.70238" lon="2.11135">
        <ele>119.019</ele>
        <time>2018-08-01T08:46:00Z</time>
      </trkpt>
      <trkpt lat="48.70238" lon="2.11127">
        <ele>118.999</ele>
        <time>2018-08-01T08:46:06Z</time>
      </trkpt>
      <trkpt lat="48.70237" lon="2.11119">
        <ele>119.018</ele>
        <time>2018-08-01T08:46:11Z</time>
      </trkpt>
      <trkpt lat="48.70238" lon="2.11111">
        <ele>119.042</ele>
        <time>2018-08-01T08:46:15Z</time>
      </trkpt>
      <trkpt lat="48.7024" lon="2.11103">
        <ele>119.063</ele>
        <time>2018-08-01T08:46:18Z</time>
      </trkpt>
      <trkpt lat="48.7024" lon="2.11099">
        <ele>119.085</ele>
        <time>2018-08-01T08:46:21Z</time>
      </trkpt>
      <trkpt lat="48.70241" lon="2.11095">
        <ele>119.098</ele>
        <time>2018-08-01T08:46:23Z</time>
      </trkpt>
      <trkpt lat="48.70242" lon="2.11088">
        <ele>119.124</ele>
        <time>2018-08-01T08:46:27Z</time>
      </trkpt>
      <trkpt lat="48.70241" lon="2.11075">
        <ele>119.15</ele>
        <time>2018-08-01T08:46:32Z</time>
      </trkpt>
      <trkpt lat="48.70239" lon="2.11069">
        <ele>119.18</ele>
        <time>2018-08-01T08:46:38Z</time>
      </trkpt>
      <trkpt lat="48.70235" lon="2.11065">
        <ele>119.203</ele>
        <time>2018-08-01T08:46:42Z</time>
      </trkpt>
      <trkpt lat="48.7023" lon="2.11061">
        <ele>119.234</ele>
        <time>2018-08-01T08:46:46Z</time>
      </trkpt>
      <trkpt lat="48.70228" lon="2.11059">
        <ele>119.251</ele>
        <time>2018-08-01T08:46:48Z</time>
      </trkpt>
      <trkpt lat="48.70223" lon="2.11056">
        <ele>119.283</ele>
        <time>2018-08-01T08:46:52Z</time>
      </trkpt>
      <trkpt lat="48.7022" lon="2.11053">
        <ele>119.299</ele>
        <time>2018-08-01T08:46:54Z</time>
      </trkpt>
      <trkpt lat="48.70218" lon="2.11045">
        <ele>119.338</ele>
        <time>2018-08-01T08:46:59Z</time>
      </trkpt>
      <trkpt lat="48.70217" lon="2.11038">
        <ele>119.383</ele>
        <time>2018-08-01T08:47:05Z</time>
      </trkpt>
      <trkpt lat="48.70213" lon="2.11033">
        <ele>119.429</ele>
        <time>2018-08-01T08:47:11Z</time>
      </trkpt>
      <trkpt lat="48.70211" lon="2.1103">
        <ele>119.443</ele>
        <time>2018-08-01T08:47:13Z</time>
      </trkpt>
      <trkpt lat="48.70209" lon="2.11026">
        <ele>119.463</ele>
        <time>2018-08-01T08:47:16Z</time>
      </trkpt>
      <trkpt lat="48.70202" lon="2.11024">
        <ele>119.49</ele>
        <time>2018-08-01T08:47:20Z</time>
      </trkpt>
      <trkpt lat="48.70197" lon="2.11023">
        <ele>119.506</ele>
        <time>2018-08-01T08:47:23Z</time>
      </trkpt>
      <trkpt lat="48.70194" lon="2.11023">
        <ele>119.516</ele>
        <time>2018-08-01T08:47:25Z</time>
      </trkpt>
      <trkpt lat="48.70191" lon="2.11017">
        <ele>119.54</ele>
        <time>2018-08-01T08:47:30Z</time>
      </trkpt>
      <trkpt lat="48.70191" lon="2.1101">
        <ele>119.556</ele>
        <time>2018-08-01T08:47:33Z</time>
      </trkpt>
      <trkpt lat="48.70192" lon="2.11005">
        <ele>119.566</ele>
        <time>2018-08-01T08:47:35Z</time>
      </trkpt>
      <trkpt lat="48.70192" lon="2.11">
        <ele>119.578</ele>
        <time>2018-08-01T08:47:37Z</time>
      </trkpt>
      <trkpt lat="48.70194" lon="2.10992">
        <ele>119.594</ele>
        <time>2018-08-01T08:47:40Z</time>
      </trkpt>
      <trkpt lat="48.70195" lon="2.10985">
        <ele>119.62</ele>
        <time>2018-08-01T08:47:45Z</time>
      </trkpt>
      <trkpt lat="48.70196" lon="2.10981">
        <ele>119.63</ele>
        <time>2018-08-01T08:47:47Z</time>
      </trkpt>
      <trkpt lat="48.70196" lon="2.10976">
        <ele>119.643</ele>
        <time>2018-08-01T08:47:50Z</time>
      </trkpt>
      <trkpt lat="48.70198" lon="2.10969">
        <ele>119.667</ele>
        <time>2018-08-01T08:47:55Z</time>
      </trkpt>
      <trkpt lat="48.702" lon="2.10963">
        <ele>119.683</ele>
        <time>2018-08-01T08:47:59Z</time>
      </trkpt>
      <trkpt lat="48.70202" lon="2.1096">
        <ele>119.69</ele>
        <time>2018-08-01T08:48:01Z</time>
      </trkpt>
      <trkpt lat="48.70204" lon="2.10952">
        <ele>119.714</ele>
        <time>2018-08-01T08:48:06Z</time>
      </trkpt>
      <trkpt lat="48.70206" lon="2.10947">
        <ele>119.748</ele>
        <time>2018-08-01T08:48:11Z</time>
      </trkpt>
      <trkpt lat="48.70207" lon="2.10939">
        <ele>119.776</ele>
        <time>2018-08-01T08:48:14Z</time>
      </trkpt>
      <trkpt lat="48.70207" lon="2.10931">
        <ele>119.818</ele>
        <time>2018-08-01T08:48:18Z</time>
      </trkpt>
      <trkpt lat="48.7021" lon="2.10924">
        <ele>119.861</ele>
        <time>2018-08-01T08:48:22Z</time>
      </trkpt>
      <trkpt lat="48.70212" lon="2.10917">
        <ele>119.905</ele>
        <time>2018-08-01T08:48:26Z</time>
      </trkpt>
      <trkpt lat="48.70214" lon="2.10914">
        <ele>119.943</ele>
        <time>2018-08-01T08:48:29Z</time>
      </trkpt>
      <trkpt lat="48.70215" lon="2.10906">
        <ele>120.001</ele>
        <time>2018-08-01T08:48:34Z</time>
      </trkpt>
      <trkpt lat="48.70215" lon="2.10903">
        <ele>120.022</ele>
        <time>2018-08-01T08:48:36Z</time>
      </trkpt>
      <trkpt lat="48.70219" lon="2.10896">
        <ele>120.07</ele>
        <time>2018-08-01T08:48:40Z</time>
      </trkpt>
      <trkpt lat="48.7022" lon="2.10893">
        <ele>120.094</ele>
        <time>2018-08-01T08:48:42Z</time>
      </trkpt>
      <trkpt lat="48.70222" lon="2.10886">
        <ele>120.129</ele>
        <time>2018-08-01T08:48:45Z</time>
      </trkpt>
      <trkpt lat="48.70223" lon="2.10882">
        <ele>120.151</ele>
        <time>2018-08-01T08:48:47Z</time>
      </trkpt>
      <trkpt lat="48.70226" lon="2.10877">
        <ele>120.191</ele>
        <time>2018-08-01T08:48:51Z</time>
      </trkpt>
      <trkpt lat="48.70228" lon="2.10871">
        <ele>120.221</ele>
        <time>2018-08-01T08:48:55Z</time>
      </trkpt>
      <trkpt lat="48.70231" lon="2.10863">
        <ele>120.242</ele>
        <time>2018-08-01T08:48:59Z</time>
      </trkpt>
      <trkpt lat="48.70232" lon="2.10859">
        <ele>120.253</ele>
        <time>2018-08-01T08:49:02Z</time>
      </trkpt>
      <trkpt lat="48.70233" lon="2.10852">
        <ele>120.26</ele>
        <time>2018-08-01T08:49:06Z</time>
      </trkpt>
      <trkpt lat="48.70234" lon="2.10846">
        <ele>120.255</ele>
        <time>2018-08-01T08:49:09Z</time>
      </trkpt>
      <trkpt lat="48.70236" lon="2.10838">
        <ele>120.246</ele>
        <time>2018-08-01T08:49:14Z</time>
      </trkpt>
      <trkpt lat="48.70238" lon="2.10831">
        <ele>120.231</ele>
        <time>2018-08-01T08:49:18Z</time>
      </trkpt>
      <trkpt lat="48.7024" lon="2.10828">
        <ele>120.213</ele>
        <time>2018-08-01T08:49:21Z</time>
      </trkpt>
      <trkpt lat="48.70241" lon="2.10824">
        <ele>120.199</ele>
        <time>2018-08-01T08:49:23Z</time>
      </trkpt>
      <trkpt lat="48.70243" lon="2.10816">
        <ele>120.161</ele>
        <time>2018-08-01T08:49:28Z</time>
      </trkpt>
      <trkpt lat="48.70244" lon="2.1081">
        <ele>120.139</ele>
        <time>2018-08-01T08:49:31Z</time>
      </trkpt>
      <trkpt lat="48.70245" lon="2.10803">
        <ele>120.119</ele>
        <time>2018-08-01T08:49:35Z</time>
      </trkpt>
      <trkpt lat="48.70247" lon="2.10799">
        <ele>120.112</ele>
        <time>2018-08-01T08:49:37Z</time>
      </trkpt>
      <trkpt lat="48.70248" lon="2.10794">
        <ele>120.107</ele>
        <time>2018-08-01T08:49:39Z</time>
      </trkpt>
      <trkpt lat="48.7025" lon="2.10787">
        <ele>120.102</ele>
        <time>2018-08-01T08:49:44Z</time>
      </trkpt>
      <trkpt lat="48.70251" lon="2.10781">
        <ele>120.101</ele>
        <time>2018-08-01T08:49:47Z</time>
      </trkpt>
      <trkpt lat="48.70252" lon="2.10774">
        <ele>120.095</ele>
        <time>2018-08-01T08:49:51Z</time>
      </trkpt>
      <trkpt lat="48.70253" lon="2.10769">
        <ele>120.092</ele>
        <time>2018-08-01T08:49:54Z</time>
      </trkpt>
      <trkpt lat="48.70254" lon="2.10762">
        <ele>120.095</ele>
        <time>2018-08-01T08:49:58Z</time>
      </trkpt>
      <trkpt lat="48.70255" lon="2.10758">
        <ele>120.099</ele>
        <time>2018-08-01T08:50:01Z</time>
      </trkpt>
      <trkpt lat="48.70256" lon="2.1075">
        <ele>120.099</ele>
        <time>2018-08-01T08:50:05Z</time>
      </trkpt>
      <trkpt lat="48.70257" lon="2.10743">
        <ele>120.102</ele>
        <time>2018-08-01T08:50:09Z</time>
      </trkpt>
      <trkpt lat="48.70256" lon="2.10736">
        <ele>120.104</ele>
        <time>2018-08-01T08:50:13Z</time>
      </trkpt>
      <trkpt lat="48.70254" lon="2.10729">
        <ele>120.113</ele>
        <time>2018-08-01T08:50:18Z</time>
      </trkpt>
      <trkpt lat="48.70252" lon="2.10724">
        <ele>120.126</ele>
        <time>2018-08-01T08:50:22Z</time>
      </trkpt>
      <trkpt lat="48.70251" lon="2.1072">
        <ele>120.133</ele>
        <time>2018-08-01T08:50:24Z</time>
      </trkpt>
      <trkpt lat="48.7025" lon="2.10713">
        <ele>120.159</ele>
        <time>2018-08-01T08:50:29Z</time>
      </trkpt>
      <trkpt lat="48.70249" lon="2.10705">
        <ele>120.192</ele>
        <time>2018-08-01T08:50:34Z</time>
      </trkpt>
      <trkpt lat="48.70249" lon="2.10701">
        <ele>120.208</ele>
        <time>2018-08-01T08:50:36Z</time>
      </trkpt>
      <trkpt lat="48.70249" lon="2.10698">
        <ele>120.234</ele>
        <time>2018-08-01T08:50:39Z</time>
      </trkpt>
      <trkpt lat="48.70248" lon="2.10691">
        <ele>120.271</ele>
        <time>2018-08-01T08:50:43Z</time>
      </trkpt>
      <trkpt lat="48.70249" lon="2.10682">
        <ele>120.305</ele>
        <time>2018-08-01T08:50:47Z</time>
      </trkpt>
      <trkpt lat="48.70249" lon="2.10674">
        <ele>120.331</ele>
        <time>2018-08-01T08:50:50Z</time>
      </trkpt>
      <trkpt lat="48.70249" lon="2.10667">
        <ele>120.364</ele>
        <time>2018-08-01T08:50:54Z</time>
      </trkpt>
      <trkpt lat="48.7025" lon="2.1066">
        <ele>120.41</ele>
        <time>2018-08-01T08:50:59Z</time>
      </trkpt>
      <trkpt lat="48.70249" lon="2.10652">
        <ele>120.467</ele>
        <time>2018-08-01T08:51:06Z</time>
      </trkpt>
      <trkpt lat="48.70248" lon="2.10647">
        <ele>120.474</ele>
        <time>2018-08-01T08:51:07Z</time>
      </trkpt>
      <trkpt lat="48.70248" lon="2.10639">
        <ele>120.604</ele>
        <time>2018-08-01T08:51:09Z</time>
      </trkpt>
      <trkpt lat="48.70248" lon="2.10633">
        <ele>120.614</ele>
        <time>2018-08-01T08:51:12Z</time>
      </trkpt>
      <trkpt lat="48.70247" lon="2.10628">
        <ele>120.622</ele>
        <time>2018-08-01T08:51:14Z</time>
      </trkpt>
      <trkpt lat="48.7025" lon="2.10622">
        <ele>120.641</ele>
        <time>2018-08-01T08:51:19Z</time>
      </trkpt>
      <trkpt lat="48.70245" lon="2.10609">
        <ele>120.686</ele>
        <time>2018-08-01T08:51:30Z</time>
      </trkpt>
      <trkpt lat="48.70242" lon="2.10605">
        <ele>120.692</ele>
        <time>2018-08-01T08:51:32Z</time>
      </trkpt>
      <trkpt lat="48.7024" lon="2.10601">
        <ele>120.7</ele>
        <time>2018-08-01T08:51:35Z</time>
      </trkpt>
      <trkpt lat="48.70236" lon="2.10595">
        <ele>120.712</ele>
        <time>2018-08-01T08:51:41Z</time>
      </trkpt>
      <trkpt lat="48.70234" lon="2.10589">
        <ele>120.714</ele>
        <time>2018-08-01T08:51:45Z</time>
      </trkpt>
      <trkpt lat="48.70233" lon="2.10583">
        <ele>120.715</ele>
        <time>2018-08-01T08:51:48Z</time>
      </trkpt>
      <trkpt lat="48.70232" lon="2.10579">
        <ele>120.714</ele>
        <time>2018-08-01T08:51:50Z</time>
      </trkpt>
      <trkpt lat="48.70232" lon="2.10572">
        <ele>120.715</ele>
        <time>2018-08-01T08:51:53Z</time>
      </trkpt>
      <trkpt lat="48.70231" lon="2.10565">
        <ele>120.716</ele>
        <time>2018-08-01T08:51:57Z</time>
      </trkpt>
      <trkpt lat="48.7023" lon="2.1056">
        <ele>120.718</ele>
        <time>2018-08-01T08:52:01Z</time>
      </trkpt>
      <trkpt lat="48.70229" lon="2.10556">
        <ele>120.723</ele>
        <time>2018-08-01T08:52:04Z</time>
      </trkpt>
      <trkpt lat="48.70226" lon="2.1055">
        <ele>120.729</ele>
        <time>2018-08-01T08:52:07Z</time>
      </trkpt>
      <trkpt lat="48.70225" lon="2.10543">
        <ele>120.736</ele>
        <time>2018-08-01T08:52:10Z</time>
      </trkpt>
      <trkpt lat="48.70223" lon="2.10537">
        <ele>120.743</ele>
        <time>2018-08-01T08:52:13Z</time>
      </trkpt>
      <trkpt lat="48.70223" lon="2.1053">
        <ele>120.752</ele>
        <time>2018-08-01T08:52:16Z</time>
      </trkpt>
      <trkpt lat="48.70223" lon="2.10525">
        <ele>120.763</ele>
        <time>2018-08-01T08:52:19Z</time>
      </trkpt>
      <trkpt lat="48.70223" lon="2.10518">
        <ele>120.788</ele>
        <time>2018-08-01T08:52:24Z</time>
      </trkpt>
      <trkpt lat="48.70222" lon="2.10505">
        <ele>120.825</ele>
        <time>2018-08-01T08:52:31Z</time>
      </trkpt>
      <trkpt lat="48.70221" lon="2.10498">
        <ele>120.844</ele>
        <time>2018-08-01T08:52:35Z</time>
      </trkpt>
      <trkpt lat="48.7022" lon="2.10495">
        <ele>120.849</ele>
        <time>2018-08-01T08:52:36Z</time>
      </trkpt>
      <trkpt lat="48.70219" lon="2.10491">
        <ele>120.861</ele>
        <time>2018-08-01T08:52:38Z</time>
      </trkpt>
      <trkpt lat="48.70216" lon="2.10484">
        <ele>120.89</ele>
        <time>2018-08-01T08:52:42Z</time>
      </trkpt>
      <trkpt lat="48.70214" lon="2.10476">
        <ele>120.922</ele>
        <time>2018-08-01T08:52:46Z</time>
      </trkpt>
      <trkpt lat="48.70215" lon="2.10469">
        <ele>120.961</ele>
        <time>2018-08-01T08:52:50Z</time>
      </trkpt>
      <trkpt lat="48.70215" lon="2.10462">
        <ele>121.004</ele>
        <time>2018-08-01T08:52:54Z</time>
      </trkpt>
      <trkpt lat="48.70216" lon="2.10455">
        <ele>121.043</ele>
        <time>2018-08-01T08:52:57Z</time>
      </trkpt>
      <trkpt lat="48.70215" lon="2.10448">
        <ele>121.102</ele>
        <time>2018-08-01T08:53:01Z</time>
      </trkpt>
      <trkpt lat="48.70214" lon="2.10441">
        <ele>121.168</ele>
        <time>2018-08-01T08:53:05Z</time>
      </trkpt>
      <trkpt lat="48.70212" lon="2.10434">
        <ele>121.258</ele>
        <time>2018-08-01T08:53:10Z</time>
      </trkpt>
      <trkpt lat="48.70209" lon="2.10427">
        <ele>121.332</ele>
        <time>2018-08-01T08:53:14Z</time>
      </trkpt>
      <trkpt lat="48.70205" lon="2.10421">
        <ele>121.406</ele>
        <time>2018-08-01T08:53:18Z</time>
      </trkpt>
      <trkpt lat="48.70205" lon="2.10413">
        <ele>121.455</ele>
        <time>2018-08-01T08:53:21Z</time>
      </trkpt>
      <trkpt lat="48.70201" lon="2.10408">
        <ele>121.516</ele>
        <time>2018-08-01T08:53:25Z</time>
      </trkpt>
      <trkpt lat="48.70199" lon="2.10404">
        <ele>121.559</ele>
        <time>2018-08-01T08:53:28Z</time>
      </trkpt>
      <trkpt lat="48.70196" lon="2.10399">
        <ele>121.599</ele>
        <time>2018-08-01T08:53:31Z</time>
      </trkpt>
      <trkpt lat="48.70194" lon="2.10396">
        <ele>121.612</ele>
        <time>2018-08-01T08:53:32Z</time>
      </trkpt>
      <trkpt lat="48.70192" lon="2.10389">
        <ele>121.664</ele>
        <time>2018-08-01T08:53:36Z</time>
      </trkpt>
      <trkpt lat="48.7019" lon="2.10384">
        <ele>121.728</ele>
        <time>2018-08-01T08:53:41Z</time>
      </trkpt>
      <trkpt lat="48.70189" lon="2.10375">
        <ele>121.799</ele>
        <time>2018-08-01T08:53:47Z</time>
      </trkpt>
      <trkpt lat="48.7019" lon="2.10368">
        <ele>121.846</ele>
        <time>2018-08-01T08:53:51Z</time>
      </trkpt>
      <trkpt lat="48.7019" lon="2.10363">
        <ele>121.868</ele>
        <time>2018-08-01T08:53:53Z</time>
      </trkpt>
      <trkpt lat="48.70191" lon="2.10356">
        <ele>121.899</ele>
        <time>2018-08-01T08:53:56Z</time>
      </trkpt>
      <trkpt lat="48.70193" lon="2.10348">
        <ele>121.95</ele>
        <time>2018-08-01T08:54:01Z</time>
      </trkpt>
      <trkpt lat="48.70196" lon="2.10342">
        <ele>121.991</ele>
        <time>2018-08-01T08:54:05Z</time>
      </trkpt>
      <trkpt lat="48.70197" lon="2.10336">
        <ele>122.037</ele>
        <time>2018-08-01T08:54:09Z</time>
      </trkpt>
      <trkpt lat="48.70199" lon="2.1033">
        <ele>122.104</ele>
        <time>2018-08-01T08:54:14Z</time>
      </trkpt>
      <trkpt lat="48.70201" lon="2.10325">
        <ele>122.145</ele>
        <time>2018-08-01T08:54:17Z</time>
      </trkpt>
      <trkpt lat="48.70202" lon="2.10317">
        <ele>122.21</ele>
        <time>2018-08-01T08:54:22Z</time>
      </trkpt>
      <trkpt lat="48.70205" lon="2.10309">
        <ele>122.262</ele>
        <time>2018-08-01T08:54:26Z</time>
      </trkpt>
      <trkpt lat="48.70207" lon="2.10305">
        <ele>122.289</ele>
        <time>2018-08-01T08:54:28Z</time>
      </trkpt>
      <trkpt lat="48.70208" lon="2.10302">
        <ele>122.316</ele>
        <time>2018-08-01T08:54:30Z</time>
      </trkpt>
      <trkpt lat="48.7021" lon="2.10295">
        <ele>122.385</ele>
        <time>2018-08-01T08:54:35Z</time>
      </trkpt>
      <trkpt lat="48.70213" lon="2.10289">
        <ele>122.449</ele>
        <time>2018-08-01T08:54:40Z</time>
      </trkpt>
      <trkpt lat="48.70215" lon="2.10284">
        <ele>122.483</ele>
        <time>2018-08-01T08:54:43Z</time>
      </trkpt>
      <trkpt lat="48.70217" lon="2.1028">
        <ele>122.513</ele>
        <time>2018-08-01T08:54:46Z</time>
      </trkpt>
      <trkpt lat="48.70219" lon="2.10273">
        <ele>122.549</ele>
        <time>2018-08-01T08:54:50Z</time>
      </trkpt>
      <trkpt lat="48.70222" lon="2.10267">
        <ele>122.583</ele>
        <time>2018-08-01T08:54:54Z</time>
      </trkpt>
      <trkpt lat="48.70224" lon="2.10261">
        <ele>122.617</ele>
        <time>2018-08-01T08:54:59Z</time>
      </trkpt>
      <trkpt lat="48.70226" lon="2.10257">
        <ele>122.635</ele>
        <time>2018-08-01T08:55:02Z</time>
      </trkpt>
      <trkpt lat="48.70228" lon="2.10253">
        <ele>122.652</ele>
        <time>2018-08-01T08:55:05Z</time>
      </trkpt>
      <trkpt lat="48.70229" lon="2.1025">
        <ele>122.662</ele>
        <time>2018-08-01T08:55:07Z</time>
      </trkpt>
      <trkpt lat="48.70231" lon="2.10247">
        <ele>122.673</ele>
        <time>2018-08-01T08:55:09Z</time>
      </trkpt>
      <trkpt lat="48.70232" lon="2.10239">
        <ele>122.695</ele>
        <time>2018-08-01T08:55:14Z</time>
      </trkpt>
      <trkpt lat="48.70233" lon="2.10229">
        <ele>122.716</ele>
        <time>2018-08-01T08:55:18Z</time>
      </trkpt>
      <trkpt lat="48.70233" lon="2.10225">
        <ele>122.731</ele>
        <time>2018-08-01T08:55:20Z</time>
      </trkpt>
      <trkpt lat="48.70232" lon="2.10218">
        <ele>122.764</ele>
        <time>2018-08-01T08:55:24Z</time>
      </trkpt>
      <trkpt lat="48.70231" lon="2.10214">
        <ele>122.781</ele>
        <time>2018-08-01T08:55:26Z</time>
      </trkpt>
      <trkpt lat="48.70232" lon="2.10207">
        <ele>122.823</ele>
        <time>2018-08-01T08:55:31Z</time>
      </trkpt>
      <trkpt lat="48.70232" lon="2.102">
        <ele>122.856</ele>
        <time>2018-08-01T08:55:35Z</time>
      </trkpt>
      <trkpt lat="48.70233" lon="2.10193">
        <ele>122.897</ele>
        <time>2018-08-01T08:55:40Z</time>
      </trkpt>
      <trkpt lat="48.70234" lon="2.10186">
        <ele>122.928</ele>
        <time>2018-08-01T08:55:44Z</time>
      </trkpt>
      <trkpt lat="48.70232" lon="2.10179">
        <ele>122.959</ele>
        <time>2018-08-01T08:55:48Z</time>
      </trkpt>
      <trkpt lat="48.7023" lon="2.10174">
        <ele>122.975</ele>
        <time>2018-08-01T08:55:50Z</time>
      </trkpt>
      <trkpt lat="48.7023" lon="2.10167">
        <ele>123.009</ele>
        <time>2018-08-01T08:55:54Z</time>
      </trkpt>
      <trkpt lat="48.70228" lon="2.10161">
        <ele>123.043</ele>
        <time>2018-08-01T08:55:58Z</time>
      </trkpt>
      <trkpt lat="48.70227" lon="2.10154">
        <ele>123.077</ele>
        <time>2018-08-01T08:56:03Z</time>
      </trkpt>
      <trkpt lat="48.70225" lon="2.10149">
        <ele>123.091</ele>
        <time>2018-08-01T08:56:06Z</time>
      </trkpt>
      <trkpt lat="48.70227" lon="2.10141">
        <ele>123.116</ele>
        <time>2018-08-01T08:56:11Z</time>
      </trkpt>
      <trkpt lat="48.70228" lon="2.10135">
        <ele>123.133</ele>
        <time>2018-08-01T08:56:14Z</time>
      </trkpt>
      <trkpt lat="48.70228" lon="2.10131">
        <ele>123.143</ele>
        <time>2018-08-01T08:56:16Z</time>
      </trkpt>
      <trkpt lat="48.70229" lon="2.10125">
        <ele>123.164</ele>
        <time>2018-08-01T08:56:20Z</time>
      </trkpt>
      <trkpt lat="48.70228" lon="2.10118">
        <ele>123.175</ele>
        <time>2018-08-01T08:56:23Z</time>
      </trkpt>
      <trkpt lat="48.70225" lon="2.10112">
        <ele>123.179</ele>
        <time>2018-08-01T08:56:27Z</time>
      </trkpt>
      <trkpt lat="48.7022" lon="2.10106">
        <ele>123.18</ele>
        <time>2018-08-01T08:56:31Z</time>
      </trkpt>
      <trkpt lat="48.70216" lon="2.10103">
        <ele>123.18</ele>
        <time>2018-08-01T08:56:35Z</time>
      </trkpt>
      <trkpt lat="48.70211" lon="2.101">
        <ele>123.182</ele>
        <time>2018-08-01T08:56:39Z</time>
      </trkpt>
      <trkpt lat="48.70205" lon="2.10093">
        <ele>123.184</ele>
        <time>2018-08-01T08:56:44Z</time>
      </trkpt>
      <trkpt lat="48.70196" lon="2.10075">
        <ele>123.225</ele>
        <time>2018-08-01T08:57:04Z</time>
      </trkpt>
      <trkpt lat="48.70194" lon="2.10072">
        <ele>123.244</ele>
        <time>2018-08-01T08:57:06Z</time>
      </trkpt>
      <trkpt lat="48.70192" lon="2.10068">
        <ele>123.276</ele>
        <time>2018-08-01T08:57:09Z</time>
      </trkpt>
      <trkpt lat="48.70189" lon="2.10063">
        <ele>123.334</ele>
        <time>2018-08-01T08:57:14Z</time>
      </trkpt>
      <trkpt lat="48.70187" lon="2.10056">
        <ele>123.399</ele>
        <time>2018-08-01T08:57:20Z</time>
      </trkpt>
      <trkpt lat="48.70183" lon="2.10049">
        <ele>123.446</ele>
        <time>2018-08-01T08:57:24Z</time>
      </trkpt>
      <trkpt lat="48.70179" lon="2.10044">
        <ele>123.485</ele>
        <time>2018-08-01T08:57:27Z</time>
      </trkpt>
      <trkpt lat="48.70176" lon="2.10038">
        <ele>123.541</ele>
        <time>2018-08-01T08:57:31Z</time>
      </trkpt>
      <trkpt lat="48.70174" lon="2.10034">
        <ele>123.584</ele>
        <time>2018-08-01T08:57:34Z</time>
      </trkpt>
      <trkpt lat="48.70171" lon="2.10029">
        <ele>123.655</ele>
        <time>2018-08-01T08:57:39Z</time>
      </trkpt>
      <trkpt lat="48.70166" lon="2.10027">
        <ele>123.709</ele>
        <time>2018-08-01T08:57:43Z</time>
      </trkpt>
      <trkpt lat="48.70161" lon="2.10027">
        <ele>123.76</ele>
        <time>2018-08-01T08:57:47Z</time>
      </trkpt>
      <trkpt lat="48.70156" lon="2.10026">
        <ele>123.807</ele>
        <time>2018-08-01T08:57:51Z</time>
      </trkpt>
      <trkpt lat="48.70152" lon="2.10027">
        <ele>123.851</ele>
        <time>2018-08-01T08:57:55Z</time>
      </trkpt>
      <trkpt lat="48.70148" lon="2.10031">
        <ele>123.895</ele>
        <time>2018-08-01T08:57:59Z</time>
      </trkpt>
      <trkpt lat="48.70143" lon="2.10034">
        <ele>123.937</ele>
        <time>2018-08-01T08:58:03Z</time>
      </trkpt>
      <trkpt lat="48.7014" lon="2.10036">
        <ele>123.978</ele>
        <time>2018-08-01T08:58:07Z</time>
      </trkpt>
      <trkpt lat="48.70137" lon="2.10041">
        <ele>124.021</ele>
        <time>2018-08-01T08:58:11Z</time>
      </trkpt>
      <trkpt lat="48.70135" lon="2.10049">
        <ele>124.087</ele>
        <time>2018-08-01T08:58:17Z</time>
      </trkpt>
      <trkpt lat="48.70132" lon="2.10054">
        <ele>124.134</ele>
        <time>2018-08-01T08:58:21Z</time>
      </trkpt>
      <trkpt lat="48.70129" lon="2.1006">
        <ele>124.181</ele>
        <time>2018-08-01T08:58:25Z</time>
      </trkpt>
      <trkpt lat="48.70127" lon="2.10064">
        <ele>124.213</ele>
        <time>2018-08-01T08:58:28Z</time>
      </trkpt>
      <trkpt lat="48.70124" lon="2.10072">
        <ele>124.259</ele>
        <time>2018-08-01T08:58:33Z</time>
      </trkpt>
      <trkpt lat="48.70123" lon="2.10076">
        <ele>124.291</ele>
        <time>2018-08-01T08:58:37Z</time>
      </trkpt>
      <trkpt lat="48.70121" lon="2.10083">
        <ele>124.337</ele>
        <time>2018-08-01T08:58:43Z</time>
      </trkpt>
      <trkpt lat="48.70119" lon="2.10089">
        <ele>124.378</ele>
        <time>2018-08-01T08:58:49Z</time>
      </trkpt>
      <trkpt lat="48.70117" lon="2.10095">
        <ele>124.397</ele>
        <time>2018-08-01T08:58:52Z</time>
      </trkpt>
      <trkpt lat="48.70115" lon="2.10098">
        <ele>124.421</ele>
        <time>2018-08-01T08:58:56Z</time>
      </trkpt>
      <trkpt lat="48.70111" lon="2.10104">
        <ele>124.452</ele>
        <time>2018-08-01T08:59:01Z</time>
      </trkpt>
      <trkpt lat="48.70106" lon="2.10108">
        <ele>124.471</ele>
        <time>2018-08-01T08:59:04Z</time>
      </trkpt>
      <trkpt lat="48.70104" lon="2.10114">
        <ele>124.493</ele>
        <time>2018-08-01T08:59:09Z</time>
      </trkpt>
      <trkpt lat="48.70102" lon="2.1012">
        <ele>124.511</ele>
        <time>2018-08-01T08:59:13Z</time>
      </trkpt>
      <trkpt lat="48.70099" lon="2.10126">
        <ele>124.528</ele>
        <time>2018-08-01T08:59:17Z</time>
      </trkpt>
      <trkpt lat="48.70097" lon="2.10129">
        <ele>124.536</ele>
        <time>2018-08-01T08:59:19Z</time>
      </trkpt>
      <trkpt lat="48.70095" lon="2.10132">
        <ele>124.548</ele>
        <time>2018-08-01T08:59:22Z</time>
      </trkpt>
      <trkpt lat="48.70091" lon="2.10137">
        <ele>124.561</ele>
        <time>2018-08-01T08:59:25Z</time>
      </trkpt>
      <trkpt lat="48.70089" lon="2.10141">
        <ele>124.57</ele>
        <time>2018-08-01T08:59:27Z</time>
      </trkpt>
      <trkpt lat="48.70085" lon="2.10144">
        <ele>124.591</ele>
        <time>2018-08-01T08:59:31Z</time>
      </trkpt>
      <trkpt lat="48.7008" lon="2.10145">
        <ele>124.62</ele>
        <time>2018-08-01T08:59:36Z</time>
      </trkpt>
      <trkpt lat="48.70076" lon="2.10151">
        <ele>124.648</ele>
        <time>2018-08-01T08:59:40Z</time>
      </trkpt>
      <trkpt lat="48.7007" lon="2.10152">
        <ele>124.684</ele>
        <time>2018-08-01T08:59:45Z</time>
      </trkpt>
      <trkpt lat="48.70065" lon="2.10152">
        <ele>124.707</ele>
        <time>2018-08-01T08:59:49Z</time>
      </trkpt>
      <trkpt lat="48.7006" lon="2.10151">
        <ele>124.727</ele>
        <time>2018-08-01T08:59:53Z</time>
      </trkpt>
      <trkpt lat="48.70058" lon="2.10151">
        <ele>124.735</ele>
        <time>2018-08-01T08:59:55Z</time>
      </trkpt>
      <trkpt lat="48.70053" lon="2.10147">
        <ele>124.751</ele>
        <time>2018-08-01T08:59:59Z</time>
      </trkpt>
      <trkpt lat="48.70047" lon="2.10143">
        <ele>124.765</ele>
        <time>2018-08-01T09:00:03Z</time>
      </trkpt>
      <trkpt lat="48.7004" lon="2.10134">
        <ele>124.855</ele>
        <time>2018-08-01T09:00:06Z</time>
      </trkpt>
      <trkpt lat="48.70036" lon="2.10126">
        <ele>124.86</ele>
        <time>2018-08-01T09:00:09Z</time>
      </trkpt>
      <trkpt lat="48.70024" lon="2.10136">
        <ele>124.882</ele>
        <time>2018-08-01T09:00:23Z</time>
      </trkpt>
      <trkpt lat="48.70019" lon="2.10134">
        <ele>124.886</ele>
        <time>2018-08-01T09:00:26Z</time>
      </trkpt>
      <trkpt lat="48.70015" lon="2.10133">
        <ele>124.891</ele>
        <time>2018-08-01T09:00:30Z</time>
      </trkpt>
      <trkpt lat="48.70012" lon="2.10132">
        <ele>124.903</ele>
        <time>2018-08-01T09:00:34Z</time>
      </trkpt>
      <trkpt lat="48.70006" lon="2.10128">
        <ele>124.922</ele>
        <time>2018-08-01T09:00:39Z</time>
      </trkpt>
      <trkpt lat="48.70003" lon="2.10125">
        <ele>124.941</ele>
        <time>2018-08-01T09:00:43Z</time>
      </trkpt>
      <trkpt lat="48.7" lon="2.10123">
        <ele>124.952</ele>
        <time>2018-08-01T09:00:45Z</time>
      </trkpt>
      <trkpt lat="48.69996" lon="2.10119">
        <ele>124.974</ele>
        <time>2018-08-01T09:00:49Z</time>
      </trkpt>
      <trkpt lat="48.69993" lon="2.10116">
        <ele>124.992</ele>
        <time>2018-08-01T09:00:52Z</time>
      </trkpt>
      <trkpt lat="48.6999" lon="2.1011">
        <ele>125.026</ele>
        <time>2018-08-01T09:00:57Z</time>
      </trkpt>
      <trkpt lat="48.69985" lon="2.10108">
        <ele>125.069</ele>
        <time>2018-08-01T09:01:02Z</time>
      </trkpt>
      <trkpt lat="48.69982" lon="2.10106">
        <ele>125.09</ele>
        <time>2018-08-01T09:01:04Z</time>
      </trkpt>
      <trkpt lat="48.69978" lon="2.10104">
        <ele>125.139</ele>
        <time>2018-08-01T09:01:08Z</time>
      </trkpt>
      <trkpt lat="48.69973" lon="2.10102">
        <ele>125.194</ele>
        <time>2018-08-01T09:01:12Z</time>
      </trkpt>
      <trkpt lat="48.69969" lon="2.10096">
        <ele>125.241</ele>
        <time>2018-08-01T09:01:15Z</time>
      </trkpt>
      <trkpt lat="48.69965" lon="2.10093">
        <ele>125.333</ele>
        <time>2018-08-01T09:01:20Z</time>
      </trkpt>
      <trkpt lat="48.69962" lon="2.10086">
        <ele>125.486</ele>
        <time>2018-08-01T09:01:27Z</time>
      </trkpt>
      <trkpt lat="48.69965" lon="2.10078">
        <ele>125.562</ele>
        <time>2018-08-01T09:01:30Z</time>
      </trkpt>
      <trkpt lat="48.69966" lon="2.10074">
        <ele>125.616</ele>
        <time>2018-08-01T09:01:32Z</time>
      </trkpt>
      <trkpt lat="48.69966" lon="2.10065">
        <ele>125.748</ele>
        <time>2018-08-01T09:01:37Z</time>
      </trkpt>
      <trkpt lat="48.69966" lon="2.10058">
        <ele>125.855</ele>
        <time>2018-08-01T09:01:41Z</time>
      </trkpt>
      <trkpt lat="48.69967" lon="2.10051">
        <ele>125.961</ele>
        <time>2018-08-01T09:01:45Z</time>
      </trkpt>
      <trkpt lat="48.6997" lon="2.10044">
        <ele>126.098</ele>
        <time>2018-08-01T09:01:50Z</time>
      </trkpt>
      <trkpt lat="48.69972" lon="2.10036">
        <ele>126.245</ele>
        <time>2018-08-01T09:01:55Z</time>
      </trkpt>
      <trkpt lat="48.69973" lon="2.10031">
        <ele>126.34</ele>
        <time>2018-08-01T09:01:58Z</time>
      </trkpt>
      <trkpt lat="48.69974" lon="2.10027">
        <ele>126.405</ele>
        <time>2018-08-01T09:02:00Z</time>
      </trkpt>
      <trkpt lat="48.69977" lon="2.10021">
        <ele>126.506</ele>
        <time>2018-08-01T09:02:03Z</time>
      </trkpt>
      <trkpt lat="48.69978" lon="2.10018">
        <ele>126.618</ele>
        <time>2018-08-01T09:02:06Z</time>
      </trkpt>
      <trkpt lat="48.69979" lon="2.10015">
        <ele>126.698</ele>
        <time>2018-08-01T09:02:08Z</time>
      </trkpt>
      <trkpt lat="48.69981" lon="2.1001">
        <ele>126.782</ele>
        <time>2018-08-01T09:02:10Z</time>
      </trkpt>
      <trkpt lat="48.69983" lon="2.10007">
        <ele>126.868</ele>
        <time>2018-08-01T09:02:12Z</time>
      </trkpt>
      <trkpt lat="48.69985" lon="2.09999">
        <ele>127.048</ele>
        <time>2018-08-01T09:02:16Z</time>
      </trkpt>
      <trkpt lat="48.69986" lon="2.09995">
        <ele>127.137</ele>
        <time>2018-08-01T09:02:18Z</time>
      </trkpt>
      <trkpt lat="48.69989" lon="2.09988">
        <ele>127.309</ele>
        <time>2018-08-01T09:02:22Z</time>
      </trkpt>
      <trkpt lat="48.69991" lon="2.09985">
        <ele>127.391</ele>
        <time>2018-08-01T09:02:24Z</time>
      </trkpt>
      <trkpt lat="48.69993" lon="2.09982">
        <ele>127.47</ele>
        <time>2018-08-01T09:02:26Z</time>
      </trkpt>
      <trkpt lat="48.69995" lon="2.09974">
        <ele>127.624</ele>
        <time>2018-08-01T09:02:30Z</time>
      </trkpt>
      <trkpt lat="48.69997" lon="2.09967">
        <ele>127.77</ele>
        <time>2018-08-01T09:02:34Z</time>
      </trkpt>
      <trkpt lat="48.69998" lon="2.09963">
        <ele>127.88</ele>
        <time>2018-08-01T09:02:37Z</time>
      </trkpt>
      <trkpt lat="48.69999" lon="2.0996">
        <ele>127.954</ele>
        <time>2018-08-01T09:02:39Z</time>
      </trkpt>
      <trkpt lat="48.70001" lon="2.09954">
        <ele>128.061</ele>
        <time>2018-08-01T09:02:42Z</time>
      </trkpt>
      <trkpt lat="48.69998" lon="2.09946">
        <ele>128.269</ele>
        <time>2018-08-01T09:02:48Z</time>
      </trkpt>
      <trkpt lat="48.69997" lon="2.09942">
        <ele>128.34</ele>
        <time>2018-08-01T09:02:50Z</time>
      </trkpt>
      <trkpt lat="48.69997" lon="2.09935">
        <ele>128.487</ele>
        <time>2018-08-01T09:02:54Z</time>
      </trkpt>
      <trkpt lat="48.69997" lon="2.09932">
        <ele>128.565</ele>
        <time>2018-08-01T09:02:56Z</time>
      </trkpt>
      <trkpt lat="48.69998" lon="2.09922">
        <ele>128.767</ele>
        <time>2018-08-01T09:03:01Z</time>
      </trkpt>
      <trkpt lat="48.69996" lon="2.09915">
        <ele>128.936</ele>
        <time>2018-08-01T09:03:05Z</time>
      </trkpt>
      <trkpt lat="48.69993" lon="2.09909">
        <ele>129.061</ele>
        <time>2018-08-01T09:03:08Z</time>
      </trkpt>
      <trkpt lat="48.69991" lon="2.09902">
        <ele>129.319</ele>
        <time>2018-08-01T09:03:14Z</time>
      </trkpt>
      <trkpt lat="48.69993" lon="2.09894">
        <ele>129.497</ele>
        <time>2018-08-01T09:03:18Z</time>
      </trkpt>
      <trkpt lat="48.6999" lon="2.09888">
        <ele>129.869</ele>
        <time>2018-08-01T09:03:26Z</time>
      </trkpt>
      <trkpt lat="48.69985" lon="2.09886">
        <ele>130.104</ele>
        <time>2018-08-01T09:03:31Z</time>
      </trkpt>
      <trkpt lat="48.69981" lon="2.09883">
        <ele>130.246</ele>
        <time>2018-08-01T09:03:34Z</time>
      </trkpt>
      <trkpt lat="48.69977" lon="2.09878">
        <ele>130.475</ele>
        <time>2018-08-01T09:03:39Z</time>
      </trkpt>
      <trkpt lat="48.69972" lon="2.09875">
        <ele>130.692</ele>
        <time>2018-08-01T09:03:44Z</time>
      </trkpt>
      <trkpt lat="48.69968" lon="2.09871">
        <ele>130.934</ele>
        <time>2018-08-01T09:03:50Z</time>
      </trkpt>
      <trkpt lat="48.69966" lon="2.09865">
        <ele>131.048</ele>
        <time>2018-08-01T09:03:53Z</time>
      </trkpt>
      <trkpt lat="48.69965" lon="2.09861">
        <ele>131.205</ele>
        <time>2018-08-01T09:03:57Z</time>
      </trkpt>
      <trkpt lat="48.69967" lon="2.09853">
        <ele>131.4</ele>
        <time>2018-08-01T09:04:02Z</time>
      </trkpt>
      <trkpt lat="48.6997" lon="2.09845">
        <ele>131.552</ele>
        <time>2018-08-01T09:04:06Z</time>
      </trkpt>
      <trkpt lat="48.69971" lon="2.09837">
        <ele>131.739</ele>
        <time>2018-08-01T09:04:11Z</time>
      </trkpt>
      <trkpt lat="48.69971" lon="2.09834">
        <ele>131.814</ele>
        <time>2018-08-01T09:04:13Z</time>
      </trkpt>
      <trkpt lat="48.69972" lon="2.0983">
        <ele>131.887</ele>
        <time>2018-08-01T09:04:15Z</time>
      </trkpt>
      <trkpt lat="48.69972" lon="2.09826">
        <ele>131.96</ele>
        <time>2018-08-01T09:04:17Z</time>
      </trkpt>
      <trkpt lat="48.69974" lon="2.0982">
        <ele>132.141</ele>
        <time>2018-08-01T09:04:22Z</time>
      </trkpt>
      <trkpt lat="48.69975" lon="2.09815">
        <ele>132.25</ele>
        <time>2018-08-01T09:04:25Z</time>
      </trkpt>
      <trkpt lat="48.69977" lon="2.09809">
        <ele>132.359</ele>
        <time>2018-08-01T09:04:28Z</time>
      </trkpt>
      <trkpt lat="48.69977" lon="2.09801">
        <ele>132.542</ele>
        <time>2018-08-01T09:04:33Z</time>
      </trkpt>
      <trkpt lat="48.69979" lon="2.09794">
        <ele>132.732</ele>
        <time>2018-08-01T09:04:38Z</time>
      </trkpt>
      <trkpt lat="48.69981" lon="2.09787">
        <ele>132.847</ele>
        <time>2018-08-01T09:04:41Z</time>
      </trkpt>
      <trkpt lat="48.69982" lon="2.09783">
        <ele>132.96</ele>
        <time>2018-08-01T09:04:44Z</time>
      </trkpt>
      <trkpt lat="48.69984" lon="2.09775">
        <ele>133.119</ele>
        <time>2018-08-01T09:04:48Z</time>
      </trkpt>
      <trkpt lat="48.69986" lon="2.09768">
        <ele>133.322</ele>
        <time>2018-08-01T09:04:53Z</time>
      </trkpt>
      <trkpt lat="48.69988" lon="2.09763">
        <ele>133.445</ele>
        <time>2018-08-01T09:04:56Z</time>
      </trkpt>
      <trkpt lat="48.69989" lon="2.09759">
        <ele>133.526</ele>
        <time>2018-08-01T09:04:58Z</time>
      </trkpt>
      <trkpt lat="48.6999" lon="2.09754">
        <ele>133.607</ele>
        <time>2018-08-01T09:05:00Z</time>
      </trkpt>
      <trkpt lat="48.69992" lon="2.09747">
        <ele>133.801</ele>
        <time>2018-08-01T09:05:05Z</time>
      </trkpt>
      <trkpt lat="48.69993" lon="2.0974">
        <ele>133.947</ele>
        <time>2018-08-01T09:05:09Z</time>
      </trkpt>
      <trkpt lat="48.69993" lon="2.09732">
        <ele>134.127</ele>
        <time>2018-08-01T09:05:14Z</time>
      </trkpt>
      <trkpt lat="48.69995" lon="2.09724">
        <ele>134.263</ele>
        <time>2018-08-01T09:05:18Z</time>
      </trkpt>
      <trkpt lat="48.69996" lon="2.09717">
        <ele>134.358</ele>
        <time>2018-08-01T09:05:21Z</time>
      </trkpt>
      <trkpt lat="48.69999" lon="2.0971">
        <ele>134.505</ele>
        <time>2018-08-01T09:05:26Z</time>
      </trkpt>
      <trkpt lat="48.69999" lon="2.09706">
        <ele>134.56</ele>
        <time>2018-08-01T09:05:28Z</time>
      </trkpt>
      <trkpt lat="48.70002" lon="2.09699">
        <ele>134.667</ele>
        <time>2018-08-01T09:05:32Z</time>
      </trkpt>
      <trkpt lat="48.70003" lon="2.09692">
        <ele>134.771</ele>
        <time>2018-08-01T09:05:36Z</time>
      </trkpt>
      <trkpt lat="48.70004" lon="2.09685">
        <ele>134.893</ele>
        <time>2018-08-01T09:05:41Z</time>
      </trkpt>
      <trkpt lat="48.70006" lon="2.09678">
        <ele>134.985</ele>
        <time>2018-08-01T09:05:45Z</time>
      </trkpt>
      <trkpt lat="48.70007" lon="2.0967">
        <ele>135.073</ele>
        <time>2018-08-01T09:05:49Z</time>
      </trkpt>
      <trkpt lat="48.70007" lon="2.09663">
        <ele>135.155</ele>
        <time>2018-08-01T09:05:53Z</time>
      </trkpt>
      <trkpt lat="48.7001" lon="2.09657">
        <ele>135.254</ele>
        <time>2018-08-01T09:05:58Z</time>
      </trkpt>
      <trkpt lat="48.70012" lon="2.09653">
        <ele>135.316</ele>
        <time>2018-08-01T09:06:01Z</time>
      </trkpt>
      <trkpt lat="48.70014" lon="2.09645">
        <ele>135.398</ele>
        <time>2018-08-01T09:06:05Z</time>
      </trkpt>
      <trkpt lat="48.70015" lon="2.09641">
        <ele>135.461</ele>
        <time>2018-08-01T09:06:08Z</time>
      </trkpt>
      <trkpt lat="48.70016" lon="2.09637">
        <ele>135.504</ele>
        <time>2018-08-01T09:06:10Z</time>
      </trkpt>
      <trkpt lat="48.70017" lon="2.09633">
        <ele>135.568</ele>
        <time>2018-08-01T09:06:13Z</time>
      </trkpt>
      <trkpt lat="48.70019" lon="2.09627">
        <ele>135.635</ele>
        <time>2018-08-01T09:06:16Z</time>
      </trkpt>
      <trkpt lat="48.70019" lon="2.09618">
        <ele>135.729</ele>
        <time>2018-08-01T09:06:20Z</time>
      </trkpt>
      <trkpt lat="48.70019" lon="2.09614">
        <ele>135.801</ele>
        <time>2018-08-01T09:06:23Z</time>
      </trkpt>
      <trkpt lat="48.70021" lon="2.09606">
        <ele>135.901</ele>
        <time>2018-08-01T09:06:27Z</time>
      </trkpt>
      <trkpt lat="48.70022" lon="2.09602">
        <ele>135.981</ele>
        <time>2018-08-01T09:06:30Z</time>
      </trkpt>
      <trkpt lat="48.70024" lon="2.09595">
        <ele>136.062</ele>
        <time>2018-08-01T09:06:33Z</time>
      </trkpt>
      <trkpt lat="48.70025" lon="2.0959">
        <ele>136.14</ele>
        <time>2018-08-01T09:06:36Z</time>
      </trkpt>
      <trkpt lat="48.70028" lon="2.09583">
        <ele>136.238</ele>
        <time>2018-08-01T09:06:40Z</time>
      </trkpt>
      <trkpt lat="48.70031" lon="2.09578">
        <ele>136.308</ele>
        <time>2018-08-01T09:06:43Z</time>
      </trkpt>
      <trkpt lat="48.70033" lon="2.09576">
        <ele>136.353</ele>
        <time>2018-08-01T09:06:45Z</time>
      </trkpt>
      <trkpt lat="48.70036" lon="2.0957">
        <ele>136.505</ele>
        <time>2018-08-01T09:06:52Z</time>
      </trkpt>
      <trkpt lat="48.70038" lon="2.09564">
        <ele>136.568</ele>
        <time>2018-08-01T09:06:55Z</time>
      </trkpt>
      <trkpt lat="48.70041" lon="2.09557">
        <ele>136.651</ele>
        <time>2018-08-01T09:06:59Z</time>
      </trkpt>
      <trkpt lat="48.70042" lon="2.09554">
        <ele>136.712</ele>
        <time>2018-08-01T09:07:02Z</time>
      </trkpt>
      <trkpt lat="48.70043" lon="2.09551">
        <ele>136.752</ele>
        <time>2018-08-01T09:07:04Z</time>
      </trkpt>
      <trkpt lat="48.70045" lon="2.09546">
        <ele>136.812</ele>
        <time>2018-08-01T09:07:07Z</time>
      </trkpt>
      <trkpt lat="48.70047" lon="2.09538">
        <ele>136.907</ele>
        <time>2018-08-01T09:07:12Z</time>
      </trkpt>
      <trkpt lat="48.70048" lon="2.09534">
        <ele>136.943</ele>
        <time>2018-08-01T09:07:14Z</time>
      </trkpt>
      <trkpt lat="48.70049" lon="2.0953">
        <ele>136.979</ele>
        <time>2018-08-01T09:07:16Z</time>
      </trkpt>
      <trkpt lat="48.70049" lon="2.09527">
        <ele>137.014</ele>
        <time>2018-08-01T09:07:18Z</time>
      </trkpt>
      <trkpt lat="48.70051" lon="2.09523">
        <ele>137.049</ele>
        <time>2018-08-01T09:07:20Z</time>
      </trkpt>
      <trkpt lat="48.70051" lon="2.09519">
        <ele>137.083</ele>
        <time>2018-08-01T09:07:22Z</time>
      </trkpt>
      <trkpt lat="48.70053" lon="2.09511">
        <ele>137.167</ele>
        <time>2018-08-01T09:07:27Z</time>
      </trkpt>
      <trkpt lat="48.70055" lon="2.09504">
        <ele>137.252</ele>
        <time>2018-08-01T09:07:32Z</time>
      </trkpt>
      <trkpt lat="48.70056" lon="2.09497">
        <ele>137.318</ele>
        <time>2018-08-01T09:07:36Z</time>
      </trkpt>
      <trkpt lat="48.70057" lon="2.0949">
        <ele>137.388</ele>
        <time>2018-08-01T09:07:40Z</time>
      </trkpt>
      <trkpt lat="48.70059" lon="2.09483">
        <ele>137.466</ele>
        <time>2018-08-01T09:07:44Z</time>
      </trkpt>
      <trkpt lat="48.70061" lon="2.09477">
        <ele>137.527</ele>
        <time>2018-08-01T09:07:47Z</time>
      </trkpt>
      <trkpt lat="48.70063" lon="2.09472">
        <ele>137.588</ele>
        <time>2018-08-01T09:07:50Z</time>
      </trkpt>
      <trkpt lat="48.70065" lon="2.09469">
        <ele>137.628</ele>
        <time>2018-08-01T09:07:52Z</time>
      </trkpt>
      <trkpt lat="48.70066" lon="2.09466">
        <ele>137.669</ele>
        <time>2018-08-01T09:07:54Z</time>
      </trkpt>
      <trkpt lat="48.70067" lon="2.09463">
        <ele>137.709</ele>
        <time>2018-08-01T09:07:56Z</time>
      </trkpt>
      <trkpt lat="48.7007" lon="2.09457">
        <ele>137.771</ele>
        <time>2018-08-01T09:07:59Z</time>
      </trkpt>
      <trkpt lat="48.70071" lon="2.09449">
        <ele>137.873</ele>
        <time>2018-08-01T09:08:04Z</time>
      </trkpt>
      <trkpt lat="48.70073" lon="2.09442">
        <ele>137.95</ele>
        <time>2018-08-01T09:08:08Z</time>
      </trkpt>
      <trkpt lat="48.70075" lon="2.09435">
        <ele>138.023</ele>
        <time>2018-08-01T09:08:12Z</time>
      </trkpt>
      <trkpt lat="48.70076" lon="2.09432">
        <ele>138.059</ele>
        <time>2018-08-01T09:08:14Z</time>
      </trkpt>
      <trkpt lat="48.70078" lon="2.09428">
        <ele>138.094</ele>
        <time>2018-08-01T09:08:16Z</time>
      </trkpt>
      <trkpt lat="48.70081" lon="2.09423">
        <ele>138.162</ele>
        <time>2018-08-01T09:08:20Z</time>
      </trkpt>
      <trkpt lat="48.70084" lon="2.09416">
        <ele>138.225</ele>
        <time>2018-08-01T09:08:24Z</time>
      </trkpt>
      <trkpt lat="48.70085" lon="2.09413">
        <ele>138.269</ele>
        <time>2018-08-01T09:08:27Z</time>
      </trkpt>
      <trkpt lat="48.70087" lon="2.09405">
        <ele>138.327</ele>
        <time>2018-08-01T09:08:31Z</time>
      </trkpt>
      <trkpt lat="48.70088" lon="2.09398">
        <ele>138.398</ele>
        <time>2018-08-01T09:08:36Z</time>
      </trkpt>
      <trkpt lat="48.7009" lon="2.0939">
        <ele>138.453</ele>
        <time>2018-08-01T09:08:40Z</time>
      </trkpt>
      <trkpt lat="48.70091" lon="2.09387">
        <ele>138.48</ele>
        <time>2018-08-01T09:08:42Z</time>
      </trkpt>
      <trkpt lat="48.70093" lon="2.09378">
        <ele>138.535</ele>
        <time>2018-08-01T09:08:46Z</time>
      </trkpt>
      <trkpt lat="48.70095" lon="2.09372">
        <ele>138.578</ele>
        <time>2018-08-01T09:08:49Z</time>
      </trkpt>
      <trkpt lat="48.70096" lon="2.09365">
        <ele>138.636</ele>
        <time>2018-08-01T09:08:53Z</time>
      </trkpt>
      <trkpt lat="48.70098" lon="2.0936">
        <ele>138.681</ele>
        <time>2018-08-01T09:08:56Z</time>
      </trkpt>
      <trkpt lat="48.701" lon="2.09354">
        <ele>138.746</ele>
        <time>2018-08-01T09:09:00Z</time>
      </trkpt>
      <trkpt lat="48.70103" lon="2.09345">
        <ele>138.812</ele>
        <time>2018-08-01T09:09:04Z</time>
      </trkpt>
      <trkpt lat="48.70104" lon="2.09341">
        <ele>138.845</ele>
        <time>2018-08-01T09:09:06Z</time>
      </trkpt>
      <trkpt lat="48.70106" lon="2.09333">
        <ele>138.945</ele>
        <time>2018-08-01T09:09:12Z</time>
      </trkpt>
      <trkpt lat="48.70107" lon="2.09329">
        <ele>138.978</ele>
        <time>2018-08-01T09:09:14Z</time>
      </trkpt>
      <trkpt lat="48.70108" lon="2.09325">
        <ele>139.011</ele>
        <time>2018-08-01T09:09:16Z</time>
      </trkpt>
      <trkpt lat="48.70109" lon="2.0932">
        <ele>139.043</ele>
        <time>2018-08-01T09:09:18Z</time>
      </trkpt>
      <trkpt lat="48.7011" lon="2.09316">
        <ele>139.076</ele>
        <time>2018-08-01T09:09:20Z</time>
      </trkpt>
      <trkpt lat="48.70111" lon="2.09313">
        <ele>139.109</ele>
        <time>2018-08-01T09:09:22Z</time>
      </trkpt>
      <trkpt lat="48.70111" lon="2.0931">
        <ele>139.141</ele>
        <time>2018-08-01T09:09:24Z</time>
      </trkpt>
      <trkpt lat="48.70114" lon="2.09303">
        <ele>139.205</ele>
        <time>2018-08-01T09:09:28Z</time>
      </trkpt>
      <trkpt lat="48.70115" lon="2.09301">
        <ele>139.252</ele>
        <time>2018-08-01T09:09:31Z</time>
      </trkpt>
      <trkpt lat="48.70117" lon="2.09295">
        <ele>139.313</ele>
        <time>2018-08-01T09:09:35Z</time>
      </trkpt>
      <trkpt lat="48.70119" lon="2.09291">
        <ele>139.343</ele>
        <time>2018-08-01T09:09:37Z</time>
      </trkpt>
      <trkpt lat="48.7012" lon="2.09287">
        <ele>139.372</ele>
        <time>2018-08-01T09:09:39Z</time>
      </trkpt>
      <trkpt lat="48.70121" lon="2.09279">
        <ele>139.457</ele>
        <time>2018-08-01T09:09:45Z</time>
      </trkpt>
      <trkpt lat="48.70121" lon="2.09266">
        <ele>139.558</ele>
        <time>2018-08-01T09:09:53Z</time>
      </trkpt>
      <trkpt lat="48.70123" lon="2.09257">
        <ele>139.58</ele>
        <time>2018-08-01T09:09:55Z</time>
      </trkpt>
      <trkpt lat="48.70136" lon="2.09247">
        <ele>139.808</ele>
        <time>2018-08-01T09:10:21Z</time>
      </trkpt>
      <trkpt lat="48.70137" lon="2.09242">
        <ele>139.838</ele>
        <time>2018-08-01T09:10:24Z</time>
      </trkpt>
      <trkpt lat="48.70139" lon="2.09238">
        <ele>139.858</ele>
        <time>2018-08-01T09:10:26Z</time>
      </trkpt>
      <trkpt lat="48.7014" lon="2.09235">
        <ele>139.877</ele>
        <time>2018-08-01T09:10:28Z</time>
      </trkpt>
      <trkpt lat="48.70142" lon="2.09228">
        <ele>139.913</ele>
        <time>2018-08-01T09:10:32Z</time>
      </trkpt>
      <trkpt lat="48.70143" lon="2.09224">
        <ele>139.93</ele>
        <time>2018-08-01T09:10:34Z</time>
      </trkpt>
      <trkpt lat="48.70144" lon="2.0922">
        <ele>139.946</ele>
        <time>2018-08-01T09:10:36Z</time>
      </trkpt>
      <trkpt lat="48.70147" lon="2.09212">
        <ele>139.979</ele>
        <time>2018-08-01T09:10:40Z</time>
      </trkpt>
      <trkpt lat="48.70149" lon="2.09205">
        <ele>140.018</ele>
        <time>2018-08-01T09:10:45Z</time>
      </trkpt>
      <trkpt lat="48.7015" lon="2.09197">
        <ele>140.07</ele>
        <time>2018-08-01T09:10:52Z</time>
      </trkpt>
      <trkpt lat="48.70153" lon="2.09191">
        <ele>140.089</ele>
        <time>2018-08-01T09:10:55Z</time>
      </trkpt>
      <trkpt lat="48.70156" lon="2.09185">
        <ele>140.106</ele>
        <time>2018-08-01T09:10:58Z</time>
      </trkpt>
      <trkpt lat="48.70159" lon="2.09178">
        <ele>140.123</ele>
        <time>2018-08-01T09:11:01Z</time>
      </trkpt>
      <trkpt lat="48.70163" lon="2.09171">
        <ele>140.14</ele>
        <time>2018-08-01T09:11:04Z</time>
      </trkpt>
      <trkpt lat="48.70166" lon="2.09166">
        <ele>140.16</ele>
        <time>2018-08-01T09:11:07Z</time>
      </trkpt>
      <trkpt lat="48.70168" lon="2.09158">
        <ele>140.185</ele>
        <time>2018-08-01T09:11:11Z</time>
      </trkpt>
      <trkpt lat="48.7017" lon="2.09152">
        <ele>140.221</ele>
        <time>2018-08-01T09:11:17Z</time>
      </trkpt>
      <trkpt lat="48.70172" lon="2.09144">
        <ele>140.244</ele>
        <time>2018-08-01T09:11:21Z</time>
      </trkpt>
      <trkpt lat="48.70173" lon="2.09139">
        <ele>140.257</ele>
        <time>2018-08-01T09:11:23Z</time>
      </trkpt>
      <trkpt lat="48.70174" lon="2.09135">
        <ele>140.269</ele>
        <time>2018-08-01T09:11:25Z</time>
      </trkpt>
      <trkpt lat="48.70175" lon="2.09129">
        <ele>140.291</ele>
        <time>2018-08-01T09:11:29Z</time>
      </trkpt>
      <trkpt lat="48.70179" lon="2.09123">
        <ele>140.313</ele>
        <time>2018-08-01T09:11:33Z</time>
      </trkpt>
      <trkpt lat="48.70179" lon="2.09116">
        <ele>140.345</ele>
        <time>2018-08-01T09:11:38Z</time>
      </trkpt>
      <trkpt lat="48.70179" lon="2.09112">
        <ele>140.358</ele>
        <time>2018-08-01T09:11:40Z</time>
      </trkpt>
      <trkpt lat="48.70179" lon="2.09108">
        <ele>140.378</ele>
        <time>2018-08-01T09:11:43Z</time>
      </trkpt>
      <trkpt lat="48.7018" lon="2.09103">
        <ele>140.399</ele>
        <time>2018-08-01T09:11:47Z</time>
      </trkpt>
      <trkpt lat="48.70181" lon="2.09096">
        <ele>140.426</ele>
        <time>2018-08-01T09:11:51Z</time>
      </trkpt>
      <trkpt lat="48.70181" lon="2.09091">
        <ele>140.438</ele>
        <time>2018-08-01T09:11:53Z</time>
      </trkpt>
      <trkpt lat="48.70181" lon="2.09084">
        <ele>140.456</ele>
        <time>2018-08-01T09:11:56Z</time>
      </trkpt>
      <trkpt lat="48.70183" lon="2.09076">
        <ele>140.478</ele>
        <time>2018-08-01T09:12:00Z</time>
      </trkpt>
      <trkpt lat="48.70186" lon="2.09068">
        <ele>140.5</ele>
        <time>2018-08-01T09:12:04Z</time>
      </trkpt>
      <trkpt lat="48.70185" lon="2.09061">
        <ele>140.521</ele>
        <time>2018-08-01T09:12:08Z</time>
      </trkpt>
      <trkpt lat="48.70186" lon="2.09053">
        <ele>140.541</ele>
        <time>2018-08-01T09:12:13Z</time>
      </trkpt>
      <trkpt lat="48.70187" lon="2.09047">
        <ele>140.552</ele>
        <time>2018-08-01T09:12:16Z</time>
      </trkpt>
      <trkpt lat="48.70188" lon="2.09043">
        <ele>140.563</ele>
        <time>2018-08-01T09:12:19Z</time>
      </trkpt>
      <trkpt lat="48.70188" lon="2.09039">
        <ele>140.571</ele>
        <time>2018-08-01T09:12:21Z</time>
      </trkpt>
      <trkpt lat="48.70189" lon="2.09036">
        <ele>140.574</ele>
        <time>2018-08-01T09:12:22Z</time>
      </trkpt>
      <trkpt lat="48.7019" lon="2.09031">
        <ele>140.58</ele>
        <time>2018-08-01T09:12:24Z</time>
      </trkpt>
      <trkpt lat="48.70191" lon="2.09022">
        <ele>140.596</ele>
        <time>2018-08-01T09:12:30Z</time>
      </trkpt>
      <trkpt lat="48.70191" lon="2.09015">
        <ele>140.605</ele>
        <time>2018-08-01T09:12:34Z</time>
      </trkpt>
      <trkpt lat="48.70193" lon="2.09005">
        <ele>140.614</ele>
        <time>2018-08-01T09:12:38Z</time>
      </trkpt>
      <trkpt lat="48.70193" lon="2.08999">
        <ele>140.619</ele>
        <time>2018-08-01T09:12:41Z</time>
      </trkpt>
      <trkpt lat="48.70194" lon="2.08994">
        <ele>140.625</ele>
        <time>2018-08-01T09:12:45Z</time>
      </trkpt>
      <trkpt lat="48.70194" lon="2.0899">
        <ele>140.628</ele>
        <time>2018-08-01T09:12:47Z</time>
      </trkpt>
      <trkpt lat="48.70195" lon="2.08986">
        <ele>140.63</ele>
        <time>2018-08-01T09:12:49Z</time>
      </trkpt>
      <trkpt lat="48.70197" lon="2.08979">
        <ele>140.63</ele>
        <time>2018-08-01T09:12:54Z</time>
      </trkpt>
      <trkpt lat="48.70198" lon="2.08974">
        <ele>140.625</ele>
        <time>2018-08-01T09:12:57Z</time>
      </trkpt>
      <trkpt lat="48.70201" lon="2.08968">
        <ele>140.618</ele>
        <time>2018-08-01T09:13:00Z</time>
      </trkpt>
      <trkpt lat="48.70205" lon="2.08962">
        <ele>140.604</ele>
        <time>2018-08-01T09:13:05Z</time>
      </trkpt>
      <trkpt lat="48.7021" lon="2.08959">
        <ele>140.59</ele>
        <time>2018-08-01T09:13:09Z</time>
      </trkpt>
      <trkpt lat="48.70214" lon="2.08958">
        <ele>140.576</ele>
        <time>2018-08-01T09:13:14Z</time>
      </trkpt>
      <trkpt lat="48.7022" lon="2.08958">
        <ele>140.567</ele>
        <time>2018-08-01T09:13:18Z</time>
      </trkpt>
      <trkpt lat="48.70228" lon="2.08961">
        <ele>140.553</ele>
        <time>2018-08-01T09:13:24Z</time>
      </trkpt>
      <trkpt lat="48.70234" lon="2.08962">
        <ele>140.545</ele>
        <time>2018-08-01T09:13:28Z</time>
      </trkpt>
      <trkpt lat="48.70236" lon="2.08963">
        <ele>140.539</ele>
        <time>2018-08-01T09:13:31Z</time>
      </trkpt>
      <trkpt lat="48.70242" lon="2.08961">
        <ele>140.535</ele>
        <time>2018-08-01T09:13:34Z</time>
      </trkpt>
      <trkpt lat="48.70246" lon="2.0896">
        <ele>140.524</ele>
        <time>2018-08-01T09:13:40Z</time>
      </trkpt>
      <trkpt lat="48.70251" lon="2.08958">
        <ele>140.514</ele>
        <time>2018-08-01T09:13:44Z</time>
      </trkpt>
      <trkpt lat="48.70255" lon="2.0896">
        <ele>140.498</ele>
        <time>2018-08-01T09:13:48Z</time>
      </trkpt>
      <trkpt lat="48.7026" lon="2.08961">
        <ele>140.481</ele>
        <time>2018-08-01T09:13:51Z</time>
      </trkpt>
      <trkpt lat="48.70264" lon="2.08962">
        <ele>140.457</ele>
        <time>2018-08-01T09:13:56Z</time>
      </trkpt>
      <trkpt lat="48.7027" lon="2.08963">
        <ele>140.44</ele>
        <time>2018-08-01T09:13:59Z</time>
      </trkpt>
      <trkpt lat="48.70273" lon="2.08963">
        <ele>140.429</ele>
        <time>2018-08-01T09:14:01Z</time>
      </trkpt>
      <trkpt lat="48.70276" lon="2.08958">
        <ele>140.409</ele>
        <time>2018-08-01T09:14:05Z</time>
      </trkpt>
      <trkpt lat="48.7028" lon="2.08953">
        <ele>140.386</ele>
        <time>2018-08-01T09:14:09Z</time>
      </trkpt>
      <trkpt lat="48.70283" lon="2.0895">
        <ele>140.37</ele>
        <time>2018-08-01T09:14:12Z</time>
      </trkpt>
      <trkpt lat="48.70285" lon="2.08946">
        <ele>140.348</ele>
        <time>2018-08-01T09:14:16Z</time>
      </trkpt>
      <trkpt lat="48.70292" lon="2.08914">
        <ele>138.519</ele>
        <time>2018-08-01T09:25:01Z</time>
      </trkpt>
      <trkpt lat="48.70293" lon="2.08907">
        <ele>138.494</ele>
        <time>2018-08-01T09:25:05Z</time>
      </trkpt>
      <trkpt lat="48.7029" lon="2.08901">
        <ele>138.471</ele>
        <time>2018-08-01T09:25:10Z</time>
      </trkpt>
      <trkpt lat="48.70311" lon="2.08869">
        <ele>138.116</ele>
        <time>2018-08-01T09:26:14Z</time>
      </trkpt>
      <trkpt lat="48.70317" lon="2.08867">
        <ele>138.101</ele>
        <time>2018-08-01T09:26:17Z</time>
      </trkpt>
      <trkpt lat="48.70322" lon="2.08871">
        <ele>138.087</ele>
        <time>2018-08-01T09:26:20Z</time>
      </trkpt>
      <trkpt lat="48.70327" lon="2.08873">
        <ele>138.055</ele>
        <time>2018-08-01T09:26:27Z</time>
      </trkpt>
      <trkpt lat="48.70331" lon="2.08873">
        <ele>138.038</ele>
        <time>2018-08-01T09:26:30Z</time>
      </trkpt>
      <trkpt lat="48.70336" lon="2.08872">
        <ele>137.998</ele>
        <time>2018-08-01T09:26:36Z</time>
      </trkpt>
      <trkpt lat="48.70358" lon="2.08859">
        <ele>137.715</ele>
        <time>2018-08-01T09:27:25Z</time>
      </trkpt>
      <trkpt lat="48.70363" lon="2.08856">
        <ele>137.697</ele>
        <time>2018-08-01T09:27:28Z</time>
      </trkpt>
      <trkpt lat="48.70367" lon="2.08851">
        <ele>137.674</ele>
        <time>2018-08-01T09:27:32Z</time>
      </trkpt>
      <trkpt lat="48.70365" lon="2.08843">
        <ele>137.647</ele>
        <time>2018-08-01T09:27:37Z</time>
      </trkpt>
      <trkpt lat="48.70364" lon="2.08835">
        <ele>137.625</ele>
        <time>2018-08-01T09:27:41Z</time>
      </trkpt>
      <trkpt lat="48.70362" lon="2.08827">
        <ele>137.599</ele>
        <time>2018-08-01T09:27:46Z</time>
      </trkpt>
      <trkpt lat="48.70362" lon="2.0882">
        <ele>137.578</ele>
        <time>2018-08-01T09:27:50Z</time>
      </trkpt>
      <trkpt lat="48.70361" lon="2.08814">
        <ele>137.562</ele>
        <time>2018-08-01T09:27:53Z</time>
      </trkpt>
      <trkpt lat="48.70361" lon="2.0881">
        <ele>137.552</ele>
        <time>2018-08-01T09:27:55Z</time>
      </trkpt>
      <trkpt lat="48.7036" lon="2.08806">
        <ele>137.535</ele>
        <time>2018-08-01T09:27:58Z</time>
      </trkpt>
      <trkpt lat="48.70359" lon="2.08801">
        <ele>137.514</ele>
        <time>2018-08-01T09:28:02Z</time>
      </trkpt>
      <trkpt lat="48.70357" lon="2.08795">
        <ele>137.493</ele>
        <time>2018-08-01T09:28:06Z</time>
      </trkpt>
      <trkpt lat="48.70356" lon="2.08788">
        <ele>137.473</ele>
        <time>2018-08-01T09:28:10Z</time>
      </trkpt>
      <trkpt lat="48.70356" lon="2.08779">
        <ele>137.442</ele>
        <time>2018-08-01T09:28:17Z</time>
      </trkpt>
      <trkpt lat="48.70356" lon="2.08774">
        <ele>137.427</ele>
        <time>2018-08-01T09:28:20Z</time>
      </trkpt>
      <trkpt lat="48.70357" lon="2.08767">
        <ele>137.405</ele>
        <time>2018-08-01T09:28:25Z</time>
      </trkpt>
      <trkpt lat="48.70357" lon="2.08763">
        <ele>137.396</ele>
        <time>2018-08-01T09:28:27Z</time>
      </trkpt>
      <trkpt lat="48.70358" lon="2.08758">
        <ele>137.387</ele>
        <time>2018-08-01T09:28:29Z</time>
      </trkpt>
      <trkpt lat="48.70359" lon="2.08752">
        <ele>137.363</ele>
        <time>2018-08-01T09:28:34Z</time>
      </trkpt>
      <trkpt lat="48.7036" lon="2.08745">
        <ele>137.347</ele>
        <time>2018-08-01T09:28:37Z</time>
      </trkpt>
      <trkpt lat="48.70362" lon="2.08736">
        <ele>137.326</ele>
        <time>2018-08-01T09:28:42Z</time>
      </trkpt>
      <trkpt lat="48.70363" lon="2.08726">
        <ele>137.31</ele>
        <time>2018-08-01T09:28:45Z</time>
      </trkpt>
      <trkpt lat="48.70365" lon="2.08719">
        <ele>137.292</ele>
        <time>2018-08-01T09:28:48Z</time>
      </trkpt>
      <trkpt lat="48.70364" lon="2.08712">
        <ele>137.268</ele>
        <time>2018-08-01T09:28:52Z</time>
      </trkpt>
      <trkpt lat="48.70366" lon="2.08704">
        <ele>137.25</ele>
        <time>2018-08-01T09:28:55Z</time>
      </trkpt>
      <trkpt lat="48.70366" lon="2.08695">
        <ele>137.213</ele>
        <time>2018-08-01T09:29:01Z</time>
      </trkpt>
      <trkpt lat="48.70366" lon="2.08691">
        <ele>137.207</ele>
        <time>2018-08-01T09:29:02Z</time>
      </trkpt>
      <trkpt lat="48.70368" lon="2.08682">
        <ele>137.186</ele>
        <time>2018-08-01T09:29:06Z</time>
      </trkpt>
      <trkpt lat="48.70368" lon="2.08674">
        <ele>137.17</ele>
        <time>2018-08-01T09:29:09Z</time>
      </trkpt>
      <trkpt lat="48.70369" lon="2.08667">
        <ele>137.145</ele>
        <time>2018-08-01T09:29:13Z</time>
      </trkpt>
      <trkpt lat="48.7037" lon="2.08663">
        <ele>137.134</ele>
        <time>2018-08-01T09:29:15Z</time>
      </trkpt>
      <trkpt lat="48.70372" lon="2.08654">
        <ele>137.113</ele>
        <time>2018-08-01T09:29:19Z</time>
      </trkpt>
      <trkpt lat="48.70371" lon="2.08646">
        <ele>137.093</ele>
        <time>2018-08-01T09:29:23Z</time>
      </trkpt>
      <trkpt lat="48.70372" lon="2.08638">
        <ele>137.068</ele>
        <time>2018-08-01T09:29:28Z</time>
      </trkpt>
      <trkpt lat="48.70374" lon="2.08631">
        <ele>137.044</ele>
        <time>2018-08-01T09:29:33Z</time>
      </trkpt>
      <trkpt lat="48.70375" lon="2.08627">
        <ele>137.035</ele>
        <time>2018-08-01T09:29:35Z</time>
      </trkpt>
      <trkpt lat="48.70376" lon="2.08623">
        <ele>137.02</ele>
        <time>2018-08-01T09:29:38Z</time>
      </trkpt>
      <trkpt lat="48.70377" lon="2.08615">
        <ele>136.997</ele>
        <time>2018-08-01T09:29:42Z</time>
      </trkpt>
      <trkpt lat="48.70377" lon="2.08606">
        <ele>136.974</ele>
        <time>2018-08-01T09:29:46Z</time>
      </trkpt>
      <trkpt lat="48.70377" lon="2.08597">
        <ele>136.952</ele>
        <time>2018-08-01T09:29:50Z</time>
      </trkpt>
      <trkpt lat="48.70378" lon="2.0859">
        <ele>136.93</ele>
        <time>2018-08-01T09:29:54Z</time>
      </trkpt>
      <trkpt lat="48.7038" lon="2.08583">
        <ele>136.906</ele>
        <time>2018-08-01T09:29:59Z</time>
      </trkpt>
      <trkpt lat="48.70381" lon="2.08576">
        <ele>136.895</ele>
        <time>2018-08-01T09:30:02Z</time>
      </trkpt>
      <trkpt lat="48.70382" lon="2.08569">
        <ele>136.883</ele>
        <time>2018-08-01T09:30:06Z</time>
      </trkpt>
      <trkpt lat="48.70383" lon="2.08565">
        <ele>136.878</ele>
        <time>2018-08-01T09:30:08Z</time>
      </trkpt>
      <trkpt lat="48.70383" lon="2.08561">
        <ele>136.87</ele>
        <time>2018-08-01T09:30:12Z</time>
      </trkpt>
      <trkpt lat="48.70383" lon="2.08553">
        <ele>136.866</ele>
        <time>2018-08-01T09:30:18Z</time>
      </trkpt>
      <trkpt lat="48.70384" lon="2.08545">
        <ele>136.867</ele>
        <time>2018-08-01T09:30:22Z</time>
      </trkpt>
      <trkpt lat="48.70383" lon="2.08537">
        <ele>136.867</ele>
        <time>2018-08-01T09:30:25Z</time>
      </trkpt>
      <trkpt lat="48.70385" lon="2.08531">
        <ele>136.866</ele>
        <time>2018-08-01T09:30:28Z</time>
      </trkpt>
      <trkpt lat="48.70385" lon="2.08527">
        <ele>136.865</ele>
        <time>2018-08-01T09:30:30Z</time>
      </trkpt>
      <trkpt lat="48.70385" lon="2.08521">
        <ele>136.865</ele>
        <time>2018-08-01T09:30:34Z</time>
      </trkpt>
      <trkpt lat="48.70387" lon="2.08513">
        <ele>136.864</ele>
        <time>2018-08-01T09:30:38Z</time>
      </trkpt>
      <trkpt lat="48.70386" lon="2.08506">
        <ele>136.861</ele>
        <time>2018-08-01T09:30:40Z</time>
      </trkpt>
      <trkpt lat="48.70386" lon="2.085">
        <ele>136.857</ele>
        <time>2018-08-01T09:30:42Z</time>
      </trkpt>
      <trkpt lat="48.70385" lon="2.08494">
        <ele>136.853</ele>
        <time>2018-08-01T09:30:44Z</time>
      </trkpt>
      <trkpt lat="48.70385" lon="2.08491">
        <ele>136.847</ele>
        <time>2018-08-01T09:30:46Z</time>
      </trkpt>
      <trkpt lat="48.70386" lon="2.08484">
        <ele>136.837</ele>
        <time>2018-08-01T09:30:49Z</time>
      </trkpt>
      <trkpt lat="48.70388" lon="2.08478">
        <ele>136.824</ele>
        <time>2018-08-01T09:30:53Z</time>
      </trkpt>
      <trkpt lat="48.70388" lon="2.08474">
        <ele>136.817</ele>
        <time>2018-08-01T09:30:55Z</time>
      </trkpt>
      <trkpt lat="48.70389" lon="2.08468">
        <ele>136.808</ele>
        <time>2018-08-01T09:30:58Z</time>
      </trkpt>
      <trkpt lat="48.70388" lon="2.08461">
        <ele>136.795</ele>
        <time>2018-08-01T09:31:01Z</time>
      </trkpt>
      <trkpt lat="48.70386" lon="2.08453">
        <ele>136.772</ele>
        <time>2018-08-01T09:31:05Z</time>
      </trkpt>
      <trkpt lat="48.70384" lon="2.08448">
        <ele>136.76</ele>
        <time>2018-08-01T09:31:07Z</time>
      </trkpt>
      <trkpt lat="48.70383" lon="2.08444">
        <ele>136.746</ele>
        <time>2018-08-01T09:31:09Z</time>
      </trkpt>
      <trkpt lat="48.70383" lon="2.08437">
        <ele>136.716</ele>
        <time>2018-08-01T09:31:13Z</time>
      </trkpt>
      <trkpt lat="48.70382" lon="2.08433">
        <ele>136.691</ele>
        <time>2018-08-01T09:31:16Z</time>
      </trkpt>
      <trkpt lat="48.70382" lon="2.08429">
        <ele>136.662</ele>
        <time>2018-08-01T09:31:19Z</time>
      </trkpt>
      <trkpt lat="48.70382" lon="2.08425">
        <ele>136.63</ele>
        <time>2018-08-01T09:31:22Z</time>
      </trkpt>
      <trkpt lat="48.70383" lon="2.08417">
        <ele>136.572</ele>
        <time>2018-08-01T09:31:26Z</time>
      </trkpt>
      <trkpt lat="48.7038" lon="2.08411">
        <ele>136.505</ele>
        <time>2018-08-01T09:31:30Z</time>
      </trkpt>
      <trkpt lat="48.70379" lon="2.08403">
        <ele>136.426</ele>
        <time>2018-08-01T09:31:34Z</time>
      </trkpt>
      <trkpt lat="48.70379" lon="2.08396">
        <ele>136.319</ele>
        <time>2018-08-01T09:31:39Z</time>
      </trkpt>
      <trkpt lat="48.70379" lon="2.08392">
        <ele>136.276</ele>
        <time>2018-08-01T09:31:41Z</time>
      </trkpt>
      <trkpt lat="48.70379" lon="2.08383">
        <ele>136.168</ele>
        <time>2018-08-01T09:31:46Z</time>
      </trkpt>
      <trkpt lat="48.70379" lon="2.08378">
        <ele>136.104</ele>
        <time>2018-08-01T09:31:49Z</time>
      </trkpt>
      <trkpt lat="48.70379" lon="2.08374">
        <ele>136.061</ele>
        <time>2018-08-01T09:31:51Z</time>
      </trkpt>
      <trkpt lat="48.70377" lon="2.08367">
        <ele>135.996</ele>
        <time>2018-08-01T09:31:54Z</time>
      </trkpt>
      <trkpt lat="48.70375" lon="2.08361">
        <ele>135.886</ele>
        <time>2018-08-01T09:31:59Z</time>
      </trkpt>
      <trkpt lat="48.70375" lon="2.08352">
        <ele>135.779</ele>
        <time>2018-08-01T09:32:04Z</time>
      </trkpt>
      <trkpt lat="48.70376" lon="2.08345">
        <ele>135.711</ele>
        <time>2018-08-01T09:32:07Z</time>
      </trkpt>
      <trkpt lat="48.70376" lon="2.0834">
        <ele>135.664</ele>
        <time>2018-08-01T09:32:09Z</time>
      </trkpt>
      <trkpt lat="48.70376" lon="2.08333">
        <ele>135.589</ele>
        <time>2018-08-01T09:32:12Z</time>
      </trkpt>
      <trkpt lat="48.70375" lon="2.08328">
        <ele>135.538</ele>
        <time>2018-08-01T09:32:14Z</time>
      </trkpt>
      <trkpt lat="48.70375" lon="2.0832">
        <ele>135.411</ele>
        <time>2018-08-01T09:32:19Z</time>
      </trkpt>
      <trkpt lat="48.70375" lon="2.08317">
        <ele>135.327</ele>
        <time>2018-08-01T09:32:22Z</time>
      </trkpt>
      <trkpt lat="48.70373" lon="2.0831">
        <ele>135.211</ele>
        <time>2018-08-01T09:32:26Z</time>
      </trkpt>
      <trkpt lat="48.70373" lon="2.08303">
        <ele>135.04</ele>
        <time>2018-08-01T09:32:32Z</time>
      </trkpt>
      <trkpt lat="48.70371" lon="2.08296">
        <ele>134.93</ele>
        <time>2018-08-01T09:32:36Z</time>
      </trkpt>
      <trkpt lat="48.7037" lon="2.08292">
        <ele>134.873</ele>
        <time>2018-08-01T09:32:38Z</time>
      </trkpt>
      <trkpt lat="48.70369" lon="2.08287">
        <ele>134.815</ele>
        <time>2018-08-01T09:32:40Z</time>
      </trkpt>
      <trkpt lat="48.70366" lon="2.08281">
        <ele>134.668</ele>
        <time>2018-08-01T09:32:45Z</time>
      </trkpt>
      <trkpt lat="48.70362" lon="2.08273">
        <ele>134.474</ele>
        <time>2018-08-01T09:32:52Z</time>
      </trkpt>
      <trkpt lat="48.70361" lon="2.0827">
        <ele>134.314</ele>
        <time>2018-08-01T09:32:58Z</time>
      </trkpt>
      <trkpt lat="48.70357" lon="2.08263">
        <ele>134.167</ele>
        <time>2018-08-01T09:33:04Z</time>
      </trkpt>
      <trkpt lat="48.70353" lon="2.08257">
        <ele>134.078</ele>
        <time>2018-08-01T09:33:08Z</time>
      </trkpt>
      <trkpt lat="48.7035" lon="2.08255">
        <ele>134.016</ele>
        <time>2018-08-01T09:33:11Z</time>
      </trkpt>
      <trkpt lat="48.70348" lon="2.08248">
        <ele>133.883</ele>
        <time>2018-08-01T09:33:18Z</time>
      </trkpt>
      <trkpt lat="48.70346" lon="2.08243">
        <ele>133.828</ele>
        <time>2018-08-01T09:33:21Z</time>
      </trkpt>
      <trkpt lat="48.70345" lon="2.0824">
        <ele>133.792</ele>
        <time>2018-08-01T09:33:23Z</time>
      </trkpt>
      <trkpt lat="48.70343" lon="2.08233">
        <ele>133.737</ele>
        <time>2018-08-01T09:33:26Z</time>
      </trkpt>
      <trkpt lat="48.70342" lon="2.08229">
        <ele>133.701</ele>
        <time>2018-08-01T09:33:28Z</time>
      </trkpt>
      <trkpt lat="48.70339" lon="2.08223">
        <ele>133.618</ele>
        <time>2018-08-01T09:33:33Z</time>
      </trkpt>
      <trkpt lat="48.70335" lon="2.08218">
        <ele>133.539</ele>
        <time>2018-08-01T09:33:38Z</time>
      </trkpt>
      <trkpt lat="48.70332" lon="2.08211">
        <ele>133.466</ele>
        <time>2018-08-01T09:33:43Z</time>
      </trkpt>
      <trkpt lat="48.70329" lon="2.08205">
        <ele>133.426</ele>
        <time>2018-08-01T09:33:46Z</time>
      </trkpt>
      <trkpt lat="48.70327" lon="2.08202">
        <ele>133.388</ele>
        <time>2018-08-01T09:33:49Z</time>
      </trkpt>
      <trkpt lat="48.70325" lon="2.08198">
        <ele>133.352</ele>
        <time>2018-08-01T09:33:52Z</time>
      </trkpt>
      <trkpt lat="48.70323" lon="2.08196">
        <ele>133.33</ele>
        <time>2018-08-01T09:33:54Z</time>
      </trkpt>
      <trkpt lat="48.70319" lon="2.08192">
        <ele>133.276</ele>
        <time>2018-08-01T09:33:59Z</time>
      </trkpt>
      <trkpt lat="48.70315" lon="2.08188">
        <ele>133.235</ele>
        <time>2018-08-01T09:34:03Z</time>
      </trkpt>
      <trkpt lat="48.70312" lon="2.08186">
        <ele>133.205</ele>
        <time>2018-08-01T09:34:06Z</time>
      </trkpt>
      <trkpt lat="48.70307" lon="2.08182">
        <ele>133.17</ele>
        <time>2018-08-01T09:34:11Z</time>
      </trkpt>
      <trkpt lat="48.70305" lon="2.08179">
        <ele>133.16</ele>
        <time>2018-08-01T09:34:13Z</time>
      </trkpt>
      <trkpt lat="48.70301" lon="2.08174">
        <ele>133.134</ele>
        <time>2018-08-01T09:34:19Z</time>
      </trkpt>
      <trkpt lat="48.70297" lon="2.08169">
        <ele>133.112</ele>
        <time>2018-08-01T09:34:24Z</time>
      </trkpt>
      <trkpt lat="48.70293" lon="2.08164">
        <ele>133.092</ele>
        <time>2018-08-01T09:34:29Z</time>
      </trkpt>
      <trkpt lat="48.70292" lon="2.08161">
        <ele>133.085</ele>
        <time>2018-08-01T09:34:31Z</time>
      </trkpt>
      <trkpt lat="48.70287" lon="2.08156">
        <ele>133.076</ele>
        <time>2018-08-01T09:34:36Z</time>
      </trkpt>
      <trkpt lat="48.70285" lon="2.08155">
        <ele>133.073</ele>
        <time>2018-08-01T09:34:39Z</time>
      </trkpt>
      <trkpt lat="48.7028" lon="2.0815">
        <ele>133.071</ele>
        <time>2018-08-01T09:34:44Z</time>
      </trkpt>
      <trkpt lat="48.70278" lon="2.08147">
        <ele>133.071</ele>
        <time>2018-08-01T09:34:47Z</time>
      </trkpt>
      <trkpt lat="48.70276" lon="2.08145">
        <ele>133.071</ele>
        <time>2018-08-01T09:34:49Z</time>
      </trkpt>
      <trkpt lat="48.70273" lon="2.08143">
        <ele>133.072</ele>
        <time>2018-08-01T09:34:52Z</time>
      </trkpt>
      <trkpt lat="48.7027" lon="2.08137">
        <ele>133.078</ele>
        <time>2018-08-01T09:34:57Z</time>
      </trkpt>
      <trkpt lat="48.70268" lon="2.08134">
        <ele>133.081</ele>
        <time>2018-08-01T09:34:59Z</time>
      </trkpt>
      <trkpt lat="48.70266" lon="2.08132">
        <ele>133.088</ele>
        <time>2018-08-01T09:35:02Z</time>
      </trkpt>
      <trkpt lat="48.70263" lon="2.08125">
        <ele>133.105</ele>
        <time>2018-08-01T09:35:07Z</time>
      </trkpt>
      <trkpt lat="48.70264" lon="2.08118">
        <ele>133.14</ele>
        <time>2018-08-01T09:35:13Z</time>
      </trkpt>
      <trkpt lat="48.70266" lon="2.08111">
        <ele>133.167</ele>
        <time>2018-08-01T09:35:17Z</time>
      </trkpt>
      <trkpt lat="48.70267" lon="2.08106">
        <ele>133.187</ele>
        <time>2018-08-01T09:35:20Z</time>
      </trkpt>
      <trkpt lat="48.70269" lon="2.081">
        <ele>133.206</ele>
        <time>2018-08-01T09:35:23Z</time>
      </trkpt>
      <trkpt lat="48.70269" lon="2.08092">
        <ele>133.24</ele>
        <time>2018-08-01T09:35:28Z</time>
      </trkpt>
      <trkpt lat="48.70269" lon="2.08087">
        <ele>133.259</ele>
        <time>2018-08-01T09:35:31Z</time>
      </trkpt>
      <trkpt lat="48.70269" lon="2.08083">
        <ele>133.271</ele>
        <time>2018-08-01T09:35:33Z</time>
      </trkpt>
      <trkpt lat="48.7027" lon="2.08076">
        <ele>133.288</ele>
        <time>2018-08-01T09:35:36Z</time>
      </trkpt>
      <trkpt lat="48.7027" lon="2.08072">
        <ele>133.299</ele>
        <time>2018-08-01T09:35:38Z</time>
      </trkpt>
      <trkpt lat="48.70271" lon="2.08065">
        <ele>133.325</ele>
        <time>2018-08-01T09:35:42Z</time>
      </trkpt>
      <trkpt lat="48.70271" lon="2.08058">
        <ele>133.384</ele>
        <time>2018-08-01T09:35:49Z</time>
      </trkpt>
      <trkpt lat="48.70271" lon="2.08051">
        <ele>133.414</ele>
        <time>2018-08-01T09:35:52Z</time>
      </trkpt>
      <trkpt lat="48.70272" lon="2.08045">
        <ele>133.444</ele>
        <time>2018-08-01T09:35:55Z</time>
      </trkpt>
      <trkpt lat="48.70272" lon="2.08041">
        <ele>133.463</ele>
        <time>2018-08-01T09:35:57Z</time>
      </trkpt>
      <trkpt lat="48.70272" lon="2.08037">
        <ele>133.481</ele>
        <time>2018-08-01T09:35:59Z</time>
      </trkpt>
      <trkpt lat="48.70273" lon="2.08032">
        <ele>133.5</ele>
        <time>2018-08-01T09:36:01Z</time>
      </trkpt>
      <trkpt lat="48.70273" lon="2.08027">
        <ele>133.525</ele>
        <time>2018-08-01T09:36:04Z</time>
      </trkpt>
      <trkpt lat="48.70274" lon="2.0802">
        <ele>133.554</ele>
        <time>2018-08-01T09:36:08Z</time>
      </trkpt>
      <trkpt lat="48.70272" lon="2.08012">
        <ele>133.591</ele>
        <time>2018-08-01T09:36:15Z</time>
      </trkpt>
      <trkpt lat="48.70272" lon="2.08005">
        <ele>133.615</ele>
        <time>2018-08-01T09:36:19Z</time>
      </trkpt>
      <trkpt lat="48.70272" lon="2.08">
        <ele>133.627</ele>
        <time>2018-08-01T09:36:21Z</time>
      </trkpt>
      <trkpt lat="48.70274" lon="2.07994">
        <ele>133.644</ele>
        <time>2018-08-01T09:36:24Z</time>
      </trkpt>
      <trkpt lat="48.70275" lon="2.07988">
        <ele>133.663</ele>
        <time>2018-08-01T09:36:27Z</time>
      </trkpt>
      <trkpt lat="48.70276" lon="2.07984">
        <ele>133.69</ele>
        <time>2018-08-01T09:36:31Z</time>
      </trkpt>
      <trkpt lat="48.70276" lon="2.07976">
        <ele>133.729</ele>
        <time>2018-08-01T09:36:36Z</time>
      </trkpt>
      <trkpt lat="48.70276" lon="2.07972">
        <ele>133.745</ele>
        <time>2018-08-01T09:36:38Z</time>
      </trkpt>
      <trkpt lat="48.70277" lon="2.07965">
        <ele>133.781</ele>
        <time>2018-08-01T09:36:42Z</time>
      </trkpt>
      <trkpt lat="48.70278" lon="2.0796">
        <ele>133.8</ele>
        <time>2018-08-01T09:36:44Z</time>
      </trkpt>
      <trkpt lat="48.70278" lon="2.07954">
        <ele>133.831</ele>
        <time>2018-08-01T09:36:47Z</time>
      </trkpt>
      <trkpt lat="48.70279" lon="2.07949">
        <ele>133.863</ele>
        <time>2018-08-01T09:36:50Z</time>
      </trkpt>
      <trkpt lat="48.70279" lon="2.07942">
        <ele>133.914</ele>
        <time>2018-08-01T09:36:55Z</time>
      </trkpt>
      <trkpt lat="48.7028" lon="2.07936">
        <ele>133.946</ele>
        <time>2018-08-01T09:36:58Z</time>
      </trkpt>
      <trkpt lat="48.70281" lon="2.07929">
        <ele>133.997</ele>
        <time>2018-08-01T09:37:03Z</time>
      </trkpt>
      <trkpt lat="48.70282" lon="2.07924">
        <ele>134.016</ele>
        <time>2018-08-01T09:37:05Z</time>
      </trkpt>
      <trkpt lat="48.70282" lon="2.0792">
        <ele>134.041</ele>
        <time>2018-08-01T09:37:08Z</time>
      </trkpt>
      <trkpt lat="48.70281" lon="2.07911">
        <ele>134.074</ele>
        <time>2018-08-01T09:37:12Z</time>
      </trkpt>
      <trkpt lat="48.70282" lon="2.07903">
        <ele>134.1</ele>
        <time>2018-08-01T09:37:15Z</time>
      </trkpt>
      <trkpt lat="48.70282" lon="2.07899">
        <ele>134.127</ele>
        <time>2018-08-01T09:37:18Z</time>
      </trkpt>
      <trkpt lat="48.70282" lon="2.07889">
        <ele>134.172</ele>
        <time>2018-08-01T09:37:23Z</time>
      </trkpt>
      <trkpt lat="48.70282" lon="2.07882">
        <ele>134.206</ele>
        <time>2018-08-01T09:37:27Z</time>
      </trkpt>
      <trkpt lat="48.70283" lon="2.07874">
        <ele>134.245</ele>
        <time>2018-08-01T09:37:32Z</time>
      </trkpt>
      <trkpt lat="48.70283" lon="2.07866">
        <ele>134.274</ele>
        <time>2018-08-01T09:37:36Z</time>
      </trkpt>
      <trkpt lat="48.70283" lon="2.07861">
        <ele>134.307</ele>
        <time>2018-08-01T09:37:41Z</time>
      </trkpt>
      <trkpt lat="48.70285" lon="2.07854">
        <ele>134.324</ele>
        <time>2018-08-01T09:37:44Z</time>
      </trkpt>
      <trkpt lat="48.70285" lon="2.07847">
        <ele>134.337</ele>
        <time>2018-08-01T09:37:47Z</time>
      </trkpt>
      <trkpt lat="48.70287" lon="2.07838">
        <ele>134.355</ele>
        <time>2018-08-01T09:37:51Z</time>
      </trkpt>
      <trkpt lat="48.70289" lon="2.07834">
        <ele>134.362</ele>
        <time>2018-08-01T09:37:53Z</time>
      </trkpt>
      <trkpt lat="48.70289" lon="2.07827">
        <ele>134.38</ele>
        <time>2018-08-01T09:37:58Z</time>
      </trkpt>
      <trkpt lat="48.7029" lon="2.07823">
        <ele>134.389</ele>
        <time>2018-08-01T09:38:01Z</time>
      </trkpt>
      <trkpt lat="48.7029" lon="2.07815">
        <ele>134.403</ele>
        <time>2018-08-01T09:38:06Z</time>
      </trkpt>
      <trkpt lat="48.70289" lon="2.0781">
        <ele>134.409</ele>
        <time>2018-08-01T09:38:08Z</time>
      </trkpt>
      <trkpt lat="48.7029" lon="2.07802">
        <ele>134.423</ele>
        <time>2018-08-01T09:38:12Z</time>
      </trkpt>
      <trkpt lat="48.7029" lon="2.07794">
        <ele>134.447</ele>
        <time>2018-08-01T09:38:17Z</time>
      </trkpt>
      <trkpt lat="48.70291" lon="2.0779">
        <ele>134.458</ele>
        <time>2018-08-01T09:38:19Z</time>
      </trkpt>
      <trkpt lat="48.70291" lon="2.07786">
        <ele>134.47</ele>
        <time>2018-08-01T09:38:21Z</time>
      </trkpt>
      <trkpt lat="48.70292" lon="2.07781">
        <ele>134.492</ele>
        <time>2018-08-01T09:38:25Z</time>
      </trkpt>
      <trkpt lat="48.70291" lon="2.07773">
        <ele>134.521</ele>
        <time>2018-08-01T09:38:30Z</time>
      </trkpt>
      <trkpt lat="48.7029" lon="2.0777">
        <ele>134.533</ele>
        <time>2018-08-01T09:38:32Z</time>
      </trkpt>
      <trkpt lat="48.70291" lon="2.07762">
        <ele>134.553</ele>
        <time>2018-08-01T09:38:35Z</time>
      </trkpt>
      <trkpt lat="48.70292" lon="2.07755">
        <ele>134.579</ele>
        <time>2018-08-01T09:38:39Z</time>
      </trkpt>
      <trkpt lat="48.70293" lon="2.0775">
        <ele>134.595</ele>
        <time>2018-08-01T09:38:42Z</time>
      </trkpt>
      <trkpt lat="48.70293" lon="2.07743">
        <ele>134.611</ele>
        <time>2018-08-01T09:38:46Z</time>
      </trkpt>
      <trkpt lat="48.70293" lon="2.0774">
        <ele>134.617</ele>
        <time>2018-08-01T09:38:48Z</time>
      </trkpt>
      <trkpt lat="48.70293" lon="2.07735">
        <ele>134.626</ele>
        <time>2018-08-01T09:38:51Z</time>
      </trkpt>
      <trkpt lat="48.70293" lon="2.07731">
        <ele>134.631</ele>
        <time>2018-08-01T09:38:53Z</time>
      </trkpt>
      <trkpt lat="48.70294" lon="2.07724">
        <ele>134.64</ele>
        <time>2018-08-01T09:38:57Z</time>
      </trkpt>
      <trkpt lat="48.70295" lon="2.07717">
        <ele>134.649</ele>
        <time>2018-08-01T09:39:01Z</time>
      </trkpt>
      <trkpt lat="48.70296" lon="2.07709">
        <ele>134.659</ele>
        <time>2018-08-01T09:39:05Z</time>
      </trkpt>
      <trkpt lat="48.70296" lon="2.07705">
        <ele>134.668</ele>
        <time>2018-08-01T09:39:08Z</time>
      </trkpt>
      <trkpt lat="48.70296" lon="2.07697">
        <ele>134.682</ele>
        <time>2018-08-01T09:39:12Z</time>
      </trkpt>
      <trkpt lat="48.70297" lon="2.0769">
        <ele>134.7</ele>
        <time>2018-08-01T09:39:16Z</time>
      </trkpt>
      <trkpt lat="48.70297" lon="2.07685">
        <ele>134.71</ele>
        <time>2018-08-01T09:39:18Z</time>
      </trkpt>
      <trkpt lat="48.70298" lon="2.07681">
        <ele>134.725</ele>
        <time>2018-08-01T09:39:21Z</time>
      </trkpt>
      <trkpt lat="48.70299" lon="2.07674">
        <ele>134.741</ele>
        <time>2018-08-01T09:39:24Z</time>
      </trkpt>
      <trkpt lat="48.703" lon="2.07668">
        <ele>134.756</ele>
        <time>2018-08-01T09:39:27Z</time>
      </trkpt>
      <trkpt lat="48.703" lon="2.07659">
        <ele>134.778</ele>
        <time>2018-08-01T09:39:32Z</time>
      </trkpt>
      <trkpt lat="48.70299" lon="2.07651">
        <ele>134.8</ele>
        <time>2018-08-01T09:39:37Z</time>
      </trkpt>
      <trkpt lat="48.70297" lon="2.07643">
        <ele>134.823</ele>
        <time>2018-08-01T09:39:42Z</time>
      </trkpt>
      <trkpt lat="48.70297" lon="2.07634">
        <ele>134.847</ele>
        <time>2018-08-01T09:39:47Z</time>
      </trkpt>
      <trkpt lat="48.70297" lon="2.07629">
        <ele>134.856</ele>
        <time>2018-08-01T09:39:49Z</time>
      </trkpt>
      <trkpt lat="48.70296" lon="2.07625">
        <ele>134.866</ele>
        <time>2018-08-01T09:39:51Z</time>
      </trkpt>
      <trkpt lat="48.70296" lon="2.0762">
        <ele>134.88</ele>
        <time>2018-08-01T09:39:54Z</time>
      </trkpt>
      <trkpt lat="48.70295" lon="2.07612">
        <ele>134.906</ele>
        <time>2018-08-01T09:39:59Z</time>
      </trkpt>
      <trkpt lat="48.70294" lon="2.07605">
        <ele>134.929</ele>
        <time>2018-08-01T09:40:03Z</time>
      </trkpt>
      <trkpt lat="48.70293" lon="2.076">
        <ele>134.953</ele>
        <time>2018-08-01T09:40:06Z</time>
      </trkpt>
      <trkpt lat="48.70291" lon="2.07591">
        <ele>135.002</ele>
        <time>2018-08-01T09:40:11Z</time>
      </trkpt>
      <trkpt lat="48.7029" lon="2.07587">
        <ele>135.022</ele>
        <time>2018-08-01T09:40:13Z</time>
      </trkpt>
      <trkpt lat="48.70286" lon="2.07581">
        <ele>135.061</ele>
        <time>2018-08-01T09:40:17Z</time>
      </trkpt>
      <trkpt lat="48.70282" lon="2.07575">
        <ele>135.116</ele>
        <time>2018-08-01T09:40:23Z</time>
      </trkpt>
      <trkpt lat="48.7028" lon="2.0757">
        <ele>135.142</ele>
        <time>2018-08-01T09:40:26Z</time>
      </trkpt>
      <trkpt lat="48.70278" lon="2.07566">
        <ele>135.164</ele>
        <time>2018-08-01T09:40:29Z</time>
      </trkpt>
      <trkpt lat="48.70275" lon="2.07562">
        <ele>135.217</ele>
        <time>2018-08-01T09:40:37Z</time>
      </trkpt>
      <trkpt lat="48.70271" lon="2.07553">
        <ele>135.4</ele>
        <time>2018-08-01T09:40:59Z</time>
      </trkpt>
      <trkpt lat="48.70269" lon="2.07549">
        <ele>135.422</ele>
        <time>2018-08-01T09:41:01Z</time>
      </trkpt>
      <trkpt lat="48.70265" lon="2.07544">
        <ele>135.461</ele>
        <time>2018-08-01T09:41:05Z</time>
      </trkpt>
      <trkpt lat="48.70262" lon="2.07541">
        <ele>135.478</ele>
        <time>2018-08-01T09:41:07Z</time>
      </trkpt>
      <trkpt lat="48.7026" lon="2.07539">
        <ele>135.494</ele>
        <time>2018-08-01T09:41:09Z</time>
      </trkpt>
      <trkpt lat="48.70256" lon="2.07531">
        <ele>135.522</ele>
        <time>2018-08-01T09:41:13Z</time>
      </trkpt>
      <trkpt lat="48.70254" lon="2.07528">
        <ele>135.534</ele>
        <time>2018-08-01T09:41:15Z</time>
      </trkpt>
      <trkpt lat="48.70249" lon="2.07523">
        <ele>135.556</ele>
        <time>2018-08-01T09:41:20Z</time>
      </trkpt>
      <trkpt lat="48.70247" lon="2.0752">
        <ele>135.563</ele>
        <time>2018-08-01T09:41:22Z</time>
      </trkpt>
      <trkpt lat="48.70243" lon="2.07515">
        <ele>135.578</ele>
        <time>2018-08-01T09:41:27Z</time>
      </trkpt>
      <trkpt lat="48.7024" lon="2.07509">
        <ele>135.587</ele>
        <time>2018-08-01T09:41:31Z</time>
      </trkpt>
      <trkpt lat="48.70238" lon="2.07506">
        <ele>135.593</ele>
        <time>2018-08-01T09:41:34Z</time>
      </trkpt>
      <trkpt lat="48.70234" lon="2.07502">
        <ele>135.598</ele>
        <time>2018-08-01T09:41:37Z</time>
      </trkpt>
      <trkpt lat="48.70231" lon="2.07499">
        <ele>135.6</ele>
        <time>2018-08-01T09:41:39Z</time>
      </trkpt>
      <trkpt lat="48.70227" lon="2.07494">
        <ele>135.6</ele>
        <time>2018-08-01T09:41:44Z</time>
      </trkpt>
      <trkpt lat="48.70225" lon="2.07491">
        <ele>135.598</ele>
        <time>2018-08-01T09:41:46Z</time>
      </trkpt>
      <trkpt lat="48.70221" lon="2.07486">
        <ele>135.592</ele>
        <time>2018-08-01T09:41:51Z</time>
      </trkpt>
      <trkpt lat="48.70217" lon="2.07481">
        <ele>135.586</ele>
        <time>2018-08-01T09:41:56Z</time>
      </trkpt>
      <trkpt lat="48.70213" lon="2.07476">
        <ele>135.581</ele>
        <time>2018-08-01T09:42:00Z</time>
      </trkpt>
      <trkpt lat="48.70209" lon="2.07473">
        <ele>135.578</ele>
        <time>2018-08-01T09:42:05Z</time>
      </trkpt>
      <trkpt lat="48.70205" lon="2.07469">
        <ele>135.578</ele>
        <time>2018-08-01T09:42:08Z</time>
      </trkpt>
      <trkpt lat="48.70201" lon="2.07464">
        <ele>135.58</ele>
        <time>2018-08-01T09:42:12Z</time>
      </trkpt>
      <trkpt lat="48.70199" lon="2.07462">
        <ele>135.584</ele>
        <time>2018-08-01T09:42:15Z</time>
      </trkpt>
      <trkpt lat="48.70196" lon="2.07455">
        <ele>135.594</ele>
        <time>2018-08-01T09:42:19Z</time>
      </trkpt>
      <trkpt lat="48.70194" lon="2.07451">
        <ele>135.602</ele>
        <time>2018-08-01T09:42:22Z</time>
      </trkpt>
      <trkpt lat="48.70192" lon="2.07446">
        <ele>135.61</ele>
        <time>2018-08-01T09:42:25Z</time>
      </trkpt>
      <trkpt lat="48.70191" lon="2.07442">
        <ele>135.615</ele>
        <time>2018-08-01T09:42:27Z</time>
      </trkpt>
      <trkpt lat="48.70188" lon="2.07436">
        <ele>135.624</ele>
        <time>2018-08-01T09:42:31Z</time>
      </trkpt>
      <trkpt lat="48.70187" lon="2.07433">
        <ele>135.629</ele>
        <time>2018-08-01T09:42:34Z</time>
      </trkpt>
      <trkpt lat="48.70185" lon="2.07426">
        <ele>135.632</ele>
        <time>2018-08-01T09:42:37Z</time>
      </trkpt>
      <trkpt lat="48.70184" lon="2.07422">
        <ele>135.637</ele>
        <time>2018-08-01T09:42:40Z</time>
      </trkpt>
      <trkpt lat="48.70182" lon="2.07416">
        <ele>135.647</ele>
        <time>2018-08-01T09:42:45Z</time>
      </trkpt>
      <trkpt lat="48.70182" lon="2.07407">
        <ele>135.659</ele>
        <time>2018-08-01T09:42:49Z</time>
      </trkpt>
      <trkpt lat="48.7018" lon="2.074">
        <ele>135.68</ele>
        <time>2018-08-01T09:42:54Z</time>
      </trkpt>
      <trkpt lat="48.7018" lon="2.07391">
        <ele>135.705</ele>
        <time>2018-08-01T09:42:59Z</time>
      </trkpt>
      <trkpt lat="48.70177" lon="2.07384">
        <ele>135.735</ele>
        <time>2018-08-01T09:43:04Z</time>
      </trkpt>
      <trkpt lat="48.70176" lon="2.07376">
        <ele>135.764</ele>
        <time>2018-08-01T09:43:08Z</time>
      </trkpt>
      <trkpt lat="48.70176" lon="2.07369">
        <ele>135.82</ele>
        <time>2018-08-01T09:43:14Z</time>
      </trkpt>
      <trkpt lat="48.70176" lon="2.07361">
        <ele>135.866</ele>
        <time>2018-08-01T09:43:18Z</time>
      </trkpt>
      <trkpt lat="48.70174" lon="2.07355">
        <ele>135.904</ele>
        <time>2018-08-01T09:43:21Z</time>
      </trkpt>
      <trkpt lat="48.70173" lon="2.07351">
        <ele>135.93</ele>
        <time>2018-08-01T09:43:23Z</time>
      </trkpt>
      <trkpt lat="48.70172" lon="2.07345">
        <ele>135.984</ele>
        <time>2018-08-01T09:43:27Z</time>
      </trkpt>
      <trkpt lat="48.70169" lon="2.07338">
        <ele>136.038</ele>
        <time>2018-08-01T09:43:31Z</time>
      </trkpt>
      <trkpt lat="48.70167" lon="2.07335">
        <ele>136.077</ele>
        <time>2018-08-01T09:43:34Z</time>
      </trkpt>
      <trkpt lat="48.70163" lon="2.07328">
        <ele>136.127</ele>
        <time>2018-08-01T09:43:38Z</time>
      </trkpt>
      <trkpt lat="48.70162" lon="2.07325">
        <ele>136.154</ele>
        <time>2018-08-01T09:43:40Z</time>
      </trkpt>
      <trkpt lat="48.7016" lon="2.07317">
        <ele>136.207</ele>
        <time>2018-08-01T09:43:44Z</time>
      </trkpt>
      <trkpt lat="48.70157" lon="2.07312">
        <ele>136.261</ele>
        <time>2018-08-01T09:43:48Z</time>
      </trkpt>
      <trkpt lat="48.70157" lon="2.07304">
        <ele>136.332</ele>
        <time>2018-08-01T09:43:53Z</time>
      </trkpt>
      <trkpt lat="48.70155" lon="2.07297">
        <ele>136.407</ele>
        <time>2018-08-01T09:43:58Z</time>
      </trkpt>
      <trkpt lat="48.70154" lon="2.0729">
        <ele>136.473</ele>
        <time>2018-08-01T09:44:02Z</time>
      </trkpt>
      <trkpt lat="48.70153" lon="2.07282">
        <ele>136.564</ele>
        <time>2018-08-01T09:44:07Z</time>
      </trkpt>
      <trkpt lat="48.70151" lon="2.07277">
        <ele>136.621</ele>
        <time>2018-08-01T09:44:10Z</time>
      </trkpt>
      <trkpt lat="48.70148" lon="2.07271">
        <ele>136.715</ele>
        <time>2018-08-01T09:44:15Z</time>
      </trkpt>
      <trkpt lat="48.70146" lon="2.07263">
        <ele>136.788</ele>
        <time>2018-08-01T09:44:19Z</time>
      </trkpt>
      <trkpt lat="48.70143" lon="2.07256">
        <ele>136.861</ele>
        <time>2018-08-01T09:44:23Z</time>
      </trkpt>
      <trkpt lat="48.70142" lon="2.07247">
        <ele>136.935</ele>
        <time>2018-08-01T09:44:27Z</time>
      </trkpt>
      <trkpt lat="48.70141" lon="2.07243">
        <ele>136.99</ele>
        <time>2018-08-01T09:44:30Z</time>
      </trkpt>
      <trkpt lat="48.70138" lon="2.07236">
        <ele>137.083</ele>
        <time>2018-08-01T09:44:35Z</time>
      </trkpt>
      <trkpt lat="48.70136" lon="2.07228">
        <ele>137.157</ele>
        <time>2018-08-01T09:44:39Z</time>
      </trkpt>
      <trkpt lat="48.70133" lon="2.07222">
        <ele>137.212</ele>
        <time>2018-08-01T09:44:42Z</time>
      </trkpt>
      <trkpt lat="48.7013" lon="2.07216">
        <ele>137.286</ele>
        <time>2018-08-01T09:44:46Z</time>
      </trkpt>
      <trkpt lat="48.70129" lon="2.07213">
        <ele>137.322</ele>
        <time>2018-08-01T09:44:48Z</time>
      </trkpt>
      <trkpt lat="48.70126" lon="2.07207">
        <ele>137.41</ele>
        <time>2018-08-01T09:44:53Z</time>
      </trkpt>
      <trkpt lat="48.70123" lon="2.07201">
        <ele>137.477</ele>
        <time>2018-08-01T09:44:57Z</time>
      </trkpt>
      <trkpt lat="48.7012" lon="2.07196">
        <ele>137.554</ele>
        <time>2018-08-01T09:45:02Z</time>
      </trkpt>
      <trkpt lat="48.70118" lon="2.07188">
        <ele>137.632</ele>
        <time>2018-08-01T09:45:07Z</time>
      </trkpt>
      <trkpt lat="48.70117" lon="2.07183">
        <ele>137.679</ele>
        <time>2018-08-01T09:45:10Z</time>
      </trkpt>
      <trkpt lat="48.70113" lon="2.07176">
        <ele>137.762</ele>
        <time>2018-08-01T09:45:15Z</time>
      </trkpt>
      <trkpt lat="48.70111" lon="2.07173">
        <ele>137.814</ele>
        <time>2018-08-01T09:45:18Z</time>
      </trkpt>
      <trkpt lat="48.70109" lon="2.07166">
        <ele>137.945</ele>
        <time>2018-08-01T09:45:25Z</time>
      </trkpt>
      <trkpt lat="48.70108" lon="2.07159">
        <ele>138.022</ele>
        <time>2018-08-01T09:45:29Z</time>
      </trkpt>
      <trkpt lat="48.70108" lon="2.07152">
        <ele>138.118</ele>
        <time>2018-08-01T09:45:34Z</time>
      </trkpt>
      <trkpt lat="48.7011" lon="2.07145">
        <ele>138.194</ele>
        <time>2018-08-01T09:45:38Z</time>
      </trkpt>
      <trkpt lat="48.70112" lon="2.0714">
        <ele>138.297</ele>
        <time>2018-08-01T09:45:44Z</time>
      </trkpt>
      <trkpt lat="48.70116" lon="2.07134">
        <ele>138.378</ele>
        <time>2018-08-01T09:45:49Z</time>
      </trkpt>
      <trkpt lat="48.70117" lon="2.07126">
        <ele>138.441</ele>
        <time>2018-08-01T09:45:53Z</time>
      </trkpt>
      <trkpt lat="48.70116" lon="2.07118">
        <ele>138.515</ele>
        <time>2018-08-01T09:45:58Z</time>
      </trkpt>
      <trkpt lat="48.70116" lon="2.07111">
        <ele>138.57</ele>
        <time>2018-08-01T09:46:02Z</time>
      </trkpt>
      <trkpt lat="48.70122" lon="2.07103">
        <ele>138.643</ele>
        <time>2018-08-01T09:46:08Z</time>
      </trkpt>
      <trkpt lat="48.70124" lon="2.071">
        <ele>138.665</ele>
        <time>2018-08-01T09:46:10Z</time>
      </trkpt>
      <trkpt lat="48.70128" lon="2.07095">
        <ele>138.712</ele>
        <time>2018-08-01T09:46:14Z</time>
      </trkpt>
      <trkpt lat="48.7013" lon="2.07089">
        <ele>138.772</ele>
        <time>2018-08-01T09:46:19Z</time>
      </trkpt>
      <trkpt lat="48.70134" lon="2.07083">
        <ele>138.808</ele>
        <time>2018-08-01T09:46:22Z</time>
      </trkpt>
      <trkpt lat="48.70136" lon="2.0708">
        <ele>138.843</ele>
        <time>2018-08-01T09:46:25Z</time>
      </trkpt>
      <trkpt lat="48.70138" lon="2.07077">
        <ele>138.876</ele>
        <time>2018-08-01T09:46:28Z</time>
      </trkpt>
      <trkpt lat="48.70141" lon="2.07071">
        <ele>138.928</ele>
        <time>2018-08-01T09:46:33Z</time>
      </trkpt>
      <trkpt lat="48.70142" lon="2.07068">
        <ele>138.949</ele>
        <time>2018-08-01T09:46:35Z</time>
      </trkpt>
      <trkpt lat="48.70144" lon="2.07064">
        <ele>138.981</ele>
        <time>2018-08-01T09:46:38Z</time>
      </trkpt>
      <trkpt lat="48.70146" lon="2.0706">
        <ele>139.011</ele>
        <time>2018-08-01T09:46:41Z</time>
      </trkpt>
      <trkpt lat="48.70148" lon="2.07057">
        <ele>139.03</ele>
        <time>2018-08-01T09:46:43Z</time>
      </trkpt>
      <trkpt lat="48.70152" lon="2.07051">
        <ele>139.07</ele>
        <time>2018-08-01T09:46:47Z</time>
      </trkpt>
      <trkpt lat="48.70155" lon="2.07048">
        <ele>139.091</ele>
        <time>2018-08-01T09:46:49Z</time>
      </trkpt>
      <trkpt lat="48.70157" lon="2.07044">
        <ele>139.135</ele>
        <time>2018-08-01T09:46:53Z</time>
      </trkpt>
      <trkpt lat="48.70159" lon="2.07037">
        <ele>139.2</ele>
        <time>2018-08-01T09:46:59Z</time>
      </trkpt>
      <trkpt lat="48.70163" lon="2.07032">
        <ele>139.251</ele>
        <time>2018-08-01T09:47:04Z</time>
      </trkpt>
      <trkpt lat="48.70165" lon="2.07028">
        <ele>139.281</ele>
        <time>2018-08-01T09:47:07Z</time>
      </trkpt>
      <trkpt lat="48.70168" lon="2.07023">
        <ele>139.318</ele>
        <time>2018-08-01T09:47:11Z</time>
      </trkpt>
      <trkpt lat="48.70171" lon="2.07017">
        <ele>139.36</ele>
        <time>2018-08-01T09:47:16Z</time>
      </trkpt>
      <trkpt lat="48.70172" lon="2.07013">
        <ele>139.383</ele>
        <time>2018-08-01T09:47:19Z</time>
      </trkpt>
      <trkpt lat="48.70174" lon="2.0701">
        <ele>139.398</ele>
        <time>2018-08-01T09:47:21Z</time>
      </trkpt>
      <trkpt lat="48.70176" lon="2.07007">
        <ele>139.419</ele>
        <time>2018-08-01T09:47:24Z</time>
      </trkpt>
      <trkpt lat="48.70178" lon="2.07002">
        <ele>139.439</ele>
        <time>2018-08-01T09:47:27Z</time>
      </trkpt>
      <trkpt lat="48.70181" lon="2.06996">
        <ele>139.47</ele>
        <time>2018-08-01T09:47:31Z</time>
      </trkpt>
      <trkpt lat="48.70183" lon="2.06993">
        <ele>139.486</ele>
        <time>2018-08-01T09:47:33Z</time>
      </trkpt>
      <trkpt lat="48.70186" lon="2.06987">
        <ele>139.522</ele>
        <time>2018-08-01T09:47:38Z</time>
      </trkpt>
      <trkpt lat="48.70191" lon="2.06987">
        <ele>139.541</ele>
        <time>2018-08-01T09:47:41Z</time>
      </trkpt>
      <trkpt lat="48.70196" lon="2.06982">
        <ele>139.562</ele>
        <time>2018-08-01T09:47:44Z</time>
      </trkpt>
      <trkpt lat="48.70201" lon="2.06976">
        <ele>139.603</ele>
        <time>2018-08-01T09:47:50Z</time>
      </trkpt>
      <trkpt lat="48.70206" lon="2.06974">
        <ele>139.633</ele>
        <time>2018-08-01T09:47:55Z</time>
      </trkpt>
      <trkpt lat="48.7021" lon="2.06978">
        <ele>139.651</ele>
        <time>2018-08-01T09:47:59Z</time>
      </trkpt>
      <trkpt lat="48.70215" lon="2.06978">
        <ele>139.671</ele>
        <time>2018-08-01T09:48:05Z</time>
      </trkpt>
      <trkpt lat="48.70219" lon="2.06975">
        <ele>139.681</ele>
        <time>2018-08-01T09:48:08Z</time>
      </trkpt>
      <trkpt lat="48.70222" lon="2.06972">
        <ele>139.694</ele>
        <time>2018-08-01T09:48:12Z</time>
      </trkpt>
      <trkpt lat="48.70227" lon="2.06972">
        <ele>139.707</ele>
        <time>2018-08-01T09:48:16Z</time>
      </trkpt>
      <trkpt lat="48.70229" lon="2.06971">
        <ele>139.712</ele>
        <time>2018-08-01T09:48:18Z</time>
      </trkpt>
      <trkpt lat="48.70234" lon="2.06971">
        <ele>139.718</ele>
        <time>2018-08-01T09:48:22Z</time>
      </trkpt>
      <trkpt lat="48.70237" lon="2.06971">
        <ele>139.718</ele>
        <time>2018-08-01T09:48:24Z</time>
      </trkpt>
      <trkpt lat="48.70243" lon="2.0697">
        <ele>139.714</ele>
        <time>2018-08-01T09:48:28Z</time>
      </trkpt>
      <trkpt lat="48.70248" lon="2.06968">
        <ele>139.702</ele>
        <time>2018-08-01T09:48:33Z</time>
      </trkpt>
      <trkpt lat="48.70252" lon="2.06966">
        <ele>139.692</ele>
        <time>2018-08-01T09:48:36Z</time>
      </trkpt>
      <trkpt lat="48.70257" lon="2.06966">
        <ele>139.674</ele>
        <time>2018-08-01T09:48:40Z</time>
      </trkpt>
      <trkpt lat="48.7026" lon="2.06966">
        <ele>139.664</ele>
        <time>2018-08-01T09:48:42Z</time>
      </trkpt>
      <trkpt lat="48.70264" lon="2.06966">
        <ele>139.648</ele>
        <time>2018-08-01T09:48:45Z</time>
      </trkpt>
      <trkpt lat="48.70269" lon="2.06967">
        <ele>139.618</ele>
        <time>2018-08-01T09:48:50Z</time>
      </trkpt>
      <trkpt lat="48.70273" lon="2.06971">
        <ele>139.588</ele>
        <time>2018-08-01T09:48:55Z</time>
      </trkpt>
      <trkpt lat="48.70277" lon="2.06976">
        <ele>139.567</ele>
        <time>2018-08-01T09:48:58Z</time>
      </trkpt>
      <trkpt lat="48.70281" lon="2.06981">
        <ele>139.529</ele>
        <time>2018-08-01T09:49:03Z</time>
      </trkpt>
      <trkpt lat="48.70286" lon="2.06984">
        <ele>139.485</ele>
        <time>2018-08-01T09:49:08Z</time>
      </trkpt>
      <trkpt lat="48.70291" lon="2.06986">
        <ele>139.446</ele>
        <time>2018-08-01T09:49:12Z</time>
      </trkpt>
      <trkpt lat="48.70294" lon="2.06988">
        <ele>139.403</ele>
        <time>2018-08-01T09:49:16Z</time>
      </trkpt>
      <trkpt lat="48.70299" lon="2.0699">
        <ele>139.367</ele>
        <time>2018-08-01T09:49:19Z</time>
      </trkpt>
      <trkpt lat="48.70304" lon="2.0699">
        <ele>139.325</ele>
        <time>2018-08-01T09:49:22Z</time>
      </trkpt>
      <trkpt lat="48.7031" lon="2.06988">
        <ele>139.241</ele>
        <time>2018-08-01T09:49:27Z</time>
      </trkpt>
      <trkpt lat="48.70315" lon="2.06984">
        <ele>139.172</ele>
        <time>2018-08-01T09:49:31Z</time>
      </trkpt>
      <trkpt lat="48.70318" lon="2.06975">
        <ele>139.097</ele>
        <time>2018-08-01T09:49:35Z</time>
      </trkpt>
      <trkpt lat="48.70324" lon="2.06967">
        <ele>138.987</ele>
        <time>2018-08-01T09:49:41Z</time>
      </trkpt>
      <trkpt lat="48.70329" lon="2.06968">
        <ele>138.937</ele>
        <time>2018-08-01T09:49:44Z</time>
      </trkpt>
      <trkpt lat="48.70331" lon="2.06969">
        <ele>138.89</ele>
        <time>2018-08-01T09:49:47Z</time>
      </trkpt>
      <trkpt lat="48.70334" lon="2.0697">
        <ele>138.859</ele>
        <time>2018-08-01T09:49:49Z</time>
      </trkpt>
      <trkpt lat="48.70339" lon="2.06971">
        <ele>138.796</ele>
        <time>2018-08-01T09:49:53Z</time>
      </trkpt>
      <trkpt lat="48.70343" lon="2.06976">
        <ele>138.744</ele>
        <time>2018-08-01T09:49:56Z</time>
      </trkpt>
      <trkpt lat="48.70351" lon="2.06977">
        <ele>138.658</ele>
        <time>2018-08-01T09:50:01Z</time>
      </trkpt>
      <trkpt lat="48.70361" lon="2.06985">
        <ele>138.579</ele>
        <time>2018-08-01T09:50:06Z</time>
      </trkpt>
      <trkpt lat="48.70372" lon="2.06966">
        <ele>138.357</ele>
        <time>2018-08-01T09:50:23Z</time>
      </trkpt>
      <trkpt lat="48.70376" lon="2.06965">
        <ele>138.309</ele>
        <time>2018-08-01T09:50:28Z</time>
      </trkpt>
      <trkpt lat="48.70382" lon="2.06969">
        <ele>138.274</ele>
        <time>2018-08-01T09:50:32Z</time>
      </trkpt>
      <trkpt lat="48.70386" lon="2.0697">
        <ele>138.237</ele>
        <time>2018-08-01T09:50:37Z</time>
      </trkpt>
      <trkpt lat="48.70389" lon="2.06971">
        <ele>138.216</ele>
        <time>2018-08-01T09:50:40Z</time>
      </trkpt>
      <trkpt lat="48.70395" lon="2.0697">
        <ele>138.187</ele>
        <time>2018-08-01T09:50:45Z</time>
      </trkpt>
      <trkpt lat="48.70397" lon="2.0697">
        <ele>138.171</ele>
        <time>2018-08-01T09:50:48Z</time>
      </trkpt>
      <trkpt lat="48.704" lon="2.06969">
        <ele>138.162</ele>
        <time>2018-08-01T09:50:50Z</time>
      </trkpt>
      <trkpt lat="48.70403" lon="2.06968">
        <ele>138.148</ele>
        <time>2018-08-01T09:50:53Z</time>
      </trkpt>
      <trkpt lat="48.70408" lon="2.06968">
        <ele>138.132</ele>
        <time>2018-08-01T09:50:57Z</time>
      </trkpt>
      <trkpt lat="48.70414" lon="2.0697">
        <ele>138.116</ele>
        <time>2018-08-01T09:51:02Z</time>
      </trkpt>
      <trkpt lat="48.7042" lon="2.0697">
        <ele>138.102</ele>
        <time>2018-08-01T09:51:06Z</time>
      </trkpt>
      <trkpt lat="48.70422" lon="2.06971">
        <ele>138.096</ele>
        <time>2018-08-01T09:51:08Z</time>
      </trkpt>
      <trkpt lat="48.70427" lon="2.06973">
        <ele>138.083</ele>
        <time>2018-08-01T09:51:12Z</time>
      </trkpt>
      <trkpt lat="48.7043" lon="2.06974">
        <ele>138.071</ele>
        <time>2018-08-01T09:51:16Z</time>
      </trkpt>
      <trkpt lat="48.70436" lon="2.06979">
        <ele>138.059</ele>
        <time>2018-08-01T09:51:19Z</time>
      </trkpt>
      <trkpt lat="48.70439" lon="2.06982">
        <ele>138.047</ele>
        <time>2018-08-01T09:51:21Z</time>
      </trkpt>
      <trkpt lat="48.70445" lon="2.06982">
        <ele>138.009</ele>
        <time>2018-08-01T09:51:27Z</time>
      </trkpt>
      <trkpt lat="48.70448" lon="2.06981">
        <ele>137.99</ele>
        <time>2018-08-01T09:51:30Z</time>
      </trkpt>
      <trkpt lat="48.70453" lon="2.06982">
        <ele>137.96</ele>
        <time>2018-08-01T09:51:35Z</time>
      </trkpt>
      <trkpt lat="48.70458" lon="2.06987">
        <ele>137.945</ele>
        <time>2018-08-01T09:51:38Z</time>
      </trkpt>
      <trkpt lat="48.7046" lon="2.06994">
        <ele>137.919</ele>
        <time>2018-08-01T09:51:41Z</time>
      </trkpt>
      <trkpt lat="48.70464" lon="2.06997">
        <ele>137.884</ele>
        <time>2018-08-01T09:51:45Z</time>
      </trkpt>
      <trkpt lat="48.70469" lon="2.06998">
        <ele>137.852</ele>
        <time>2018-08-01T09:51:49Z</time>
      </trkpt>
      <trkpt lat="48.70474" lon="2.06995">
        <ele>137.796</ele>
        <time>2018-08-01T09:51:56Z</time>
      </trkpt>
      <trkpt lat="48.70477" lon="2.06992">
        <ele>137.773</ele>
        <time>2018-08-01T09:51:59Z</time>
      </trkpt>
      <trkpt lat="48.70481" lon="2.06998">
        <ele>137.736</ele>
        <time>2018-08-01T09:52:04Z</time>
      </trkpt>
      <trkpt lat="48.70484" lon="2.07004">
        <ele>137.704</ele>
        <time>2018-08-01T09:52:09Z</time>
      </trkpt>
      <trkpt lat="48.70485" lon="2.07013">
        <ele>137.664</ele>
        <time>2018-08-01T09:52:16Z</time>
      </trkpt>
      <trkpt lat="48.70488" lon="2.07019">
        <ele>137.642</ele>
        <time>2018-08-01T09:52:20Z</time>
      </trkpt>
      <trkpt lat="48.7049" lon="2.07026">
        <ele>137.621</ele>
        <time>2018-08-01T09:52:24Z</time>
      </trkpt>
      <trkpt lat="48.70494" lon="2.07032">
        <ele>137.597</ele>
        <time>2018-08-01T09:52:29Z</time>
      </trkpt>
      <trkpt lat="48.70496" lon="2.07035">
        <ele>137.587</ele>
        <time>2018-08-01T09:52:31Z</time>
      </trkpt>
      <trkpt lat="48.70497" lon="2.07038">
        <ele>137.577</ele>
        <time>2018-08-01T09:52:33Z</time>
      </trkpt>
      <trkpt lat="48.70501" lon="2.07043">
        <ele>137.562</ele>
        <time>2018-08-01T09:52:36Z</time>
      </trkpt>
      <trkpt lat="48.70504" lon="2.07048">
        <ele>137.542</ele>
        <time>2018-08-01T09:52:40Z</time>
      </trkpt>
      <trkpt lat="48.70508" lon="2.07055">
        <ele>137.528</ele>
        <time>2018-08-01T09:52:43Z</time>
      </trkpt>
      <trkpt lat="48.70511" lon="2.0706">
        <ele>137.512</ele>
        <time>2018-08-01T09:52:46Z</time>
      </trkpt>
      <trkpt lat="48.70515" lon="2.07066">
        <ele>137.488</ele>
        <time>2018-08-01T09:52:50Z</time>
      </trkpt>
      <trkpt lat="48.70518" lon="2.07074">
        <ele>137.463</ele>
        <time>2018-08-01T09:52:54Z</time>
      </trkpt>
      <trkpt lat="48.70522" lon="2.0708">
        <ele>137.444</ele>
        <time>2018-08-01T09:52:57Z</time>
      </trkpt>
      <trkpt lat="48.70525" lon="2.07085">
        <ele>137.416</ele>
        <time>2018-08-01T09:53:01Z</time>
      </trkpt>
      <trkpt lat="48.70527" lon="2.07091">
        <ele>137.395</ele>
        <time>2018-08-01T09:53:04Z</time>
      </trkpt>
      <trkpt lat="48.70531" lon="2.07097">
        <ele>137.346</ele>
        <time>2018-08-01T09:53:11Z</time>
      </trkpt>
      <trkpt lat="48.70534" lon="2.07103">
        <ele>137.321</ele>
        <time>2018-08-01T09:53:15Z</time>
      </trkpt>
      <trkpt lat="48.70536" lon="2.07108">
        <ele>137.286</ele>
        <time>2018-08-01T09:53:21Z</time>
      </trkpt>
      <trkpt lat="48.70542" lon="2.07113">
        <ele>137.257</ele>
        <time>2018-08-01T09:53:26Z</time>
      </trkpt>
      <trkpt lat="48.70546" lon="2.07118">
        <ele>137.233</ele>
        <time>2018-08-01T09:53:30Z</time>
      </trkpt>
      <trkpt lat="48.70551" lon="2.07121">
        <ele>137.208</ele>
        <time>2018-08-01T09:53:34Z</time>
      </trkpt>
      <trkpt lat="48.70556" lon="2.07125">
        <ele>137.185</ele>
        <time>2018-08-01T09:53:38Z</time>
      </trkpt>
      <trkpt lat="48.70559" lon="2.07132">
        <ele>137.164</ele>
        <time>2018-08-01T09:53:42Z</time>
      </trkpt>
      <trkpt lat="48.70563" lon="2.07136">
        <ele>137.141</ele>
        <time>2018-08-01T09:53:47Z</time>
      </trkpt>
      <trkpt lat="48.70567" lon="2.07138">
        <ele>137.116</ele>
        <time>2018-08-01T09:53:54Z</time>
      </trkpt>
      <trkpt lat="48.70571" lon="2.07142">
        <ele>137.103</ele>
        <time>2018-08-01T09:53:59Z</time>
      </trkpt>
      <trkpt lat="48.70577" lon="2.07146">
        <ele>137.089</ele>
        <time>2018-08-01T09:54:05Z</time>
      </trkpt>
      <trkpt lat="48.70579" lon="2.07148">
        <ele>137.087</ele>
        <time>2018-08-01T09:54:06Z</time>
      </trkpt>
      <trkpt lat="48.7058" lon="2.07155">
        <ele>137.081</ele>
        <time>2018-08-01T09:54:10Z</time>
      </trkpt>
      <trkpt lat="48.70582" lon="2.07162">
        <ele>137.074</ele>
        <time>2018-08-01T09:54:13Z</time>
      </trkpt>
      <trkpt lat="48.70581" lon="2.0717">
        <ele>137.065</ele>
        <time>2018-08-01T09:54:17Z</time>
      </trkpt>
      <trkpt lat="48.70586" lon="2.07176">
        <ele>137.053</ele>
        <time>2018-08-01T09:54:22Z</time>
      </trkpt>
      <trkpt lat="48.70588" lon="2.07182">
        <ele>137.045</ele>
        <time>2018-08-01T09:54:27Z</time>
      </trkpt>
      <trkpt lat="48.706" lon="2.0719">
        <ele>136.995</ele>
        <time>2018-08-01T09:54:48Z</time>
      </trkpt>
      <trkpt lat="48.70603" lon="2.07196">
        <ele>136.991</ele>
        <time>2018-08-01T09:54:51Z</time>
      </trkpt>
      <trkpt lat="48.70606" lon="2.07199">
        <ele>136.988</ele>
        <time>2018-08-01T09:54:55Z</time>
      </trkpt>
      <trkpt lat="48.70608" lon="2.07202">
        <ele>136.986</ele>
        <time>2018-08-01T09:54:58Z</time>
      </trkpt>
      <trkpt lat="48.7061" lon="2.07206">
        <ele>136.982</ele>
        <time>2018-08-01T09:55:03Z</time>
      </trkpt>
      <trkpt lat="48.70615" lon="2.07213">
        <ele>136.973</ele>
        <time>2018-08-01T09:55:07Z</time>
      </trkpt>
      <trkpt lat="48.70616" lon="2.07216">
        <ele>136.967</ele>
        <time>2018-08-01T09:55:09Z</time>
      </trkpt>
      <trkpt lat="48.70621" lon="2.0722">
        <ele>136.95</ele>
        <time>2018-08-01T09:55:17Z</time>
      </trkpt>
      <trkpt lat="48.70623" lon="2.07228">
        <ele>136.941</ele>
        <time>2018-08-01T09:55:22Z</time>
      </trkpt>
      <trkpt lat="48.70624" lon="2.07233">
        <ele>136.934</ele>
        <time>2018-08-01T09:55:26Z</time>
      </trkpt>
      <trkpt lat="48.70628" lon="2.07237">
        <ele>136.926</ele>
        <time>2018-08-01T09:55:30Z</time>
      </trkpt>
      <trkpt lat="48.7063" lon="2.07243">
        <ele>136.916</ele>
        <time>2018-08-01T09:55:35Z</time>
      </trkpt>
      <trkpt lat="48.70632" lon="2.07251">
        <ele>136.907</ele>
        <time>2018-08-01T09:55:39Z</time>
      </trkpt>
      <trkpt lat="48.70636" lon="2.07254">
        <ele>136.885</ele>
        <time>2018-08-01T09:55:47Z</time>
      </trkpt>
      <trkpt lat="48.7064" lon="2.07262">
        <ele>136.87</ele>
        <time>2018-08-01T09:55:52Z</time>
      </trkpt>
      <trkpt lat="48.70641" lon="2.07265">
        <ele>136.863</ele>
        <time>2018-08-01T09:55:54Z</time>
      </trkpt>
      <trkpt lat="48.70645" lon="2.07269">
        <ele>136.85</ele>
        <time>2018-08-01T09:55:58Z</time>
      </trkpt>
      <trkpt lat="48.70648" lon="2.07274">
        <ele>136.836</ele>
        <time>2018-08-01T09:56:02Z</time>
      </trkpt>
      <trkpt lat="48.7065" lon="2.07276">
        <ele>136.829</ele>
        <time>2018-08-01T09:56:04Z</time>
      </trkpt>
      <trkpt lat="48.70652" lon="2.07278">
        <ele>136.823</ele>
        <time>2018-08-01T09:56:06Z</time>
      </trkpt>
      <trkpt lat="48.70654" lon="2.07282">
        <ele>136.815</ele>
        <time>2018-08-01T09:56:09Z</time>
      </trkpt>
      <trkpt lat="48.70658" lon="2.07289">
        <ele>136.809</ele>
        <time>2018-08-01T09:56:13Z</time>
      </trkpt>
      <trkpt lat="48.70659" lon="2.07297">
        <ele>136.803</ele>
        <time>2018-08-01T09:56:17Z</time>
      </trkpt>
      <trkpt lat="48.7066" lon="2.07305">
        <ele>136.796</ele>
        <time>2018-08-01T09:56:22Z</time>
      </trkpt>
      <trkpt lat="48.7066" lon="2.07314">
        <ele>136.786</ele>
        <time>2018-08-01T09:56:27Z</time>
      </trkpt>
      <trkpt lat="48.7066" lon="2.07318">
        <ele>136.78</ele>
        <time>2018-08-01T09:56:29Z</time>
      </trkpt>
      <trkpt lat="48.7066" lon="2.07322">
        <ele>136.771</ele>
        <time>2018-08-01T09:56:32Z</time>
      </trkpt>
      <trkpt lat="48.70662" lon="2.07329">
        <ele>136.757</ele>
        <time>2018-08-01T09:56:37Z</time>
      </trkpt>
      <trkpt lat="48.70662" lon="2.07336">
        <ele>136.745</ele>
        <time>2018-08-01T09:56:42Z</time>
      </trkpt>
      <trkpt lat="48.70661" lon="2.07343">
        <ele>136.738</ele>
        <time>2018-08-01T09:56:45Z</time>
      </trkpt>
      <trkpt lat="48.7066" lon="2.0735">
        <ele>136.728</ele>
        <time>2018-08-01T09:56:50Z</time>
      </trkpt>
      <trkpt lat="48.70659" lon="2.07357">
        <ele>136.721</ele>
        <time>2018-08-01T09:56:54Z</time>
      </trkpt>
      <trkpt lat="48.70658" lon="2.07365">
        <ele>136.716</ele>
        <time>2018-08-01T09:56:58Z</time>
      </trkpt>
      <trkpt lat="48.70655" lon="2.0737">
        <ele>136.712</ele>
        <time>2018-08-01T09:57:03Z</time>
      </trkpt>
      <trkpt lat="48.70654" lon="2.07377">
        <ele>136.709</ele>
        <time>2018-08-01T09:57:08Z</time>
      </trkpt>
      <trkpt lat="48.70655" lon="2.07385">
        <ele>136.706</ele>
        <time>2018-08-01T09:57:15Z</time>
      </trkpt>
      <trkpt lat="48.70653" lon="2.07392">
        <ele>136.705</ele>
        <time>2018-08-01T09:57:21Z</time>
      </trkpt>
      <trkpt lat="48.70654" lon="2.074">
        <ele>136.708</ele>
        <time>2018-08-01T09:57:25Z</time>
      </trkpt>
      <trkpt lat="48.70651" lon="2.07407">
        <ele>136.713</ele>
        <time>2018-08-01T09:57:29Z</time>
      </trkpt>
      <trkpt lat="48.70649" lon="2.07414">
        <ele>136.715</ele>
        <time>2018-08-01T09:57:32Z</time>
      </trkpt>
      <trkpt lat="48.70648" lon="2.07426">
        <ele>136.724</ele>
        <time>2018-08-01T09:57:42Z</time>
      </trkpt>
      <trkpt lat="48.70644" lon="2.07432">
        <ele>136.732</ele>
        <time>2018-08-01T09:57:48Z</time>
      </trkpt>
      <trkpt lat="48.7064" lon="2.07435">
        <ele>136.737</ele>
        <time>2018-08-01T09:57:52Z</time>
      </trkpt>
      <trkpt lat="48.70637" lon="2.07442">
        <ele>136.741</ele>
        <time>2018-08-01T09:57:56Z</time>
      </trkpt>
      <trkpt lat="48.70637" lon="2.07451">
        <ele>136.744</ele>
        <time>2018-08-01T09:58:00Z</time>
      </trkpt>
      <trkpt lat="48.70637" lon="2.07454">
        <ele>136.744</ele>
        <time>2018-08-01T09:58:03Z</time>
      </trkpt>
      <trkpt lat="48.70638" lon="2.07462">
        <ele>136.739</ele>
        <time>2018-08-01T09:58:07Z</time>
      </trkpt>
      <trkpt lat="48.70641" lon="2.07468">
        <ele>136.731</ele>
        <time>2018-08-01T09:58:11Z</time>
      </trkpt>
      <trkpt lat="48.70645" lon="2.07471">
        <ele>136.721</ele>
        <time>2018-08-01T09:58:16Z</time>
      </trkpt>
      <trkpt lat="48.7065" lon="2.07474">
        <ele>136.708</ele>
        <time>2018-08-01T09:58:22Z</time>
      </trkpt>
      <trkpt lat="48.70652" lon="2.07475">
        <ele>136.707</ele>
        <time>2018-08-01T09:58:25Z</time>
      </trkpt>
      <trkpt lat="48.70656" lon="2.07478">
        <ele>136.713</ele>
        <time>2018-08-01T09:58:30Z</time>
      </trkpt>
      <trkpt lat="48.70658" lon="2.07486">
        <ele>136.714</ele>
        <time>2018-08-01T09:58:36Z</time>
      </trkpt>
      <trkpt lat="48.70659" lon="2.07493">
        <ele>136.705</ele>
        <time>2018-08-01T09:58:42Z</time>
      </trkpt>
      <trkpt lat="48.70659" lon="2.07497">
        <ele>136.698</ele>
        <time>2018-08-01T09:58:46Z</time>
      </trkpt>
      <trkpt lat="48.70658" lon="2.07505">
        <ele>136.691</ele>
        <time>2018-08-01T09:58:50Z</time>
      </trkpt>
      <trkpt lat="48.70657" lon="2.07512">
        <ele>136.674</ele>
        <time>2018-08-01T09:58:54Z</time>
      </trkpt>
      <trkpt lat="48.70655" lon="2.07519">
        <ele>136.654</ele>
        <time>2018-08-01T09:58:58Z</time>
      </trkpt>
      <trkpt lat="48.70654" lon="2.07526">
        <ele>136.634</ele>
        <time>2018-08-01T09:59:02Z</time>
      </trkpt>
      <trkpt lat="48.70653" lon="2.07535">
        <ele>136.62</ele>
        <time>2018-08-01T09:59:06Z</time>
      </trkpt>
      <trkpt lat="48.70653" lon="2.07539">
        <ele>136.612</ele>
        <time>2018-08-01T09:59:09Z</time>
      </trkpt>
      <trkpt lat="48.70652" lon="2.07546">
        <ele>136.604</ele>
        <time>2018-08-01T09:59:13Z</time>
      </trkpt>
      <trkpt lat="48.70653" lon="2.07553">
        <ele>136.596</ele>
        <time>2018-08-01T09:59:17Z</time>
      </trkpt>
      <trkpt lat="48.70652" lon="2.07562">
        <ele>136.572</ele>
        <time>2018-08-01T09:59:24Z</time>
      </trkpt>
      <trkpt lat="48.70651" lon="2.0757">
        <ele>136.561</ele>
        <time>2018-08-01T09:59:28Z</time>
      </trkpt>
      <trkpt lat="48.70652" lon="2.07578">
        <ele>136.554</ele>
        <time>2018-08-01T09:59:32Z</time>
      </trkpt>
      <trkpt lat="48.70655" lon="2.07584">
        <ele>136.544</ele>
        <time>2018-08-01T09:59:36Z</time>
      </trkpt>
      <trkpt lat="48.70659" lon="2.07589">
        <ele>136.534</ele>
        <time>2018-08-01T09:59:40Z</time>
      </trkpt>
      <trkpt lat="48.70661" lon="2.07591">
        <ele>136.53</ele>
        <time>2018-08-01T09:59:42Z</time>
      </trkpt>
      <trkpt lat="48.70664" lon="2.07595">
        <ele>136.517</ele>
        <time>2018-08-01T09:59:46Z</time>
      </trkpt>
      <trkpt lat="48.70666" lon="2.07597">
        <ele>136.509</ele>
        <time>2018-08-01T09:59:48Z</time>
      </trkpt>
      <trkpt lat="48.70668" lon="2.076">
        <ele>136.498</ele>
        <time>2018-08-01T09:59:51Z</time>
      </trkpt>
      <trkpt lat="48.70671" lon="2.07603">
        <ele>136.491</ele>
        <time>2018-08-01T09:59:54Z</time>
      </trkpt>
      <trkpt lat="48.70674" lon="2.07609">
        <ele>136.482</ele>
        <time>2018-08-01T09:59:59Z</time>
      </trkpt>
      <trkpt lat="48.70678" lon="2.07613">
        <ele>136.48</ele>
        <time>2018-08-01T10:00:03Z</time>
      </trkpt>
      <trkpt lat="48.70682" lon="2.07615">
        <ele>136.487</ele>
        <time>2018-08-01T10:00:08Z</time>
      </trkpt>
      <trkpt lat="48.70688" lon="2.07617">
        <ele>136.509</ele>
        <time>2018-08-01T10:00:13Z</time>
      </trkpt>
      <trkpt lat="48.70692" lon="2.0762">
        <ele>136.533</ele>
        <time>2018-08-01T10:00:18Z</time>
      </trkpt>
      <trkpt lat="48.70697" lon="2.07622">
        <ele>136.543</ele>
        <time>2018-08-01T10:00:21Z</time>
      </trkpt>
      <trkpt lat="48.70702" lon="2.07625">
        <ele>136.552</ele>
        <time>2018-08-01T10:00:24Z</time>
      </trkpt>
      <trkpt lat="48.70706" lon="2.0763">
        <ele>136.564</ele>
        <time>2018-08-01T10:00:29Z</time>
      </trkpt>
      <trkpt lat="48.70709" lon="2.07632">
        <ele>136.572</ele>
        <time>2018-08-01T10:00:32Z</time>
      </trkpt>
      <trkpt lat="48.70713" lon="2.07638">
        <ele>136.583</ele>
        <time>2018-08-01T10:00:36Z</time>
      </trkpt>
      <trkpt lat="48.70717" lon="2.07642">
        <ele>136.602</ele>
        <time>2018-08-01T10:00:41Z</time>
      </trkpt>
      <trkpt lat="48.70719" lon="2.07645">
        <ele>136.611</ele>
        <time>2018-08-01T10:00:43Z</time>
      </trkpt>
      <trkpt lat="48.70722" lon="2.07649">
        <ele>136.635</ele>
        <time>2018-08-01T10:00:48Z</time>
      </trkpt>
      <trkpt lat="48.70726" lon="2.07652">
        <ele>136.65</ele>
        <time>2018-08-01T10:00:51Z</time>
      </trkpt>
      <trkpt lat="48.70729" lon="2.07655">
        <ele>136.666</ele>
        <time>2018-08-01T10:00:54Z</time>
      </trkpt>
      <trkpt lat="48.70732" lon="2.07658">
        <ele>136.682</ele>
        <time>2018-08-01T10:00:57Z</time>
      </trkpt>
      <trkpt lat="48.70736" lon="2.07662">
        <ele>136.708</ele>
        <time>2018-08-01T10:01:02Z</time>
      </trkpt>
      <trkpt lat="48.70739" lon="2.07665">
        <ele>136.725</ele>
        <time>2018-08-01T10:01:05Z</time>
      </trkpt>
      <trkpt lat="48.70743" lon="2.0767">
        <ele>136.751</ele>
        <time>2018-08-01T10:01:09Z</time>
      </trkpt>
      <trkpt lat="48.70748" lon="2.07674">
        <ele>136.794</ele>
        <time>2018-08-01T10:01:14Z</time>
      </trkpt>
      <trkpt lat="48.70751" lon="2.07679">
        <ele>136.834</ele>
        <time>2018-08-01T10:01:18Z</time>
      </trkpt>
      <trkpt lat="48.70756" lon="2.07683">
        <ele>136.88</ele>
        <time>2018-08-01T10:01:22Z</time>
      </trkpt>
      <trkpt lat="48.70758" lon="2.07685">
        <ele>136.904</ele>
        <time>2018-08-01T10:01:24Z</time>
      </trkpt>
      <trkpt lat="48.7076" lon="2.07687">
        <ele>136.929</ele>
        <time>2018-08-01T10:01:26Z</time>
      </trkpt>
      <trkpt lat="48.70764" lon="2.0769">
        <ele>136.982</ele>
        <time>2018-08-01T10:01:30Z</time>
      </trkpt>
      <trkpt lat="48.70768" lon="2.07695">
        <ele>137.034</ele>
        <time>2018-08-01T10:01:34Z</time>
      </trkpt>
      <trkpt lat="48.70771" lon="2.07697">
        <ele>137.072</ele>
        <time>2018-08-01T10:01:37Z</time>
      </trkpt>
      <trkpt lat="48.70773" lon="2.077">
        <ele>137.099</ele>
        <time>2018-08-01T10:01:39Z</time>
      </trkpt>
      <trkpt lat="48.70776" lon="2.07702">
        <ele>137.141</ele>
        <time>2018-08-01T10:01:42Z</time>
      </trkpt>
      <trkpt lat="48.7078" lon="2.07706">
        <ele>137.196</ele>
        <time>2018-08-01T10:01:46Z</time>
      </trkpt>
      <trkpt lat="48.70783" lon="2.07709">
        <ele>137.224</ele>
        <time>2018-08-01T10:01:48Z</time>
      </trkpt>
      <trkpt lat="48.70787" lon="2.07715">
        <ele>137.292</ele>
        <time>2018-08-01T10:01:53Z</time>
      </trkpt>
      <trkpt lat="48.70788" lon="2.07718">
        <ele>137.319</ele>
        <time>2018-08-01T10:01:55Z</time>
      </trkpt>
      <trkpt lat="48.70792" lon="2.07723">
        <ele>137.374</ele>
        <time>2018-08-01T10:01:59Z</time>
      </trkpt>
      <trkpt lat="48.70796" lon="2.0773">
        <ele>137.427</ele>
        <time>2018-08-01T10:02:03Z</time>
      </trkpt>
      <trkpt lat="48.70798" lon="2.07735">
        <ele>137.481</ele>
        <time>2018-08-01T10:02:07Z</time>
      </trkpt>
      <trkpt lat="48.70802" lon="2.07739">
        <ele>137.538</ele>
        <time>2018-08-01T10:02:11Z</time>
      </trkpt>
      <trkpt lat="48.70804" lon="2.07741">
        <ele>137.567</ele>
        <time>2018-08-01T10:02:13Z</time>
      </trkpt>
      <trkpt lat="48.70808" lon="2.07747">
        <ele>137.639</ele>
        <time>2018-08-01T10:02:18Z</time>
      </trkpt>
      <trkpt lat="48.7081" lon="2.07753">
        <ele>137.709</ele>
        <time>2018-08-01T10:02:23Z</time>
      </trkpt>
      <trkpt lat="48.70812" lon="2.07758">
        <ele>137.736</ele>
        <time>2018-08-01T10:02:25Z</time>
      </trkpt>
      <trkpt lat="48.70814" lon="2.07763">
        <ele>137.79</ele>
        <time>2018-08-01T10:02:29Z</time>
      </trkpt>
      <trkpt lat="48.70815" lon="2.07766">
        <ele>137.817</ele>
        <time>2018-08-01T10:02:31Z</time>
      </trkpt>
      <trkpt lat="48.70819" lon="2.07771">
        <ele>137.871</ele>
        <time>2018-08-01T10:02:35Z</time>
      </trkpt>
      <trkpt lat="48.70821" lon="2.07773">
        <ele>137.899</ele>
        <time>2018-08-01T10:02:37Z</time>
      </trkpt>
      <trkpt lat="48.70824" lon="2.0778">
        <ele>137.97</ele>
        <time>2018-08-01T10:02:42Z</time>
      </trkpt>
      <trkpt lat="48.70827" lon="2.07787">
        <ele>138.043</ele>
        <time>2018-08-01T10:02:47Z</time>
      </trkpt>
      <trkpt lat="48.7083" lon="2.07792">
        <ele>138.109</ele>
        <time>2018-08-01T10:02:51Z</time>
      </trkpt>
      <trkpt lat="48.70834" lon="2.07799">
        <ele>138.182</ele>
        <time>2018-08-01T10:02:55Z</time>
      </trkpt>
      <trkpt lat="48.70838" lon="2.07802">
        <ele>138.239</ele>
        <time>2018-08-01T10:02:58Z</time>
      </trkpt>
      <trkpt lat="48.70842" lon="2.07806">
        <ele>138.317</ele>
        <time>2018-08-01T10:03:02Z</time>
      </trkpt>
      <trkpt lat="48.70843" lon="2.07809">
        <ele>138.357</ele>
        <time>2018-08-01T10:03:04Z</time>
      </trkpt>
      <trkpt lat="48.70846" lon="2.07812">
        <ele>138.417</ele>
        <time>2018-08-01T10:03:07Z</time>
      </trkpt>
      <trkpt lat="48.70849" lon="2.07817">
        <ele>138.476</ele>
        <time>2018-08-01T10:03:10Z</time>
      </trkpt>
      <trkpt lat="48.70853" lon="2.07822">
        <ele>138.575</ele>
        <time>2018-08-01T10:03:15Z</time>
      </trkpt>
      <trkpt lat="48.70856" lon="2.07825">
        <ele>138.635</ele>
        <time>2018-08-01T10:03:18Z</time>
      </trkpt>
      <trkpt lat="48.7086" lon="2.07829">
        <ele>138.715</ele>
        <time>2018-08-01T10:03:22Z</time>
      </trkpt>
      <trkpt lat="48.70862" lon="2.07832">
        <ele>138.797</ele>
        <time>2018-08-01T10:03:26Z</time>
      </trkpt>
      <trkpt lat="48.70863" lon="2.07834">
        <ele>138.839</ele>
        <time>2018-08-01T10:03:28Z</time>
      </trkpt>
      <trkpt lat="48.70866" lon="2.07837">
        <ele>138.925</ele>
        <time>2018-08-01T10:03:32Z</time>
      </trkpt>
      <trkpt lat="48.7087" lon="2.07841">
        <ele>139.036</ele>
        <time>2018-08-01T10:03:37Z</time>
      </trkpt>
      <trkpt lat="48.70872" lon="2.07844">
        <ele>139.104</ele>
        <time>2018-08-01T10:03:40Z</time>
      </trkpt>
      <trkpt lat="48.70877" lon="2.07849">
        <ele>139.222</ele>
        <time>2018-08-01T10:03:45Z</time>
      </trkpt>
      <trkpt lat="48.7088" lon="2.07854">
        <ele>139.342</ele>
        <time>2018-08-01T10:03:50Z</time>
      </trkpt>
      <trkpt lat="48.70886" lon="2.07857">
        <ele>139.439</ele>
        <time>2018-08-01T10:03:54Z</time>
      </trkpt>
      <trkpt lat="48.7089" lon="2.07862">
        <ele>139.559</ele>
        <time>2018-08-01T10:03:59Z</time>
      </trkpt>
      <trkpt lat="48.70893" lon="2.07864">
        <ele>139.679</ele>
        <time>2018-08-01T10:04:04Z</time>
      </trkpt>
      <trkpt lat="48.70897" lon="2.0787">
        <ele>139.826</ele>
        <time>2018-08-01T10:04:10Z</time>
      </trkpt>
      <trkpt lat="48.70899" lon="2.07873">
        <ele>139.901</ele>
        <time>2018-08-01T10:04:13Z</time>
      </trkpt>
      <trkpt lat="48.70904" lon="2.07877">
        <ele>140.093</ele>
        <time>2018-08-01T10:04:21Z</time>
      </trkpt>
      <trkpt lat="48.70907" lon="2.07882">
        <ele>140.247</ele>
        <time>2018-08-01T10:04:28Z</time>
      </trkpt>
      <trkpt lat="48.70909" lon="2.07885">
        <ele>140.289</ele>
        <time>2018-08-01T10:04:30Z</time>
      </trkpt>
      <trkpt lat="48.70913" lon="2.0789">
        <ele>140.371</ele>
        <time>2018-08-01T10:04:34Z</time>
      </trkpt>
      <trkpt lat="48.70916" lon="2.07897">
        <ele>140.488</ele>
        <time>2018-08-01T10:04:40Z</time>
      </trkpt>
      <trkpt lat="48.70917" lon="2.07902">
        <ele>140.581</ele>
        <time>2018-08-01T10:04:45Z</time>
      </trkpt>
      <trkpt lat="48.70919" lon="2.07907">
        <ele>140.654</ele>
        <time>2018-08-01T10:04:49Z</time>
      </trkpt>
      <trkpt lat="48.70921" lon="2.07913">
        <ele>140.751</ele>
        <time>2018-08-01T10:04:54Z</time>
      </trkpt>
      <trkpt lat="48.70922" lon="2.07916">
        <ele>140.828</ele>
        <time>2018-08-01T10:04:58Z</time>
      </trkpt>
      <trkpt lat="48.70926" lon="2.07923">
        <ele>140.908</ele>
        <time>2018-08-01T10:05:02Z</time>
      </trkpt>
      <trkpt lat="48.7093" lon="2.07928">
        <ele>140.969</ele>
        <time>2018-08-01T10:05:05Z</time>
      </trkpt>
      <trkpt lat="48.70933" lon="2.07935">
        <ele>141.073</ele>
        <time>2018-08-01T10:05:10Z</time>
      </trkpt>
      <trkpt lat="48.70935" lon="2.07942">
        <ele>141.195</ele>
        <time>2018-08-01T10:05:16Z</time>
      </trkpt>
      <trkpt lat="48.70939" lon="2.07946">
        <ele>141.255</ele>
        <time>2018-08-01T10:05:19Z</time>
      </trkpt>
      <trkpt lat="48.70945" lon="2.07903">
        <ele>141.832</ele>
        <time>2018-08-01T10:05:50Z</time>
      </trkpt>
      <trkpt lat="48.70946" lon="2.07896">
        <ele>141.872</ele>
        <time>2018-08-01T10:05:53Z</time>
      </trkpt>
      <trkpt lat="48.70947" lon="2.07923">
        <ele>142.407</ele>
        <time>2018-08-01T10:06:12Z</time>
      </trkpt>
      <trkpt lat="48.70947" lon="2.07931">
        <ele>142.603</ele>
        <time>2018-08-01T10:06:17Z</time>
      </trkpt>
      <trkpt lat="48.70948" lon="2.07938">
        <ele>142.728</ele>
        <time>2018-08-01T10:06:20Z</time>
      </trkpt>
      <trkpt lat="48.7095" lon="2.07945">
        <ele>142.899</ele>
        <time>2018-08-01T10:06:24Z</time>
      </trkpt>
      <trkpt lat="48.70951" lon="2.07952">
        <ele>143.076</ele>
        <time>2018-08-01T10:06:28Z</time>
      </trkpt>
      <trkpt lat="48.70951" lon="2.07959">
        <ele>143.26</ele>
        <time>2018-08-01T10:06:32Z</time>
      </trkpt>
      <trkpt lat="48.70951" lon="2.07967">
        <ele>143.541</ele>
        <time>2018-08-01T10:06:38Z</time>
      </trkpt>
      <trkpt lat="48.70952" lon="2.07974">
        <ele>143.787</ele>
        <time>2018-08-01T10:06:43Z</time>
      </trkpt>
      <trkpt lat="48.70952" lon="2.0798">
        <ele>143.936</ele>
        <time>2018-08-01T10:06:46Z</time>
      </trkpt>
      <trkpt lat="48.70952" lon="2.07984">
        <ele>144.034</ele>
        <time>2018-08-01T10:06:48Z</time>
      </trkpt>
      <trkpt lat="48.70952" lon="2.07988">
        <ele>144.181</ele>
        <time>2018-08-01T10:06:51Z</time>
      </trkpt>
      <trkpt lat="48.70952" lon="2.07996">
        <ele>144.442</ele>
        <time>2018-08-01T10:06:57Z</time>
      </trkpt>
      <trkpt lat="48.70954" lon="2.08003">
        <ele>144.726</ele>
        <time>2018-08-01T10:07:02Z</time>
      </trkpt>
      <trkpt lat="48.70954" lon="2.08011">
        <ele>144.986</ele>
        <time>2018-08-01T10:07:06Z</time>
      </trkpt>
      <trkpt lat="48.70955" lon="2.08016">
        <ele>145.18</ele>
        <time>2018-08-01T10:07:09Z</time>
      </trkpt>
      <trkpt lat="48.70955" lon="2.08019">
        <ele>145.308</ele>
        <time>2018-08-01T10:07:11Z</time>
      </trkpt>
      <trkpt lat="48.70954" lon="2.08028">
        <ele>145.699</ele>
        <time>2018-08-01T10:07:17Z</time>
      </trkpt>
      <trkpt lat="48.70953" lon="2.08032">
        <ele>145.83</ele>
        <time>2018-08-01T10:07:19Z</time>
      </trkpt>
      <trkpt lat="48.70954" lon="2.0804">
        <ele>146.021</ele>
        <time>2018-08-01T10:07:22Z</time>
      </trkpt>
      <trkpt lat="48.70954" lon="2.08043">
        <ele>146.146</ele>
        <time>2018-08-01T10:07:24Z</time>
      </trkpt>
      <trkpt lat="48.70953" lon="2.08051">
        <ele>146.453</ele>
        <time>2018-08-01T10:07:29Z</time>
      </trkpt>
      <trkpt lat="48.70953" lon="2.08057">
        <ele>146.704</ele>
        <time>2018-08-01T10:07:33Z</time>
      </trkpt>
      <trkpt lat="48.70953" lon="2.08062">
        <ele>146.831</ele>
        <time>2018-08-01T10:07:35Z</time>
      </trkpt>
      <trkpt lat="48.70953" lon="2.08069">
        <ele>147.086</ele>
        <time>2018-08-01T10:07:39Z</time>
      </trkpt>
      <trkpt lat="48.70953" lon="2.08077">
        <ele>147.34</ele>
        <time>2018-08-01T10:07:43Z</time>
      </trkpt>
      <trkpt lat="48.70954" lon="2.08086">
        <ele>147.597</ele>
        <time>2018-08-01T10:07:47Z</time>
      </trkpt>
      <trkpt lat="48.70955" lon="2.08091">
        <ele>147.863</ele>
        <time>2018-08-01T10:07:51Z</time>
      </trkpt>
      <trkpt lat="48.70957" lon="2.08098">
        <ele>148.128</ele>
        <time>2018-08-01T10:07:55Z</time>
      </trkpt>
      <trkpt lat="48.70955" lon="2.08104">
        <ele>148.383</ele>
        <time>2018-08-01T10:07:59Z</time>
      </trkpt>
      <trkpt lat="48.70955" lon="2.08112">
        <ele>148.63</ele>
        <time>2018-08-01T10:08:03Z</time>
      </trkpt>
      <trkpt lat="48.70955" lon="2.08116">
        <ele>148.869</ele>
        <time>2018-08-01T10:08:07Z</time>
      </trkpt>
      <trkpt lat="48.70953" lon="2.08123">
        <ele>149.283</ele>
        <time>2018-08-01T10:08:14Z</time>
      </trkpt>
      <trkpt lat="48.70952" lon="2.0813">
        <ele>149.617</ele>
        <time>2018-08-01T10:08:20Z</time>
      </trkpt>
      <trkpt lat="48.70949" lon="2.08139">
        <ele>150.024</ele>
        <time>2018-08-01T10:08:28Z</time>
      </trkpt>
      <trkpt lat="48.70948" lon="2.08146">
        <ele>150.17</ele>
        <time>2018-08-01T10:08:31Z</time>
      </trkpt>
      <trkpt lat="48.70947" lon="2.08151">
        <ele>150.314</ele>
        <time>2018-08-01T10:08:34Z</time>
      </trkpt>
      <trkpt lat="48.70945" lon="2.08157">
        <ele>150.661</ele>
        <time>2018-08-01T10:08:41Z</time>
      </trkpt>
      <trkpt lat="48.70943" lon="2.08166">
        <ele>150.823</ele>
        <time>2018-08-01T10:08:44Z</time>
      </trkpt>
      <trkpt lat="48.70942" lon="2.08173">
        <ele>151.005</ele>
        <time>2018-08-01T10:08:47Z</time>
      </trkpt>
      <trkpt lat="48.70942" lon="2.08178">
        <ele>151.137</ele>
        <time>2018-08-01T10:08:49Z</time>
      </trkpt>
      <trkpt lat="48.70942" lon="2.08183">
        <ele>151.272</ele>
        <time>2018-08-01T10:08:51Z</time>
      </trkpt>
      <trkpt lat="48.70942" lon="2.0819">
        <ele>151.475</ele>
        <time>2018-08-01T10:08:54Z</time>
      </trkpt>
      <trkpt lat="48.70943" lon="2.08198">
        <ele>151.683</ele>
        <time>2018-08-01T10:08:57Z</time>
      </trkpt>
      <trkpt lat="48.70944" lon="2.08202">
        <ele>151.904</ele>
        <time>2018-08-01T10:09:00Z</time>
      </trkpt>
      <trkpt lat="48.70945" lon="2.08209">
        <ele>152.149</ele>
        <time>2018-08-01T10:09:03Z</time>
      </trkpt>
      <trkpt lat="48.70944" lon="2.08216">
        <ele>152.664</ele>
        <time>2018-08-01T10:09:09Z</time>
      </trkpt>
      <trkpt lat="48.70945" lon="2.08224">
        <ele>153.247</ele>
        <time>2018-08-01T10:09:16Z</time>
      </trkpt>
      <trkpt lat="48.70942" lon="2.08231">
        <ele>153.732</ele>
        <time>2018-08-01T10:09:21Z</time>
      </trkpt>
      <trkpt lat="48.70941" lon="2.08239">
        <ele>154.121</ele>
        <time>2018-08-01T10:09:25Z</time>
      </trkpt>
      <trkpt lat="48.70941" lon="2.08247">
        <ele>154.628</ele>
        <time>2018-08-01T10:09:30Z</time>
      </trkpt>
      <trkpt lat="48.7094" lon="2.08256">
        <ele>155.14</ele>
        <time>2018-08-01T10:09:35Z</time>
      </trkpt>
      <trkpt lat="48.70939" lon="2.08264">
        <ele>155.557</ele>
        <time>2018-08-01T10:09:39Z</time>
      </trkpt>
      <trkpt lat="48.70939" lon="2.08268">
        <ele>155.989</ele>
        <time>2018-08-01T10:09:43Z</time>
      </trkpt>
      <trkpt lat="48.70938" lon="2.08277">
        <ele>156.534</ele>
        <time>2018-08-01T10:09:48Z</time>
      </trkpt>
      <trkpt lat="48.70936" lon="2.08284">
        <ele>157.068</ele>
        <time>2018-08-01T10:09:53Z</time>
      </trkpt>
      <trkpt lat="48.70937" lon="2.08292">
        <ele>157.487</ele>
        <time>2018-08-01T10:09:57Z</time>
      </trkpt>
      <trkpt lat="48.70938" lon="2.083">
        <ele>158.011</ele>
        <time>2018-08-01T10:10:02Z</time>
      </trkpt>
      <trkpt lat="48.70938" lon="2.08308">
        <ele>158.415</ele>
        <time>2018-08-01T10:10:06Z</time>
      </trkpt>
      <trkpt lat="48.70938" lon="2.08311">
        <ele>158.716</ele>
        <time>2018-08-01T10:10:09Z</time>
      </trkpt>
      <trkpt lat="48.70938" lon="2.0832">
        <ele>159.198</ele>
        <time>2018-08-01T10:10:14Z</time>
      </trkpt>
      <trkpt lat="48.70939" lon="2.08326">
        <ele>159.484</ele>
        <time>2018-08-01T10:10:17Z</time>
      </trkpt>
      <trkpt lat="48.7094" lon="2.08335">
        <ele>160.222</ele>
        <time>2018-08-01T10:10:25Z</time>
      </trkpt>
      <trkpt lat="48.7094" lon="2.0834">
        <ele>160.489</ele>
        <time>2018-08-01T10:10:28Z</time>
      </trkpt>
      <trkpt lat="48.7094" lon="2.08344">
        <ele>160.582</ele>
        <time>2018-08-01T10:10:29Z</time>
      </trkpt>
      <trkpt lat="48.7094" lon="2.0835">
        <ele>160.956</ele>
        <time>2018-08-01T10:10:33Z</time>
      </trkpt>
      <trkpt lat="48.70941" lon="2.08357">
        <ele>161.502</ele>
        <time>2018-08-01T10:10:39Z</time>
      </trkpt>
      <trkpt lat="48.70945" lon="2.08363">
        <ele>161.937</ele>
        <time>2018-08-01T10:10:44Z</time>
      </trkpt>
      <trkpt lat="48.70947" lon="2.0837">
        <ele>162.433</ele>
        <time>2018-08-01T10:10:50Z</time>
      </trkpt>
      <trkpt lat="48.70948" lon="2.08373">
        <ele>162.677</ele>
        <time>2018-08-01T10:10:53Z</time>
      </trkpt>
      <trkpt lat="48.70954" lon="2.08379">
        <ele>163.45</ele>
        <time>2018-08-01T10:11:01Z</time>
      </trkpt>
      <trkpt lat="48.70955" lon="2.08385">
        <ele>163.872</ele>
        <time>2018-08-01T10:11:05Z</time>
      </trkpt>
      <trkpt lat="48.70956" lon="2.08389">
        <ele>164.076</ele>
        <time>2018-08-01T10:11:07Z</time>
      </trkpt>
      <trkpt lat="48.70957" lon="2.08392">
        <ele>164.276</ele>
        <time>2018-08-01T10:11:09Z</time>
      </trkpt>
      <trkpt lat="48.70958" lon="2.08399">
        <ele>164.57</ele>
        <time>2018-08-01T10:11:12Z</time>
      </trkpt>
      <trkpt lat="48.70959" lon="2.08405">
        <ele>164.764</ele>
        <time>2018-08-01T10:11:14Z</time>
      </trkpt>
      <trkpt lat="48.70962" lon="2.08412">
        <ele>165.24</ele>
        <time>2018-08-01T10:11:19Z</time>
      </trkpt>
      <trkpt lat="48.70964" lon="2.08415">
        <ele>165.613</ele>
        <time>2018-08-01T10:11:23Z</time>
      </trkpt>
      <trkpt lat="48.70966" lon="2.08422">
        <ele>166.182</ele>
        <time>2018-08-01T10:11:30Z</time>
      </trkpt>
      <trkpt lat="48.70968" lon="2.08428">
        <ele>166.552</ele>
        <time>2018-08-01T10:11:34Z</time>
      </trkpt>
      <trkpt lat="48.70972" lon="2.08433">
        <ele>166.928</ele>
        <time>2018-08-01T10:11:38Z</time>
      </trkpt>
      <trkpt lat="48.70975" lon="2.08439">
        <ele>167.5</ele>
        <time>2018-08-01T10:11:44Z</time>
      </trkpt>
      <trkpt lat="48.70977" lon="2.08441">
        <ele>167.689</ele>
        <time>2018-08-01T10:11:46Z</time>
      </trkpt>
      <trkpt lat="48.70979" lon="2.08444">
        <ele>167.875</ele>
        <time>2018-08-01T10:11:48Z</time>
      </trkpt>
      <trkpt lat="48.70981" lon="2.08451">
        <ele>168.148</ele>
        <time>2018-08-01T10:11:51Z</time>
      </trkpt>
      <trkpt lat="48.70982" lon="2.08454">
        <ele>168.417</ele>
        <time>2018-08-01T10:11:54Z</time>
      </trkpt>
      <trkpt lat="48.70985" lon="2.0846">
        <ele>168.856</ele>
        <time>2018-08-01T10:11:59Z</time>
      </trkpt>
      <trkpt lat="48.70988" lon="2.08467">
        <ele>169.287</ele>
        <time>2018-08-01T10:12:04Z</time>
      </trkpt>
      <trkpt lat="48.70991" lon="2.08472">
        <ele>169.619</ele>
        <time>2018-08-01T10:12:08Z</time>
      </trkpt>
      <trkpt lat="48.70994" lon="2.08481">
        <ele>169.951</ele>
        <time>2018-08-01T10:12:12Z</time>
      </trkpt>
      <trkpt lat="48.70996" lon="2.08488">
        <ele>170.298</ele>
        <time>2018-08-01T10:12:16Z</time>
      </trkpt>
      <trkpt lat="48.71001" lon="2.08492">
        <ele>170.732</ele>
        <time>2018-08-01T10:12:21Z</time>
      </trkpt>
      <trkpt lat="48.71004" lon="2.08497">
        <ele>171.278</ele>
        <time>2018-08-01T10:12:27Z</time>
      </trkpt>
      <trkpt lat="48.71007" lon="2.08503">
        <ele>171.748</ele>
        <time>2018-08-01T10:12:32Z</time>
      </trkpt>
      <trkpt lat="48.71011" lon="2.08507">
        <ele>172.114</ele>
        <time>2018-08-01T10:12:36Z</time>
      </trkpt>
      <trkpt lat="48.71016" lon="2.0851">
        <ele>172.589</ele>
        <time>2018-08-01T10:12:42Z</time>
      </trkpt>
      <trkpt lat="48.70995" lon="2.0854">
        <ele>186.456</ele>
        <time>2018-08-01T10:16:54Z</time>
      </trkpt>
      <trkpt lat="48.70993" lon="2.08542">
        <ele>186.594</ele>
        <time>2018-08-01T10:16:57Z</time>
      </trkpt>
      <trkpt lat="48.7099" lon="2.08543">
        <ele>186.726</ele>
        <time>2018-08-01T10:17:00Z</time>
      </trkpt>
      <trkpt lat="48.70985" lon="2.08546">
        <ele>187.059</ele>
        <time>2018-08-01T10:17:08Z</time>
      </trkpt>
      <trkpt lat="48.70981" lon="2.08549">
        <ele>187.247</ele>
        <time>2018-08-01T10:17:13Z</time>
      </trkpt>
      <trkpt lat="48.70979" lon="2.0855">
        <ele>187.318</ele>
        <time>2018-08-01T10:17:15Z</time>
      </trkpt>
      <trkpt lat="48.70975" lon="2.08552">
        <ele>187.419</ele>
        <time>2018-08-01T10:17:18Z</time>
      </trkpt>
      <trkpt lat="48.70971" lon="2.08556">
        <ele>187.516</ele>
        <time>2018-08-01T10:17:21Z</time>
      </trkpt>
      <trkpt lat="48.70968" lon="2.08559">
        <ele>187.645</ele>
        <time>2018-08-01T10:17:27Z</time>
      </trkpt>
      <trkpt lat="48.70964" lon="2.08562">
        <ele>187.781</ele>
        <time>2018-08-01T10:17:32Z</time>
      </trkpt>
      <trkpt lat="48.70959" lon="2.08565">
        <ele>187.909</ele>
        <time>2018-08-01T10:17:37Z</time>
      </trkpt>
      <trkpt lat="48.70954" lon="2.08566">
        <ele>188.039</ele>
        <time>2018-08-01T10:17:43Z</time>
      </trkpt>
      <trkpt lat="48.7095" lon="2.08569">
        <ele>188.138</ele>
        <time>2018-08-01T10:17:49Z</time>
      </trkpt>
      <trkpt lat="48.70947" lon="2.08574">
        <ele>188.194</ele>
        <time>2018-08-01T10:17:54Z</time>
      </trkpt>
      <trkpt lat="48.70945" lon="2.08577">
        <ele>188.233</ele>
        <time>2018-08-01T10:17:57Z</time>
      </trkpt>
      <trkpt lat="48.70943" lon="2.0858">
        <ele>188.277</ele>
        <time>2018-08-01T10:18:01Z</time>
      </trkpt>
      <trkpt lat="48.70939" lon="2.08584">
        <ele>188.314</ele>
        <time>2018-08-01T10:18:05Z</time>
      </trkpt>
      <trkpt lat="48.70932" lon="2.08596">
        <ele>188.422</ele>
        <time>2018-08-01T10:18:19Z</time>
      </trkpt>
      <trkpt lat="48.70931" lon="2.08603">
        <ele>188.459</ele>
        <time>2018-08-01T10:18:25Z</time>
      </trkpt>
      <trkpt lat="48.7093" lon="2.0861">
        <ele>188.468</ele>
        <time>2018-08-01T10:18:30Z</time>
      </trkpt>
      <trkpt lat="48.70927" lon="2.08616">
        <ele>188.463</ele>
        <time>2018-08-01T10:18:34Z</time>
      </trkpt>
      <trkpt lat="48.70925" lon="2.08623">
        <ele>188.45</ele>
        <time>2018-08-01T10:18:39Z</time>
      </trkpt>
      <trkpt lat="48.70922" lon="2.08628">
        <ele>188.424</ele>
        <time>2018-08-01T10:18:45Z</time>
      </trkpt>
      <trkpt lat="48.7092" lon="2.08637">
        <ele>188.382</ele>
        <time>2018-08-01T10:18:50Z</time>
      </trkpt>
      <trkpt lat="48.70918" lon="2.08645">
        <ele>188.33</ele>
        <time>2018-08-01T10:18:55Z</time>
      </trkpt>
      <trkpt lat="48.70917" lon="2.08648">
        <ele>188.276</ele>
        <time>2018-08-01T10:18:59Z</time>
      </trkpt>
      <trkpt lat="48.70914" lon="2.08654">
        <ele>188.231</ele>
        <time>2018-08-01T10:19:02Z</time>
      </trkpt>
      <trkpt lat="48.70912" lon="2.08661">
        <ele>188.137</ele>
        <time>2018-08-01T10:19:08Z</time>
      </trkpt>
      <trkpt lat="48.70912" lon="2.08669">
        <ele>188.071</ele>
        <time>2018-08-01T10:19:12Z</time>
      </trkpt>
      <trkpt lat="48.70911" lon="2.08676">
        <ele>188.002</ele>
        <time>2018-08-01T10:19:16Z</time>
      </trkpt>
      <trkpt lat="48.70911" lon="2.08683">
        <ele>187.925</ele>
        <time>2018-08-01T10:19:20Z</time>
      </trkpt>
      <trkpt lat="48.70909" lon="2.0869">
        <ele>187.797</ele>
        <time>2018-08-01T10:19:27Z</time>
      </trkpt>
      <trkpt lat="48.70908" lon="2.08698">
        <ele>187.677</ele>
        <time>2018-08-01T10:19:32Z</time>
      </trkpt>
      <trkpt lat="48.70907" lon="2.08705">
        <ele>187.569</ele>
        <time>2018-08-01T10:19:36Z</time>
      </trkpt>
      <trkpt lat="48.70889" lon="2.08741">
        <ele>185.92</ele>
        <time>2018-08-01T10:20:21Z</time>
      </trkpt>
      <trkpt lat="48.70884" lon="2.08747">
        <ele>185.714</ele>
        <time>2018-08-01T10:20:27Z</time>
      </trkpt>
      <trkpt lat="48.70879" lon="2.08749">
        <ele>185.516</ele>
        <time>2018-08-01T10:20:32Z</time>
      </trkpt>
      <trkpt lat="48.70876" lon="2.08754">
        <ele>185.356</ele>
        <time>2018-08-01T10:20:38Z</time>
      </trkpt>
      <trkpt lat="48.70873" lon="2.08758">
        <ele>185.175</ele>
        <time>2018-08-01T10:20:43Z</time>
      </trkpt>
      <trkpt lat="48.70868" lon="2.08762">
        <ele>185.038</ele>
        <time>2018-08-01T10:20:47Z</time>
      </trkpt>
      <trkpt lat="48.70865" lon="2.08764">
        <ele>184.909</ele>
        <time>2018-08-01T10:20:51Z</time>
      </trkpt>
      <trkpt lat="48.7086" lon="2.08769">
        <ele>184.751</ele>
        <time>2018-08-01T10:20:56Z</time>
      </trkpt>
      <trkpt lat="48.70855" lon="2.08771">
        <ele>184.627</ele>
        <time>2018-08-01T10:21:00Z</time>
      </trkpt>
      <trkpt lat="48.7085" lon="2.0877">
        <ele>184.449</ele>
        <time>2018-08-01T10:21:06Z</time>
      </trkpt>
      <trkpt lat="48.70845" lon="2.08768">
        <ele>184.332</ele>
        <time>2018-08-01T10:21:10Z</time>
      </trkpt>
      <trkpt lat="48.70841" lon="2.08764">
        <ele>184.216</ele>
        <time>2018-08-01T10:21:14Z</time>
      </trkpt>
      <trkpt lat="48.70837" lon="2.08763">
        <ele>184.058</ele>
        <time>2018-08-01T10:21:19Z</time>
      </trkpt>
      <trkpt lat="48.70828" lon="2.08768">
        <ele>183.596</ele>
        <time>2018-08-01T10:21:32Z</time>
      </trkpt>
      <trkpt lat="48.70825" lon="2.08769">
        <ele>183.473</ele>
        <time>2018-08-01T10:21:35Z</time>
      </trkpt>
      <trkpt lat="48.70821" lon="2.08766">
        <ele>183.131</ele>
        <time>2018-08-01T10:21:42Z</time>
      </trkpt>
      <trkpt lat="48.70812" lon="2.08768">
        <ele>182.418</ele>
        <time>2018-08-01T10:21:55Z</time>
      </trkpt>
      <trkpt lat="48.70807" lon="2.08766">
        <ele>182.165</ele>
        <time>2018-08-01T10:21:59Z</time>
      </trkpt>
      <trkpt lat="48.70804" lon="2.0876">
        <ele>181.84</ele>
        <time>2018-08-01T10:22:04Z</time>
      </trkpt>
      <trkpt lat="48.70799" lon="2.08754">
        <ele>181.575</ele>
        <time>2018-08-01T10:22:08Z</time>
      </trkpt>
      <trkpt lat="48.70795" lon="2.0875">
        <ele>181.308</ele>
        <time>2018-08-01T10:22:12Z</time>
      </trkpt>
      <trkpt lat="48.70791" lon="2.08748">
        <ele>181.043</ele>
        <time>2018-08-01T10:22:16Z</time>
      </trkpt>
      <trkpt lat="48.70788" lon="2.08748">
        <ele>180.977</ele>
        <time>2018-08-01T10:22:17Z</time>
      </trkpt>
      <trkpt lat="48.70785" lon="2.08747">
        <ele>180.844</ele>
        <time>2018-08-01T10:22:19Z</time>
      </trkpt>
      <trkpt lat="48.70779" lon="2.08742">
        <ele>180.508</ele>
        <time>2018-08-01T10:22:24Z</time>
      </trkpt>
      <trkpt lat="48.70773" lon="2.08743">
        <ele>180.029</ele>
        <time>2018-08-01T10:22:31Z</time>
      </trkpt>
      <trkpt lat="48.70771" lon="2.08744">
        <ele>179.83</ele>
        <time>2018-08-01T10:22:34Z</time>
      </trkpt>
      <trkpt lat="48.70766" lon="2.08741">
        <ele>179.573</ele>
        <time>2018-08-01T10:22:38Z</time>
      </trkpt>
      <trkpt lat="48.7076" lon="2.08742">
        <ele>179.259</ele>
        <time>2018-08-01T10:22:43Z</time>
      </trkpt>
      <trkpt lat="48.70757" lon="2.08742">
        <ele>179.072</ele>
        <time>2018-08-01T10:22:46Z</time>
      </trkpt>
      <trkpt lat="48.70755" lon="2.08742">
        <ele>179.011</ele>
        <time>2018-08-01T10:22:47Z</time>
      </trkpt>
      <trkpt lat="48.70751" lon="2.0874">
        <ele>178.83</ele>
        <time>2018-08-01T10:22:50Z</time>
      </trkpt>
      <trkpt lat="48.70746" lon="2.08737">
        <ele>178.478</ele>
        <time>2018-08-01T10:22:56Z</time>
      </trkpt>
      <trkpt lat="48.70741" lon="2.08737">
        <ele>178.234</ele>
        <time>2018-08-01T10:23:00Z</time>
      </trkpt>
      <trkpt lat="48.70736" lon="2.0874">
        <ele>177.916</ele>
        <time>2018-08-01T10:23:05Z</time>
      </trkpt>
      <trkpt lat="48.7073" lon="2.0874">
        <ele>177.486</ele>
        <time>2018-08-01T10:23:11Z</time>
      </trkpt>
      <trkpt lat="48.70728" lon="2.0874">
        <ele>177.271</ele>
        <time>2018-08-01T10:23:14Z</time>
      </trkpt>
      <trkpt lat="48.70723" lon="2.08738">
        <ele>177.062</ele>
        <time>2018-08-01T10:23:17Z</time>
      </trkpt>
      <trkpt lat="48.70718" lon="2.08737">
        <ele>176.786</ele>
        <time>2018-08-01T10:23:21Z</time>
      </trkpt>
      <trkpt lat="48.70715" lon="2.08737">
        <ele>176.58</ele>
        <time>2018-08-01T10:23:24Z</time>
      </trkpt>
      <trkpt lat="48.70711" lon="2.08731">
        <ele>176.356</ele>
        <time>2018-08-01T10:23:27Z</time>
      </trkpt>
      <trkpt lat="48.70706" lon="2.08726">
        <ele>176.119</ele>
        <time>2018-08-01T10:23:30Z</time>
      </trkpt>
      <trkpt lat="48.70701" lon="2.08724">
        <ele>175.709</ele>
        <time>2018-08-01T10:23:35Z</time>
      </trkpt>
      <trkpt lat="48.70696" lon="2.08722">
        <ele>175.185</ele>
        <time>2018-08-01T10:23:41Z</time>
      </trkpt>
      <trkpt lat="48.70691" lon="2.0872">
        <ele>174.833</ele>
        <time>2018-08-01T10:23:45Z</time>
      </trkpt>
      <trkpt lat="48.70687" lon="2.08718">
        <ele>174.487</ele>
        <time>2018-08-01T10:23:49Z</time>
      </trkpt>
      <trkpt lat="48.70681" lon="2.08718">
        <ele>174.057</ele>
        <time>2018-08-01T10:23:54Z</time>
      </trkpt>
      <trkpt lat="48.70678" lon="2.08717">
        <ele>173.883</ele>
        <time>2018-08-01T10:23:56Z</time>
      </trkpt>
      <trkpt lat="48.70673" lon="2.08718">
        <ele>173.464</ele>
        <time>2018-08-01T10:24:01Z</time>
      </trkpt>
      <trkpt lat="48.70669" lon="2.08705">
        <ele>172.639</ele>
        <time>2018-08-01T10:24:12Z</time>
      </trkpt>
      <trkpt lat="48.70666" lon="2.08698">
        <ele>172.293</ele>
        <time>2018-08-01T10:24:16Z</time>
      </trkpt>
      <trkpt lat="48.70661" lon="2.08687">
        <ele>171.209</ele>
        <time>2018-08-01T10:24:27Z</time>
      </trkpt>
      <trkpt lat="48.70659" lon="2.0868">
        <ele>170.855</ele>
        <time>2018-08-01T10:24:30Z</time>
      </trkpt>
      <trkpt lat="48.70645" lon="2.0871">
        <ele>160.812</ele>
        <time>2018-08-01T10:26:26Z</time>
      </trkpt>
      <trkpt lat="48.70642" lon="2.08718">
        <ele>160.402</ele>
        <time>2018-08-01T10:26:33Z</time>
      </trkpt>
      <trkpt lat="48.70646" lon="2.08725">
        <ele>160.235</ele>
        <time>2018-08-01T10:26:36Z</time>
      </trkpt>
      <trkpt lat="48.70643" lon="2.08734">
        <ele>160.065</ele>
        <time>2018-08-01T10:26:39Z</time>
      </trkpt>
      <trkpt lat="48.70639" lon="2.08739">
        <ele>159.887</ele>
        <time>2018-08-01T10:26:42Z</time>
      </trkpt>
      <trkpt lat="48.70637" lon="2.08745">
        <ele>159.765</ele>
        <time>2018-08-01T10:26:44Z</time>
      </trkpt>
      <trkpt lat="48.70634" lon="2.08751">
        <ele>159.515</ele>
        <time>2018-08-01T10:26:48Z</time>
      </trkpt>
      <trkpt lat="48.70631" lon="2.08756">
        <ele>159.195</ele>
        <time>2018-08-01T10:26:53Z</time>
      </trkpt>
      <trkpt lat="48.70629" lon="2.08762">
        <ele>159.001</ele>
        <time>2018-08-01T10:26:56Z</time>
      </trkpt>
      <trkpt lat="48.70629" lon="2.08771">
        <ele>158.741</ele>
        <time>2018-08-01T10:27:00Z</time>
      </trkpt>
      <trkpt lat="48.70627" lon="2.08777">
        <ele>158.48</ele>
        <time>2018-08-01T10:27:04Z</time>
      </trkpt>
      <trkpt lat="48.70625" lon="2.08782">
        <ele>158.156</ele>
        <time>2018-08-01T10:27:09Z</time>
      </trkpt>
      <trkpt lat="48.70624" lon="2.08787">
        <ele>157.962</ele>
        <time>2018-08-01T10:27:12Z</time>
      </trkpt>
      <trkpt lat="48.70622" lon="2.08793">
        <ele>157.693</ele>
        <time>2018-08-01T10:27:16Z</time>
      </trkpt>
      <trkpt lat="48.70621" lon="2.08801">
        <ele>157.475</ele>
        <time>2018-08-01T10:27:19Z</time>
      </trkpt>
      <trkpt lat="48.7062" lon="2.0881">
        <ele>157.235</ele>
        <time>2018-08-01T10:27:22Z</time>
      </trkpt>
      <trkpt lat="48.70618" lon="2.08815">
        <ele>157.068</ele>
        <time>2018-08-01T10:27:24Z</time>
      </trkpt>
      <trkpt lat="48.70617" lon="2.0882">
        <ele>156.724</ele>
        <time>2018-08-01T10:27:28Z</time>
      </trkpt>
      <trkpt lat="48.70617" lon="2.08827">
        <ele>156.443</ele>
        <time>2018-08-01T10:27:31Z</time>
      </trkpt>
      <trkpt lat="48.70616" lon="2.08834">
        <ele>155.93</ele>
        <time>2018-08-01T10:27:36Z</time>
      </trkpt>
      <trkpt lat="48.70615" lon="2.08842">
        <ele>155.597</ele>
        <time>2018-08-01T10:27:39Z</time>
      </trkpt>
      <trkpt lat="48.70614" lon="2.08847">
        <ele>155.245</ele>
        <time>2018-08-01T10:27:42Z</time>
      </trkpt>
      <trkpt lat="48.70613" lon="2.08855">
        <ele>154.768</ele>
        <time>2018-08-01T10:27:46Z</time>
      </trkpt>
      <trkpt lat="48.70613" lon="2.08862">
        <ele>154.165</ele>
        <time>2018-08-01T10:27:51Z</time>
      </trkpt>
      <trkpt lat="48.70611" lon="2.08869">
        <ele>153.677</ele>
        <time>2018-08-01T10:27:55Z</time>
      </trkpt>
      <trkpt lat="48.7061" lon="2.08872">
        <ele>153.554</ele>
        <time>2018-08-01T10:27:56Z</time>
      </trkpt>
      <trkpt lat="48.70609" lon="2.08879">
        <ele>153.055</ele>
        <time>2018-08-01T10:28:00Z</time>
      </trkpt>
      <trkpt lat="48.70609" lon="2.08887">
        <ele>152.427</ele>
        <time>2018-08-01T10:28:05Z</time>
      </trkpt>
      <trkpt lat="48.70609" lon="2.08893">
        <ele>152.048</ele>
        <time>2018-08-01T10:28:08Z</time>
      </trkpt>
      <trkpt lat="48.70607" lon="2.08901">
        <ele>151.672</ele>
        <time>2018-08-01T10:28:11Z</time>
      </trkpt>
      <trkpt lat="48.70605" lon="2.08909">
        <ele>151.057</ele>
        <time>2018-08-01T10:28:16Z</time>
      </trkpt>
      <trkpt lat="48.70603" lon="2.08916">
        <ele>150.701</ele>
        <time>2018-08-01T10:28:19Z</time>
      </trkpt>
      <trkpt lat="48.70602" lon="2.08921">
        <ele>150.014</ele>
        <time>2018-08-01T10:28:25Z</time>
      </trkpt>
      <trkpt lat="48.70601" lon="2.08926">
        <ele>149.355</ele>
        <time>2018-08-01T10:28:32Z</time>
      </trkpt>
      <trkpt lat="48.70608" lon="2.0893">
        <ele>147.458</ele>
        <time>2018-08-01T10:28:57Z</time>
      </trkpt>
      <trkpt lat="48.70611" lon="2.08931">
        <ele>147.313</ele>
        <time>2018-08-01T10:28:59Z</time>
      </trkpt>
      <trkpt lat="48.70616" lon="2.08935">
        <ele>147.037</ele>
        <time>2018-08-01T10:29:03Z</time>
      </trkpt>
      <trkpt lat="48.7062" lon="2.08937">
        <ele>146.716</ele>
        <time>2018-08-01T10:29:08Z</time>
      </trkpt>
      <trkpt lat="48.70626" lon="2.08938">
        <ele>146.421</ele>
        <time>2018-08-01T10:29:13Z</time>
      </trkpt>
      <trkpt lat="48.70629" lon="2.08939">
        <ele>146.256</ele>
        <time>2018-08-01T10:29:16Z</time>
      </trkpt>
      <trkpt lat="48.70634" lon="2.0894">
        <ele>146.099</ele>
        <time>2018-08-01T10:29:19Z</time>
      </trkpt>
      <trkpt lat="48.70643" lon="2.0894">
        <ele>145.589</ele>
        <time>2018-08-01T10:29:31Z</time>
      </trkpt>
      <trkpt lat="48.70647" lon="2.08941">
        <ele>145.428</ele>
        <time>2018-08-01T10:29:35Z</time>
      </trkpt>
      <trkpt lat="48.70652" lon="2.08943">
        <ele>145.275</ele>
        <time>2018-08-01T10:29:39Z</time>
      </trkpt>
      <trkpt lat="48.70656" lon="2.08947">
        <ele>145.103</ele>
        <time>2018-08-01T10:29:44Z</time>
      </trkpt>
      <trkpt lat="48.70658" lon="2.0895">
        <ele>145.01</ele>
        <time>2018-08-01T10:29:47Z</time>
      </trkpt>
      <trkpt lat="48.70663" lon="2.0895">
        <ele>144.895</ele>
        <time>2018-08-01T10:29:51Z</time>
      </trkpt>
      <trkpt lat="48.70667" lon="2.08951">
        <ele>144.746</ele>
        <time>2018-08-01T10:29:57Z</time>
      </trkpt>
      <trkpt lat="48.70672" lon="2.08955">
        <ele>144.658</ele>
        <time>2018-08-01T10:30:02Z</time>
      </trkpt>
      <trkpt lat="48.70678" lon="2.08953">
        <ele>144.582</ele>
        <time>2018-08-01T10:30:07Z</time>
      </trkpt>
      <trkpt lat="48.70684" lon="2.08957">
        <ele>144.497</ele>
        <time>2018-08-01T10:30:12Z</time>
      </trkpt>
      <trkpt lat="48.70689" lon="2.08957">
        <ele>144.434</ele>
        <time>2018-08-01T10:30:17Z</time>
      </trkpt>
      <trkpt lat="48.70693" lon="2.08956">
        <ele>144.404</ele>
        <time>2018-08-01T10:30:19Z</time>
      </trkpt>
      <trkpt lat="48.70698" lon="2.08958">
        <ele>144.343</ele>
        <time>2018-08-01T10:30:24Z</time>
      </trkpt>
      <trkpt lat="48.70702" lon="2.08964">
        <ele>144.294</ele>
        <time>2018-08-01T10:30:29Z</time>
      </trkpt>
      <trkpt lat="48.70707" lon="2.08964">
        <ele>144.26</ele>
        <time>2018-08-01T10:30:33Z</time>
      </trkpt>
      <trkpt lat="48.70712" lon="2.08968">
        <ele>144.227</ele>
        <time>2018-08-01T10:30:37Z</time>
      </trkpt>
      <trkpt lat="48.70715" lon="2.08974">
        <ele>144.184</ele>
        <time>2018-08-01T10:30:42Z</time>
      </trkpt>
      <trkpt lat="48.70714" lon="2.08981">
        <ele>144.131</ele>
        <time>2018-08-01T10:30:49Z</time>
      </trkpt>
      <trkpt lat="48.70713" lon="2.08989">
        <ele>144.09</ele>
        <time>2018-08-01T10:30:55Z</time>
      </trkpt>
      <trkpt lat="48.70712" lon="2.08994">
        <ele>144.07</ele>
        <time>2018-08-01T10:30:58Z</time>
      </trkpt>
      <trkpt lat="48.70711" lon="2.09001">
        <ele>144.048</ele>
        <time>2018-08-01T10:31:03Z</time>
      </trkpt>
      <trkpt lat="48.70709" lon="2.09008">
        <ele>144.022</ele>
        <time>2018-08-01T10:31:07Z</time>
      </trkpt>
      <trkpt lat="48.70707" lon="2.09011">
        <ele>144.006</ele>
        <time>2018-08-01T10:31:10Z</time>
      </trkpt>
      <trkpt lat="48.70706" lon="2.09018">
        <ele>143.984</ele>
        <time>2018-08-01T10:31:15Z</time>
      </trkpt>
      <trkpt lat="48.70705" lon="2.09026">
        <ele>143.963</ele>
        <time>2018-08-01T10:31:21Z</time>
      </trkpt>
      <trkpt lat="48.70702" lon="2.09033">
        <ele>143.956</ele>
        <time>2018-08-01T10:31:23Z</time>
      </trkpt>
      <trkpt lat="48.70703" lon="2.0904">
        <ele>143.943</ele>
        <time>2018-08-01T10:31:30Z</time>
      </trkpt>
      <trkpt lat="48.70704" lon="2.09046">
        <ele>143.94</ele>
        <time>2018-08-01T10:31:33Z</time>
      </trkpt>
      <trkpt lat="48.70704" lon="2.09051">
        <ele>143.939</ele>
        <time>2018-08-01T10:31:36Z</time>
      </trkpt>
      <trkpt lat="48.70702" lon="2.09057">
        <ele>143.94</ele>
        <time>2018-08-01T10:31:40Z</time>
      </trkpt>
      <trkpt lat="48.70701" lon="2.09062">
        <ele>143.941</ele>
        <time>2018-08-01T10:31:42Z</time>
      </trkpt>
      <trkpt lat="48.70698" lon="2.0907">
        <ele>143.95</ele>
        <time>2018-08-01T10:31:47Z</time>
      </trkpt>
      <trkpt lat="48.70696" lon="2.09078">
        <ele>143.96</ele>
        <time>2018-08-01T10:31:51Z</time>
      </trkpt>
      <trkpt lat="48.70696" lon="2.09082">
        <ele>143.97</ele>
        <time>2018-08-01T10:31:54Z</time>
      </trkpt>
      <trkpt lat="48.70695" lon="2.09086">
        <ele>143.976</ele>
        <time>2018-08-01T10:31:56Z</time>
      </trkpt>
      <trkpt lat="48.70692" lon="2.09092">
        <ele>143.997</ele>
        <time>2018-08-01T10:32:01Z</time>
      </trkpt>
      <trkpt lat="48.70691" lon="2.09099">
        <ele>144.029</ele>
        <time>2018-08-01T10:32:07Z</time>
      </trkpt>
      <trkpt lat="48.7069" lon="2.09104">
        <ele>144.038</ele>
        <time>2018-08-01T10:32:09Z</time>
      </trkpt>
      <trkpt lat="48.70689" lon="2.09107">
        <ele>144.047</ele>
        <time>2018-08-01T10:32:11Z</time>
      </trkpt>
      <trkpt lat="48.70688" lon="2.09112">
        <ele>144.055</ele>
        <time>2018-08-01T10:32:13Z</time>
      </trkpt>
      <trkpt lat="48.70685" lon="2.09119">
        <ele>144.07</ele>
        <time>2018-08-01T10:32:16Z</time>
      </trkpt>
      <trkpt lat="48.70684" lon="2.09123">
        <ele>144.079</ele>
        <time>2018-08-01T10:32:18Z</time>
      </trkpt>
      <trkpt lat="48.70682" lon="2.09128">
        <ele>144.097</ele>
        <time>2018-08-01T10:32:22Z</time>
      </trkpt>
      <trkpt lat="48.70683" lon="2.09136">
        <ele>144.106</ele>
        <time>2018-08-01T10:32:26Z</time>
      </trkpt>
      <trkpt lat="48.70682" lon="2.09143">
        <ele>144.116</ele>
        <time>2018-08-01T10:32:31Z</time>
      </trkpt>
      <trkpt lat="48.70683" lon="2.09151">
        <ele>144.131</ele>
        <time>2018-08-01T10:32:36Z</time>
      </trkpt>
      <trkpt lat="48.70684" lon="2.09158">
        <ele>144.137</ele>
        <time>2018-08-01T10:32:39Z</time>
      </trkpt>
      <trkpt lat="48.70683" lon="2.09165">
        <ele>144.145</ele>
        <time>2018-08-01T10:32:45Z</time>
      </trkpt>
      <trkpt lat="48.70683" lon="2.09168">
        <ele>144.148</ele>
        <time>2018-08-01T10:32:47Z</time>
      </trkpt>
      <trkpt lat="48.70681" lon="2.0918">
        <ele>144.155</ele>
        <time>2018-08-01T10:32:53Z</time>
      </trkpt>
      <trkpt lat="48.70679" lon="2.09188">
        <ele>144.164</ele>
        <time>2018-08-01T10:32:58Z</time>
      </trkpt>
      <trkpt lat="48.70678" lon="2.09195">
        <ele>144.174</ele>
        <time>2018-08-01T10:33:02Z</time>
      </trkpt>
      <trkpt lat="48.70677" lon="2.09203">
        <ele>144.184</ele>
        <time>2018-08-01T10:33:08Z</time>
      </trkpt>
      <trkpt lat="48.70676" lon="2.09209">
        <ele>144.185</ele>
        <time>2018-08-01T10:33:11Z</time>
      </trkpt>
      <trkpt lat="48.70674" lon="2.09216">
        <ele>144.181</ele>
        <time>2018-08-01T10:33:16Z</time>
      </trkpt>
      <trkpt lat="48.70673" lon="2.09225">
        <ele>144.181</ele>
        <time>2018-08-01T10:33:20Z</time>
      </trkpt>
      <trkpt lat="48.70671" lon="2.09232">
        <ele>144.183</ele>
        <time>2018-08-01T10:33:24Z</time>
      </trkpt>
      <trkpt lat="48.7067" lon="2.09239">
        <ele>144.189</ele>
        <time>2018-08-01T10:33:28Z</time>
      </trkpt>
      <trkpt lat="48.70669" lon="2.09243">
        <ele>144.193</ele>
        <time>2018-08-01T10:33:30Z</time>
      </trkpt>
      <trkpt lat="48.70667" lon="2.0925">
        <ele>144.202</ele>
        <time>2018-08-01T10:33:36Z</time>
      </trkpt>
      <trkpt lat="48.70666" lon="2.09256">
        <ele>144.205</ele>
        <time>2018-08-01T10:33:40Z</time>
      </trkpt>
      <trkpt lat="48.70665" lon="2.09266">
        <ele>144.211</ele>
        <time>2018-08-01T10:33:45Z</time>
      </trkpt>
      <trkpt lat="48.70662" lon="2.09271">
        <ele>144.218</ele>
        <time>2018-08-01T10:33:50Z</time>
      </trkpt>
      <trkpt lat="48.70661" lon="2.09279">
        <ele>144.228</ele>
        <time>2018-08-01T10:33:55Z</time>
      </trkpt>
      <trkpt lat="48.7066" lon="2.09286">
        <ele>144.238</ele>
        <time>2018-08-01T10:33:59Z</time>
      </trkpt>
      <trkpt lat="48.70658" lon="2.09293">
        <ele>144.246</ele>
        <time>2018-08-01T10:34:04Z</time>
      </trkpt>
      <trkpt lat="48.70656" lon="2.093">
        <ele>144.256</ele>
        <time>2018-08-01T10:34:09Z</time>
      </trkpt>
      <trkpt lat="48.70657" lon="2.09307">
        <ele>144.263</ele>
        <time>2018-08-01T10:34:12Z</time>
      </trkpt>
      <trkpt lat="48.70656" lon="2.09316">
        <ele>144.27</ele>
        <time>2018-08-01T10:34:16Z</time>
      </trkpt>
      <trkpt lat="48.70656" lon="2.09319">
        <ele>144.274</ele>
        <time>2018-08-01T10:34:18Z</time>
      </trkpt>
      <trkpt lat="48.70655" lon="2.09323">
        <ele>144.277</ele>
        <time>2018-08-01T10:34:20Z</time>
      </trkpt>
      <trkpt lat="48.70652" lon="2.0933">
        <ele>144.283</ele>
        <time>2018-08-01T10:34:23Z</time>
      </trkpt>
      <trkpt lat="48.7065" lon="2.09338">
        <ele>144.293</ele>
        <time>2018-08-01T10:34:27Z</time>
      </trkpt>
      <trkpt lat="48.70648" lon="2.09344">
        <ele>144.299</ele>
        <time>2018-08-01T10:34:30Z</time>
      </trkpt>
      <trkpt lat="48.70647" lon="2.09348">
        <ele>144.308</ele>
        <time>2018-08-01T10:34:33Z</time>
      </trkpt>
      <trkpt lat="48.70645" lon="2.09354">
        <ele>144.319</ele>
        <time>2018-08-01T10:34:36Z</time>
      </trkpt>
      <trkpt lat="48.70643" lon="2.0936">
        <ele>144.329</ele>
        <time>2018-08-01T10:34:39Z</time>
      </trkpt>
      <trkpt lat="48.70643" lon="2.09367">
        <ele>144.347</ele>
        <time>2018-08-01T10:34:43Z</time>
      </trkpt>
      <trkpt lat="48.70642" lon="2.09372">
        <ele>144.36</ele>
        <time>2018-08-01T10:34:46Z</time>
      </trkpt>
      <trkpt lat="48.7064" lon="2.0938">
        <ele>144.382</ele>
        <time>2018-08-01T10:34:51Z</time>
      </trkpt>
      <trkpt lat="48.7064" lon="2.09389">
        <ele>144.414</ele>
        <time>2018-08-01T10:34:57Z</time>
      </trkpt>
      <trkpt lat="48.70642" lon="2.09397">
        <ele>144.439</ele>
        <time>2018-08-01T10:35:01Z</time>
      </trkpt>
      <trkpt lat="48.70643" lon="2.09401">
        <ele>144.452</ele>
        <time>2018-08-01T10:35:03Z</time>
      </trkpt>
      <trkpt lat="48.70645" lon="2.09409">
        <ele>144.475</ele>
        <time>2018-08-01T10:35:06Z</time>
      </trkpt>
      <trkpt lat="48.70646" lon="2.09418">
        <ele>144.52</ele>
        <time>2018-08-01T10:35:12Z</time>
      </trkpt>
      <trkpt lat="48.70647" lon="2.09425">
        <ele>144.568</ele>
        <time>2018-08-01T10:35:18Z</time>
      </trkpt>
      <trkpt lat="48.70648" lon="2.09428">
        <ele>144.586</ele>
        <time>2018-08-01T10:35:20Z</time>
      </trkpt>
      <trkpt lat="48.70652" lon="2.09434">
        <ele>144.625</ele>
        <time>2018-08-01T10:35:24Z</time>
      </trkpt>
      <trkpt lat="48.70654" lon="2.09442">
        <ele>144.667</ele>
        <time>2018-08-01T10:35:28Z</time>
      </trkpt>
      <trkpt lat="48.70655" lon="2.09447">
        <ele>144.697</ele>
        <time>2018-08-01T10:35:31Z</time>
      </trkpt>
      <trkpt lat="48.70657" lon="2.09456">
        <ele>144.746</ele>
        <time>2018-08-01T10:35:36Z</time>
      </trkpt>
      <trkpt lat="48.70657" lon="2.09463">
        <ele>144.78</ele>
        <time>2018-08-01T10:35:40Z</time>
      </trkpt>
      <trkpt lat="48.70657" lon="2.09467">
        <ele>144.812</ele>
        <time>2018-08-01T10:35:43Z</time>
      </trkpt>
      <trkpt lat="48.70658" lon="2.09473">
        <ele>144.844</ele>
        <time>2018-08-01T10:35:46Z</time>
      </trkpt>
      <trkpt lat="48.70658" lon="2.09481">
        <ele>144.872</ele>
        <time>2018-08-01T10:35:49Z</time>
      </trkpt>
      <trkpt lat="48.70658" lon="2.09484">
        <ele>144.889</ele>
        <time>2018-08-01T10:35:51Z</time>
      </trkpt>
      <trkpt lat="48.70658" lon="2.09491">
        <ele>144.937</ele>
        <time>2018-08-01T10:35:57Z</time>
      </trkpt>
      <trkpt lat="48.70658" lon="2.09498">
        <ele>144.964</ele>
        <time>2018-08-01T10:36:00Z</time>
      </trkpt>
      <trkpt lat="48.70657" lon="2.09505">
        <ele>144.992</ele>
        <time>2018-08-01T10:36:03Z</time>
      </trkpt>
      <trkpt lat="48.70653" lon="2.0951">
        <ele>145.025</ele>
        <time>2018-08-01T10:36:07Z</time>
      </trkpt>
      <trkpt lat="48.70651" lon="2.09518">
        <ele>145.066</ele>
        <time>2018-08-01T10:36:12Z</time>
      </trkpt>
      <trkpt lat="48.70652" lon="2.09524">
        <ele>145.1</ele>
        <time>2018-08-01T10:36:17Z</time>
      </trkpt>
      <trkpt lat="48.7065" lon="2.09532">
        <ele>145.123</ele>
        <time>2018-08-01T10:36:21Z</time>
      </trkpt>
      <trkpt lat="48.70648" lon="2.09541">
        <ele>145.143</ele>
        <time>2018-08-01T10:36:25Z</time>
      </trkpt>
      <trkpt lat="48.70644" lon="2.09547">
        <ele>145.159</ele>
        <time>2018-08-01T10:36:29Z</time>
      </trkpt>
      <trkpt lat="48.70642" lon="2.0955">
        <ele>145.162</ele>
        <time>2018-08-01T10:36:32Z</time>
      </trkpt>
      <trkpt lat="48.70639" lon="2.09557">
        <ele>145.164</ele>
        <time>2018-08-01T10:36:37Z</time>
      </trkpt>
      <trkpt lat="48.70637" lon="2.09562">
        <ele>145.166</ele>
        <time>2018-08-01T10:36:41Z</time>
      </trkpt>
      <trkpt lat="48.70633" lon="2.09568">
        <ele>145.168</ele>
        <time>2018-08-01T10:36:45Z</time>
      </trkpt>
      <trkpt lat="48.70631" lon="2.09575">
        <ele>145.173</ele>
        <time>2018-08-01T10:36:48Z</time>
      </trkpt>
      <trkpt lat="48.70629" lon="2.09581">
        <ele>145.188</ele>
        <time>2018-08-01T10:36:54Z</time>
      </trkpt>
      <trkpt lat="48.70627" lon="2.09589">
        <ele>145.197</ele>
        <time>2018-08-01T10:36:58Z</time>
      </trkpt>
      <trkpt lat="48.70625" lon="2.09594">
        <ele>145.213</ele>
        <time>2018-08-01T10:37:03Z</time>
      </trkpt>
      <trkpt lat="48.70623" lon="2.096">
        <ele>145.227</ele>
        <time>2018-08-01T10:37:07Z</time>
      </trkpt>
      <trkpt lat="48.70622" lon="2.09607">
        <ele>145.243</ele>
        <time>2018-08-01T10:37:11Z</time>
      </trkpt>
      <trkpt lat="48.70622" lon="2.09616">
        <ele>145.259</ele>
        <time>2018-08-01T10:37:15Z</time>
      </trkpt>
      <trkpt lat="48.70621" lon="2.09623">
        <ele>145.273</ele>
        <time>2018-08-01T10:37:19Z</time>
      </trkpt>
      <trkpt lat="48.70618" lon="2.09629">
        <ele>145.293</ele>
        <time>2018-08-01T10:37:25Z</time>
      </trkpt>
      <trkpt lat="48.70617" lon="2.09637">
        <ele>145.312</ele>
        <time>2018-08-01T10:37:31Z</time>
      </trkpt>
      <trkpt lat="48.70615" lon="2.09645">
        <ele>145.327</ele>
        <time>2018-08-01T10:37:36Z</time>
      </trkpt>
      <trkpt lat="48.70613" lon="2.0965">
        <ele>145.334</ele>
        <time>2018-08-01T10:37:40Z</time>
      </trkpt>
      <trkpt lat="48.70611" lon="2.09656">
        <ele>145.342</ele>
        <time>2018-08-01T10:37:44Z</time>
      </trkpt>
      <trkpt lat="48.70609" lon="2.09663">
        <ele>145.351</ele>
        <time>2018-08-01T10:37:48Z</time>
      </trkpt>
      <trkpt lat="48.70608" lon="2.0967">
        <ele>145.36</ele>
        <time>2018-08-01T10:37:53Z</time>
      </trkpt>
      <trkpt lat="48.70606" lon="2.09676">
        <ele>145.36</ele>
        <time>2018-08-01T10:37:56Z</time>
      </trkpt>
      <trkpt lat="48.70606" lon="2.09684">
        <ele>145.362</ele>
        <time>2018-08-01T10:38:01Z</time>
      </trkpt>
      <trkpt lat="48.70607" lon="2.09693">
        <ele>145.362</ele>
        <time>2018-08-01T10:38:04Z</time>
      </trkpt>
      <trkpt lat="48.70603" lon="2.09698">
        <ele>145.36</ele>
        <time>2018-08-01T10:38:08Z</time>
      </trkpt>
      <trkpt lat="48.70601" lon="2.09704">
        <ele>145.359</ele>
        <time>2018-08-01T10:38:11Z</time>
      </trkpt>
      <trkpt lat="48.70599" lon="2.09709">
        <ele>145.36</ele>
        <time>2018-08-01T10:38:15Z</time>
      </trkpt>
      <trkpt lat="48.70598" lon="2.09717">
        <ele>145.365</ele>
        <time>2018-08-01T10:38:19Z</time>
      </trkpt>
      <trkpt lat="48.70597" lon="2.09723">
        <ele>145.371</ele>
        <time>2018-08-01T10:38:23Z</time>
      </trkpt>
      <trkpt lat="48.70596" lon="2.09732">
        <ele>145.374</ele>
        <time>2018-08-01T10:38:28Z</time>
      </trkpt>
      <trkpt lat="48.70596" lon="2.09736">
        <ele>145.376</ele>
        <time>2018-08-01T10:38:30Z</time>
      </trkpt>
      <trkpt lat="48.70597" lon="2.09745">
        <ele>145.376</ele>
        <time>2018-08-01T10:38:35Z</time>
      </trkpt>
      <trkpt lat="48.70596" lon="2.09752">
        <ele>145.374</ele>
        <time>2018-08-01T10:38:40Z</time>
      </trkpt>
      <trkpt lat="48.70595" lon="2.09757">
        <ele>145.375</ele>
        <time>2018-08-01T10:38:43Z</time>
      </trkpt>
      <trkpt lat="48.70594" lon="2.0976">
        <ele>145.375</ele>
        <time>2018-08-01T10:38:45Z</time>
      </trkpt>
      <trkpt lat="48.70592" lon="2.09767">
        <ele>145.374</ele>
        <time>2018-08-01T10:38:48Z</time>
      </trkpt>
      <trkpt lat="48.70592" lon="2.09774">
        <ele>145.371</ele>
        <time>2018-08-01T10:38:52Z</time>
      </trkpt>
      <trkpt lat="48.7059" lon="2.09782">
        <ele>145.366</ele>
        <time>2018-08-01T10:38:57Z</time>
      </trkpt>
      <trkpt lat="48.70589" lon="2.09788">
        <ele>145.363</ele>
        <time>2018-08-01T10:39:01Z</time>
      </trkpt>
      <trkpt lat="48.7059" lon="2.09796">
        <ele>145.364</ele>
        <time>2018-08-01T10:39:05Z</time>
      </trkpt>
      <trkpt lat="48.7059" lon="2.09801">
        <ele>145.369</ele>
        <time>2018-08-01T10:39:08Z</time>
      </trkpt>
      <trkpt lat="48.70589" lon="2.09808">
        <ele>145.373</ele>
        <time>2018-08-01T10:39:11Z</time>
      </trkpt>
      <trkpt lat="48.70587" lon="2.09816">
        <ele>145.383</ele>
        <time>2018-08-01T10:39:15Z</time>
      </trkpt>
      <trkpt lat="48.70588" lon="2.09824">
        <ele>145.391</ele>
        <time>2018-08-01T10:39:19Z</time>
      </trkpt>
      <trkpt lat="48.70588" lon="2.09828">
        <ele>145.394</ele>
        <time>2018-08-01T10:39:21Z</time>
      </trkpt>
      <trkpt lat="48.70587" lon="2.09835">
        <ele>145.404</ele>
        <time>2018-08-01T10:39:26Z</time>
      </trkpt>
      <trkpt lat="48.70587" lon="2.09843">
        <ele>145.41</ele>
        <time>2018-08-01T10:39:31Z</time>
      </trkpt>
      <trkpt lat="48.70586" lon="2.09852">
        <ele>145.411</ele>
        <time>2018-08-01T10:39:35Z</time>
      </trkpt>
      <trkpt lat="48.70586" lon="2.0986">
        <ele>145.411</ele>
        <time>2018-08-01T10:39:39Z</time>
      </trkpt>
      <trkpt lat="48.70584" lon="2.09868">
        <ele>145.408</ele>
        <time>2018-08-01T10:39:42Z</time>
      </trkpt>
      <trkpt lat="48.70583" lon="2.09875">
        <ele>145.404</ele>
        <time>2018-08-01T10:39:45Z</time>
      </trkpt>
      <trkpt lat="48.7058" lon="2.09881">
        <ele>145.396</ele>
        <time>2018-08-01T10:39:51Z</time>
      </trkpt>
      <trkpt lat="48.70579" lon="2.09889">
        <ele>145.393</ele>
        <time>2018-08-01T10:39:55Z</time>
      </trkpt>
      <trkpt lat="48.70578" lon="2.09896">
        <ele>145.392</ele>
        <time>2018-08-01T10:39:59Z</time>
      </trkpt>
      <trkpt lat="48.70578" lon="2.09903">
        <ele>145.392</ele>
        <time>2018-08-01T10:40:02Z</time>
      </trkpt>
      <trkpt lat="48.70576" lon="2.0991">
        <ele>145.392</ele>
        <time>2018-08-01T10:40:07Z</time>
      </trkpt>
      <trkpt lat="48.70575" lon="2.09914">
        <ele>145.394</ele>
        <time>2018-08-01T10:40:10Z</time>
      </trkpt>
      <trkpt lat="48.70575" lon="2.09922">
        <ele>145.401</ele>
        <time>2018-08-01T10:40:17Z</time>
      </trkpt>
      <trkpt lat="48.70574" lon="2.09926">
        <ele>145.402</ele>
        <time>2018-08-01T10:40:19Z</time>
      </trkpt>
      <trkpt lat="48.70573" lon="2.09933">
        <ele>145.402</ele>
        <time>2018-08-01T10:40:23Z</time>
      </trkpt>
      <trkpt lat="48.7057" lon="2.09939">
        <ele>145.401</ele>
        <time>2018-08-01T10:40:26Z</time>
      </trkpt>
      <trkpt lat="48.7057" lon="2.09946">
        <ele>145.402</ele>
        <time>2018-08-01T10:40:30Z</time>
      </trkpt>
      <trkpt lat="48.7057" lon="2.09954">
        <ele>145.403</ele>
        <time>2018-08-01T10:40:34Z</time>
      </trkpt>
      <trkpt lat="48.70569" lon="2.09961">
        <ele>145.404</ele>
        <time>2018-08-01T10:40:39Z</time>
      </trkpt>
      <trkpt lat="48.70567" lon="2.09969">
        <ele>145.396</ele>
        <time>2018-08-01T10:40:43Z</time>
      </trkpt>
      <trkpt lat="48.70566" lon="2.09975">
        <ele>145.391</ele>
        <time>2018-08-01T10:40:47Z</time>
      </trkpt>
      <trkpt lat="48.70564" lon="2.09982">
        <ele>145.377</ele>
        <time>2018-08-01T10:40:52Z</time>
      </trkpt>
      <trkpt lat="48.70562" lon="2.09989">
        <ele>145.355</ele>
        <time>2018-08-01T10:40:59Z</time>
      </trkpt>
      <trkpt lat="48.70559" lon="2.09997">
        <ele>145.338</ele>
        <time>2018-08-01T10:41:03Z</time>
      </trkpt>
      <trkpt lat="48.70558" lon="2.10005">
        <ele>145.314</ele>
        <time>2018-08-01T10:41:07Z</time>
      </trkpt>
      <trkpt lat="48.70557" lon="2.10011">
        <ele>145.295</ele>
        <time>2018-08-01T10:41:10Z</time>
      </trkpt>
      <trkpt lat="48.70554" lon="2.10022">
        <ele>145.263</ele>
        <time>2018-08-01T10:41:15Z</time>
      </trkpt>
      <trkpt lat="48.70552" lon="2.10029">
        <ele>145.234</ele>
        <time>2018-08-01T10:41:20Z</time>
      </trkpt>
      <trkpt lat="48.70551" lon="2.10036">
        <ele>145.216</ele>
        <time>2018-08-01T10:41:24Z</time>
      </trkpt>
      <trkpt lat="48.70551" lon="2.10043">
        <ele>145.196</ele>
        <time>2018-08-01T10:41:28Z</time>
      </trkpt>
      <trkpt lat="48.70551" lon="2.10051">
        <ele>145.175</ele>
        <time>2018-08-01T10:41:32Z</time>
      </trkpt>
      <trkpt lat="48.70553" lon="2.1006">
        <ele>145.15</ele>
        <time>2018-08-01T10:41:37Z</time>
      </trkpt>
      <trkpt lat="48.70555" lon="2.10066">
        <ele>145.136</ele>
        <time>2018-08-01T10:41:40Z</time>
      </trkpt>
      <trkpt lat="48.70556" lon="2.10075">
        <ele>145.116</ele>
        <time>2018-08-01T10:41:44Z</time>
      </trkpt>
      <trkpt lat="48.70556" lon="2.1008">
        <ele>145.104</ele>
        <time>2018-08-01T10:41:47Z</time>
      </trkpt>
      <trkpt lat="48.70556" lon="2.10087">
        <ele>145.091</ele>
        <time>2018-08-01T10:41:50Z</time>
      </trkpt>
      <trkpt lat="48.70555" lon="2.10095">
        <ele>145.078</ele>
        <time>2018-08-01T10:41:53Z</time>
      </trkpt>
      <trkpt lat="48.70554" lon="2.10102">
        <ele>145.059</ele>
        <time>2018-08-01T10:41:57Z</time>
      </trkpt>
      <trkpt lat="48.70553" lon="2.10106">
        <ele>145.051</ele>
        <time>2018-08-01T10:41:59Z</time>
      </trkpt>
      <trkpt lat="48.70553" lon="2.1011">
        <ele>145.038</ele>
        <time>2018-08-01T10:42:02Z</time>
      </trkpt>
      <trkpt lat="48.70549" lon="2.10116">
        <ele>145.007</ele>
        <time>2018-08-01T10:42:08Z</time>
      </trkpt>
      <trkpt lat="48.70547" lon="2.10123">
        <ele>144.968</ele>
        <time>2018-08-01T10:42:13Z</time>
      </trkpt>
      <trkpt lat="48.70547" lon="2.10131">
        <ele>144.926</ele>
        <time>2018-08-01T10:42:18Z</time>
      </trkpt>
      <trkpt lat="48.70544" lon="2.10139">
        <ele>144.892</ele>
        <time>2018-08-01T10:42:22Z</time>
      </trkpt>
      <trkpt lat="48.70542" lon="2.10145">
        <ele>144.869</ele>
        <time>2018-08-01T10:42:25Z</time>
      </trkpt>
      <trkpt lat="48.70541" lon="2.10149">
        <ele>144.855</ele>
        <time>2018-08-01T10:42:27Z</time>
      </trkpt>
      <trkpt lat="48.70542" lon="2.10156">
        <ele>144.815</ele>
        <time>2018-08-01T10:42:33Z</time>
      </trkpt>
      <trkpt lat="48.7054" lon="2.10164">
        <ele>144.765</ele>
        <time>2018-08-01T10:42:39Z</time>
      </trkpt>
      <trkpt lat="48.70539" lon="2.10168">
        <ele>144.736</ele>
        <time>2018-08-01T10:42:42Z</time>
      </trkpt>
      <trkpt lat="48.70539" lon="2.10175">
        <ele>144.695</ele>
        <time>2018-08-01T10:42:46Z</time>
      </trkpt>
      <trkpt lat="48.70537" lon="2.10181">
        <ele>144.664</ele>
        <time>2018-08-01T10:42:49Z</time>
      </trkpt>
      <trkpt lat="48.70538" lon="2.10188">
        <ele>144.613</ele>
        <time>2018-08-01T10:42:54Z</time>
      </trkpt>
      <trkpt lat="48.70537" lon="2.10196">
        <ele>144.556</ele>
        <time>2018-08-01T10:42:59Z</time>
      </trkpt>
      <trkpt lat="48.70536" lon="2.10204">
        <ele>144.518</ele>
        <time>2018-08-01T10:43:02Z</time>
      </trkpt>
      <trkpt lat="48.70536" lon="2.10212">
        <ele>144.454</ele>
        <time>2018-08-01T10:43:07Z</time>
      </trkpt>
      <trkpt lat="48.70537" lon="2.10218">
        <ele>144.403</ele>
        <time>2018-08-01T10:43:11Z</time>
      </trkpt>
      <trkpt lat="48.70538" lon="2.10224">
        <ele>144.341</ele>
        <time>2018-08-01T10:43:16Z</time>
      </trkpt>
      <trkpt lat="48.70535" lon="2.10232">
        <ele>144.277</ele>
        <time>2018-08-01T10:43:21Z</time>
      </trkpt>
      <trkpt lat="48.70535" lon="2.10239">
        <ele>144.212</ele>
        <time>2018-08-01T10:43:26Z</time>
      </trkpt>
      <trkpt lat="48.70518" lon="2.10227">
        <ele>85.1</ele>
      </trkpt>
      <trkpt lat="48.70492" lon="2.10532">
        <ele>87.9</ele>
      </trkpt>
      <trkpt lat="48.70471" lon="2.10725">
        <ele>83.8</ele>
      </trkpt>
      <trkpt lat="48.70458" lon="2.10837">
        <ele>82.1</ele>
      </trkpt>
      <trkpt lat="48.70415" lon="2.10972">
        <ele>81.7</ele>
      </trkpt>
      <trkpt lat="48.70407" lon="2.11032">
        <ele>81</ele>
      </trkpt>
      <trkpt lat="48.7041" lon="2.11148">
        <ele>80.3</ele>
      </trkpt>
      <trkpt lat="48.70416" lon="2.11227">
        <ele>79.9</ele>
      </trkpt>
      <trkpt lat="48.70468" lon="2.11697">
        <ele>87.7</ele>
      </trkpt>
    </trkseg>
  </trk>
</gpx>